Wetterdaten: aktuell Mittwoch, 14.04.2021 15:25
Datum Zeit Temp. A. Temp Gart Temp -5cm Temp -5cm Temp -50cm Temp -100cm Luftf.2m Feuchte Mess Bodenf -5cm Bodenf -50cm Bodenf-100cm Luftdruck Regen Wind Richtung Richtung ET UV Solar Taupunkt Windchill Windben
14.04.2021 15:25 0,9 C 3,3 C 1,7 C 6,7 C 7,8 C 7,8 C 91 % 72 % 6 cb 5 cb 5 cb 1026,5 hPa 0,0 l/m 3,2 km/h (1 Bft) S 180 0,000 mm 0,5 UV-I 93 W/m -0,4 C 0,9 C 4,8 km/h (1 Bft)
14.04.2021 15:24 0,9 C 3,3 C 1,7 C 6,7 C 7,8 C 7,8 C 91 % 72 % 6 cb 5 cb 5 cb 1026,4 hPa 0,0 l/m 3,2 km/h (1 Bft) S 180 0,000 mm 0,5 UV-I 93 W/m -0,4 C 0,9 C 4,8 km/h (1 Bft)
14.04.2021 15:23 0,9 C 3,3 C 1,7 C 6,7 C 7,8 C 7,8 C 91 % 72 % 6 cb 5 cb 5 cb 1026,4 hPa 0,0 l/m 3,2 km/h (1 Bft) S 180 0,000 mm 0,5 UV-I 90 W/m -0,4 C 0,9 C 4,8 km/h (1 Bft)
14.04.2021 15:22 0,9 C 3,3 C 1,7 C 6,7 C 7,8 C 7,8 C 91 % 72 % 6 cb 5 cb 5 cb 1026,4 hPa 0,0 l/m 3,2 km/h (1 Bft) S 180 0,000 mm 0,5 UV-I 84 W/m -0,4 C 0,9 C 4,8 km/h (1 Bft)
14.04.2021 15:21 0,9 C 3,3 C 1,1 C 6,7 C 7,8 C 7,8 C 91 % 72 % 6 cb 5 cb 5 cb 1026,4 hPa 0,0 l/m 4,8 km/h (1 Bft) S-SO 157 0,000 mm 0,5 UV-I 84 W/m -0,4 C 0,9 C 8,0 km/h (2 Bft)
14.04.2021 15:20 0,9 C 3,3 C 1,1 C 6,7 C 7,8 C 7,8 C 91 % 72 % 6 cb 5 cb 5 cb 1026,3 hPa 0,0 l/m 6,4 km/h (2 Bft) S-SO 157 0,000 mm 0,5 UV-I 84 W/m -0,4 C 0,9 C 8,0 km/h (2 Bft)
14.04.2021 15:19 0,9 C 3,3 C 1,1 C 6,7 C 7,8 C 7,8 C 90 % 72 % 6 cb 5 cb 5 cb 1026,3 hPa 0,2 l/m 8,0 km/h (2 Bft) S 180 0,000 mm 0,5 UV-I 84 W/m -0,6 C -0,7 C 9,7 km/h (2 Bft)
14.04.2021 15:18 0,9 C 3,3 C 1,1 C 6,7 C 7,8 C 7,8 C 90 % 72 % 6 cb 5 cb 5 cb 1026,3 hPa 0,0 l/m 3,2 km/h (1 Bft) S-SO 157 0,000 mm 0,5 UV-I 83 W/m -0,6 C 0,9 C 6,4 km/h (2 Bft)
14.04.2021 15:17 0,9 C 3,3 C 1,1 C 6,7 C 7,8 C 7,8 C 90 % 72 % 6 cb 5 cb 5 cb 1026,3 hPa 0,0 l/m 4,8 km/h (1 Bft) S-SO 157 0,000 mm 0,0 UV-I 81 W/m -0,6 C 0,9 C 6,4 km/h (2 Bft)
14.04.2021 15:16 0,9 C 3,3 C 1,1 C 6,7 C 7,8 C 7,8 C 90 % 71 % 6 cb 5 cb 5 cb 1026,3 hPa 0,0 l/m 4,8 km/h (1 Bft) S-SO 157 0,000 mm 0,0 UV-I 74 W/m -0,6 C 0,9 C 6,4 km/h (2 Bft)
14.04.2021 15:15 0,9 C 3,3 C 1,1 C 6,7 C 7,8 C 7,8 C 90 % 71 % 6 cb 5 cb 5 cb 1026,4 hPa 0,0 l/m 4,8 km/h (1 Bft) S-SO 157 0,000 mm 0,0 UV-I 70 W/m -0,6 C 0,9 C 6,4 km/h (2 Bft)
14.04.2021 15:14 0,9 C 3,3 C 0,6 C 6,7 C 7,8 C 7,8 C 89 % 71 % 6 cb 5 cb 5 cb 1026,4 hPa 0,2 l/m 4,8 km/h (1 Bft) SO 135 0,000 mm 0,0 UV-I 69 W/m -0,7 C 0,9 C 6,4 km/h (2 Bft)
14.04.2021 15:13 0,9 C 3,3 C 0,6 C 6,7 C 7,8 C 7,8 C 89 % 71 % 6 cb 5 cb 5 cb 1026,4 hPa 0,0 l/m 4,8 km/h (1 Bft) SO 135 0,000 mm 0,0 UV-I 65 W/m -0,7 C 0,9 C 8,0 km/h (2 Bft)
14.04.2021 15:12 0,9 C 3,9 C 0,6 C 6,7 C 7,8 C 7,8 C 89 % 70 % 6 cb 5 cb 5 cb 1026,4 hPa 0,0 l/m 4,8 km/h (1 Bft) SO 135 0,000 mm 0,0 UV-I 62 W/m -0,7 C 0,9 C 6,4 km/h (2 Bft)
14.04.2021 15:11 0,9 C 3,9 C 0,6 C 6,7 C 7,8 C 7,8 C 89 % 70 % 6 cb 5 cb 5 cb 1026,5 hPa 0,2 l/m 4,8 km/h (1 Bft) SO 135 0,000 mm 0,0 UV-I 58 W/m -0,7 C 0,9 C 6,4 km/h (2 Bft)
14.04.2021 15:10 1,0 C 3,9 C 0,6 C 6,7 C 7,8 C 7,8 C 89 % 70 % 6 cb 5 cb 5 cb 1026,5 hPa 0,0 l/m 4,8 km/h (1 Bft) SO 135 0,000 mm 0,0 UV-I 49 W/m -0,6 C 1,0 C 6,4 km/h (2 Bft)
14.04.2021 15:09 1,0 C 3,9 C 0,6 C 6,7 C 7,8 C 7,8 C 88 % 70 % 6 cb 5 cb 5 cb 1026,5 hPa 0,2 l/m 3,2 km/h (1 Bft) O-SO 112 0,000 mm 0,0 UV-I 44 W/m -0,8 C 1,0 C 4,8 km/h (1 Bft)
14.04.2021 15:08 1,1 C 3,9 C 0,6 C 6,7 C 7,8 C 7,8 C 88 % 69 % 6 cb 5 cb 5 cb 1026,5 hPa 0,0 l/m 4,8 km/h (1 Bft) O-SO 112 0,000 mm 0,0 UV-I 39 W/m -0,7 C 1,1 C 8,0 km/h (2 Bft)
14.04.2021 15:07 1,1 C 3,9 C 0,6 C 6,7 C 7,8 C 7,8 C 88 % 69 % 6 cb 5 cb 5 cb 1026,5 hPa 0,2 l/m 3,2 km/h (1 Bft) O-SO 112 0,000 mm 0,0 UV-I 33 W/m -0,7 C 1,1 C 6,4 km/h (2 Bft)
14.04.2021 15:06 1,2 C 3,9 C 0,6 C 6,7 C 7,8 C 7,8 C 87 % 69 % 6 cb 5 cb 5 cb 1026,5 hPa 0,0 l/m 3,2 km/h (1 Bft) O-SO 112 0,000 mm 0,0 UV-I 30 W/m -0,7 C 1,2 C 3,2 km/h (1 Bft)
14.04.2021 15:05 1,2 C 3,9 C 0,6 C 6,7 C 7,8 C 7,8 C 87 % 68 % 6 cb 5 cb 5 cb 1026,6 hPa 0,0 l/m 3,2 km/h (1 Bft) O-SO 112 0,000 mm 0,0 UV-I 26 W/m -0,7 C 1,2 C 4,8 km/h (1 Bft)
14.04.2021 15:04 1,3 C 3,9 C 0,6 C 6,7 C 7,8 C 7,8 C 87 % 68 % 6 cb 5 cb 5 cb 1026,7 hPa 0,2 l/m 3,2 km/h (1 Bft) N-NW 337 0,000 mm 0,0 UV-I 21 W/m -0,6 C 1,3 C 4,8 km/h (1 Bft)
14.04.2021 15:03 1,4 C 3,9 C 1,1 C 6,7 C 7,8 C 7,8 C 86 % 68 % 6 cb 5 cb 5 cb 1026,7 hPa 0,0 l/m 0,0 km/h (0 Bft) N-NW 337 0,000 mm 0,0 UV-I 21 W/m -0,7 C 1,4 C 1,6 km/h (1 Bft)
14.04.2021 15:02 1,4 C 4,4 C 1,1 C 6,7 C 7,8 C 7,8 C 86 % 68 % 6 cb 5 cb 5 cb 1026,7 hPa 0,0 l/m 1,6 km/h (1 Bft) N-NW 337 0,000 mm 0,0 UV-I 19 W/m -0,7 C 1,4 C 1,6 km/h (1 Bft)
14.04.2021 15:01 1,6 C 4,4 C 1,1 C 6,7 C 7,8 C 7,8 C 86 % 68 % 6 cb 5 cb 5 cb 1026,7 hPa 0,0 l/m 1,6 km/h (1 Bft) N-NW 337 0,000 mm 0,0 UV-I 21 W/m -0,5 C 1,6 C 1,6 km/h (1 Bft)
14.04.2021 15:00 1,7 C 4,4 C 1,1 C 6,7 C 7,8 C 7,8 C 85 % 68 % 6 cb 5 cb 5 cb 1026,7 hPa 0,0 l/m 1,6 km/h (1 Bft) N-NW 337 0,178 mm 0,0 UV-I 21 W/m -0,5 C 1,7 C 4,8 km/h (1 Bft)
14.04.2021 14:59 1,8 C 4,4 C 1,1 C 6,7 C 7,8 C 7,8 C 85 % 68 % 6 cb 5 cb 5 cb 1026,7 hPa 0,0 l/m 0,0 km/h (0 Bft) N 0 0,000 mm 0,0 UV-I 23 W/m -0,4 C 1,8 C 0,0 km/h (0 Bft)
14.04.2021 14:58 1,8 C 4,4 C 1,7 C 6,7 C 7,8 C 7,8 C 85 % 67 % 6 cb 5 cb 5 cb 1026,7 hPa 0,0 l/m 1,6 km/h (1 Bft) N-NW 337 0,000 mm 0,0 UV-I 23 W/m -0,4 C 1,8 C 1,6 km/h (1 Bft)
14.04.2021 14:57 1,9 C 4,4 C 1,7 C 6,7 C 7,8 C 7,8 C 84 % 67 % 6 cb 5 cb 5 cb 1026,7 hPa 0,0 l/m 3,2 km/h (1 Bft) N-NW 337 0,000 mm 0,0 UV-I 26 W/m -0,5 C 1,9 C 6,4 km/h (2 Bft)
14.04.2021 14:56 2,0 C 4,4 C 1,7 C 7,2 C 7,8 C 7,8 C 83 % 67 % 6 cb 5 cb 5 cb 1026,7 hPa 0,0 l/m 4,8 km/h (1 Bft) N-NW 337 0,000 mm 0,0 UV-I 28 W/m -0,6 C 2,0 C 8,0 km/h (2 Bft)
14.04.2021 14:55 2,2 C 4,4 C 1,7 C 7,2 C 7,8 C 7,8 C 82 % 66 % 6 cb 5 cb 5 cb 1026,6 hPa 0,0 l/m 1,6 km/h (1 Bft) N-NW 337 0,000 mm 0,0 UV-I 30 W/m -0,5 C 2,2 C 3,2 km/h (1 Bft)
14.04.2021 14:54 2,3 C 5,0 C 2,2 C 7,2 C 7,8 C 7,8 C 82 % 67 % 6 cb 5 cb 5 cb 1026,6 hPa 0,0 l/m 1,6 km/h (1 Bft) N-NW 337 0,000 mm 0,0 UV-I 26 W/m -0,4 C 2,3 C 4,8 km/h (1 Bft)
14.04.2021 14:53 2,4 C 5,0 C 2,2 C 7,2 C 7,8 C 7,8 C 80 % 66 % 6 cb 5 cb 5 cb 1026,6 hPa 0,0 l/m 1,6 km/h (1 Bft) N-NW 337 0,000 mm 0,0 UV-I 26 W/m -0,7 C 2,4 C 6,4 km/h (2 Bft)
14.04.2021 14:52 2,7 C 5,0 C 2,8 C 7,2 C 7,8 C 7,8 C 80 % 66 % 6 cb 5 cb 5 cb 1026,6 hPa 0,0 l/m 4,8 km/h (1 Bft) N 360 0,000 mm 0,0 UV-I 26 W/m -0,4 C 2,7 C 8,0 km/h (2 Bft)
14.04.2021 14:51 2,9 C 5,0 C 3,3 C 7,2 C 7,8 C 7,8 C 79 % 66 % 6 cb 5 cb 5 cb 1026,5 hPa 0,0 l/m 3,2 km/h (1 Bft) N 360 0,000 mm 0,0 UV-I 25 W/m -0,4 C 2,9 C 4,8 km/h (1 Bft)
14.04.2021 14:50 3,1 C 5,0 C 3,9 C 7,2 C 7,8 C 7,8 C 77 % 66 % 6 cb 5 cb 5 cb 1026,5 hPa 0,0 l/m 3,2 km/h (1 Bft) N 360 0,000 mm 0,0 UV-I 26 W/m -0,5 C 3,1 C 6,4 km/h (2 Bft)
14.04.2021 14:49 3,4 C 5,0 C 3,9 C 7,2 C 7,8 C 7,8 C 76 % 65 % 5 cb 5 cb 5 cb 1026,4 hPa 0,0 l/m 4,8 km/h (1 Bft) N 360 0,000 mm 0,0 UV-I 32 W/m -0,4 C 3,4 C 11,3 km/h (2 Bft)
14.04.2021 14:48 3,6 C 5,0 C 5,0 C 7,2 C 7,8 C 7,8 C 76 % 65 % 5 cb 5 cb 5 cb 1026,5 hPa 0,0 l/m 9,7 km/h (2 Bft) N-NW 337 0,000 mm 0,0 UV-I 44 W/m -0,2 C 0,8 C 14,5 km/h (3 Bft)
14.04.2021 14:47 3,7 C 5,0 C 5,6 C 7,2 C 7,8 C 7,8 C 75 % 64 % 5 cb 5 cb 5 cb 1026,4 hPa 0,0 l/m 6,4 km/h (2 Bft) N 360 0,000 mm 0,0 UV-I 53 W/m -0,3 C 3,7 C 16,1 km/h (3 Bft)
14.04.2021 14:46 3,8 C 5,0 C 6,1 C 7,2 C 7,8 C 7,8 C 74 % 63 % 5 cb 5 cb 5 cb 1026,4 hPa 0,0 l/m 3,2 km/h (1 Bft) W-NW 292 0,000 mm 0,0 UV-I 58 W/m -0,4 C 3,8 C 4,8 km/h (1 Bft)
14.04.2021 14:45 3,8 C 5,0 C 6,1 C 7,2 C 7,8 C 7,8 C 74 % 64 % 5 cb 5 cb 5 cb 1026,3 hPa 0,0 l/m 4,8 km/h (1 Bft) W-NW 292 0,000 mm 0,0 UV-I 62 W/m -0,4 C 3,8 C 8,0 km/h (2 Bft)
14.04.2021 14:44 3,9 C 5,0 C 6,7 C 7,2 C 7,8 C 7,8 C 73 % 64 % 5 cb 5 cb 5 cb 1026,3 hPa 0,0 l/m 4,8 km/h (1 Bft) W 270 0,000 mm 0,0 UV-I 69 W/m -0,5 C 3,9 C 8,0 km/h (2 Bft)
14.04.2021 14:43 4,1 C 5,0 C 7,2 C 7,2 C 7,8 C 7,8 C 75 % 64 % 5 cb 5 cb 5 cb 1026,2 hPa 0,0 l/m 8,0 km/h (2 Bft) SW 225 0,000 mm 0,0 UV-I 76 W/m 0,1 C 2,7 C 11,3 km/h (2 Bft)
14.04.2021 14:42 4,1 C 5,0 C 7,8 C 7,2 C 7,8 C 7,8 C 75 % 65 % 5 cb 5 cb 5 cb 1026,2 hPa 0,0 l/m 3,2 km/h (1 Bft) S-SW 202 0,000 mm 0,0 UV-I 107 W/m 0,1 C 4,1 C 9,7 km/h (2 Bft)
14.04.2021 14:41 4,1 C 5,0 C 8,3 C 7,2 C 7,8 C 7,8 C 75 % 65 % 5 cb 5 cb 5 cb 1026,1 hPa 0,0 l/m 6,4 km/h (2 Bft) S-SW 202 0,000 mm 0,5 UV-I 137 W/m 0,1 C 4,1 C 11,3 km/h (2 Bft)
14.04.2021 14:40 4,1 C 5,0 C 8,9 C 7,2 C 7,8 C 7,8 C 75 % 65 % 5 cb 5 cb 5 cb 1026,1 hPa 0,0 l/m 6,4 km/h (2 Bft) S-SW 202 0,000 mm 0,6 UV-I 167 W/m 0,1 C 4,1 C 8,0 km/h (2 Bft)
14.04.2021 14:39 4,1 C 5,0 C 9,4 C 7,2 C 7,8 C 7,8 C 73 % 66 % 5 cb 5 cb 5 cb 1026,1 hPa 0,0 l/m 9,7 km/h (2 Bft) S 180 0,000 mm 0,7 UV-I 211 W/m -0,3 C 1,3 C 12,9 km/h (3 Bft)
14.04.2021 14:38 4,4 C 5,0 C 9,4 C 7,2 C 7,8 C 7,8 C 73 % 66 % 5 cb 5 cb 5 cb 1026,1 hPa 0,0 l/m 11,3 km/h (2 Bft) S 180 0,000 mm 1,1 UV-I 1011 W/m -0,0 C 0,5 C 16,1 km/h (3 Bft)
14.04.2021 14:37 4,6 C 5,0 C 9,4 C 7,2 C 7,8 C 7,8 C 73 % 66 % 5 cb 5 cb 5 cb 1026,1 hPa 0,0 l/m 9,7 km/h (2 Bft) S-SW 202 0,000 mm 1,9 UV-I 1011 W/m 0,2 C 1,8 C 12,9 km/h (3 Bft)
14.04.2021 14:36 4,7 C 5,0 C 10,6 C 7,2 C 7,8 C 7,8 C 76 % 66 % 5 cb 5 cb 5 cb 1026,1 hPa 0,0 l/m 9,7 km/h (2 Bft) S 180 0,000 mm 1,8 UV-I 1011 W/m 0,8 C 2,0 C 12,9 km/h (3 Bft)
14.04.2021 14:35 4,6 C 5,0 C 10,6 C 7,2 C 7,8 C 7,8 C 76 % 67 % 5 cb 5 cb 5 cb 1026,1 hPa 0,0 l/m 8,0 km/h (2 Bft) S 180 0,000 mm 2,4 UV-I 1011 W/m 0,7 C 3,2 C 12,9 km/h (3 Bft)
14.04.2021 14:34 4,4 C 5,0 C 10,0 C 7,2 C 7,8 C 7,8 C 75 % 67 % 5 cb 5 cb 5 cb 1026,1 hPa 0,0 l/m 8,0 km/h (2 Bft) S 180 0,000 mm 2,6 UV-I 745 W/m 0,4 C 3,0 C 11,3 km/h (2 Bft)
14.04.2021 14:33 4,2 C 5,0 C 9,4 C 7,2 C 7,8 C 7,8 C 75 % 66 % 5 cb 5 cb 5 cb 1026,1 hPa 0,0 l/m 9,7 km/h (2 Bft) S 180 0,000 mm 2,6 UV-I 1011 W/m 0,2 C 1,4 C 14,5 km/h (3 Bft)
14.04.2021 14:32 4,2 C 5,0 C 9,4 C 7,2 C 7,8 C 7,8 C 75 % 66 % 5 cb 5 cb 5 cb 1026,1 hPa 0,0 l/m 9,7 km/h (2 Bft) S 180 0,000 mm 2,6 UV-I 995 W/m 0,2 C 1,4 C 14,5 km/h (3 Bft)
14.04.2021 14:31 4,1 C 4,4 C 9,4 C 7,2 C 7,8 C 7,8 C 75 % 66 % 5 cb 5 cb 5 cb 1026,1 hPa 0,0 l/m 11,3 km/h (2 Bft) S-SW 202 0,000 mm 2,8 UV-I 1011 W/m 0,1 C 0,2 C 14,5 km/h (3 Bft)
14.04.2021 14:30 3,9 C 4,4 C 9,4 C 7,2 C 7,8 C 7,8 C 74 % 65 % 5 cb 5 cb 5 cb 1026,2 hPa 0,0 l/m 9,7 km/h (2 Bft) S-SW 202 0,000 mm 2,8 UV-I 1009 W/m -0,3 C 1,1 C 12,9 km/h (3 Bft)
14.04.2021 14:29 3,8 C 4,4 C 9,4 C 7,2 C 7,8 C 7,8 C 74 % 65 % 5 cb 5 cb 5 cb 1026,2 hPa 0,0 l/m 11,3 km/h (2 Bft) S-SW 202 0,000 mm 2,9 UV-I 969 W/m -0,4 C -0,2 C 14,5 km/h (3 Bft)
14.04.2021 14:28 3,8 C 4,4 C 9,4 C 7,2 C 7,8 C 7,8 C 74 % 66 % 5 cb 5 cb 5 cb 1026,2 hPa 0,0 l/m 9,7 km/h (2 Bft) S-SW 202 0,000 mm 2,9 UV-I 905 W/m -0,4 C 1,0 C 12,9 km/h (3 Bft)
14.04.2021 14:27 3,7 C 4,4 C 9,4 C 7,2 C 7,8 C 7,8 C 75 % 67 % 5 cb 5 cb 5 cb 1026,2 hPa 0,0 l/m 11,3 km/h (2 Bft) S-SW 202 0,000 mm 2,2 UV-I 905 W/m -0,3 C -0,3 C 14,5 km/h (3 Bft)
14.04.2021 14:26 3,7 C 4,4 C 9,4 C 7,2 C 7,8 C 7,8 C 75 % 67 % 5 cb 5 cb 5 cb 1026,3 hPa 0,0 l/m 9,7 km/h (2 Bft) S-SW 202 0,000 mm 2,9 UV-I 905 W/m -0,3 C 0,9 C 11,3 km/h (2 Bft)
14.04.2021 14:25 3,7 C 4,4 C 9,4 C 7,2 C 7,8 C 7,8 C 76 % 66 % 5 cb 5 cb 5 cb 1026,2 hPa 0,0 l/m 9,7 km/h (2 Bft) S-SW 202 0,000 mm 2,9 UV-I 884 W/m -0,1 C 0,9 C 12,9 km/h (3 Bft)
14.04.2021 14:24 3,7 C 4,4 C 9,4 C 7,2 C 7,8 C 7,8 C 77 % 68 % 5 cb 5 cb 5 cb 1026,3 hPa 0,0 l/m 9,7 km/h (2 Bft) S-SW 202 0,000 mm 2,8 UV-I 854 W/m 0,1 C 0,9 C 12,9 km/h (3 Bft)
14.04.2021 14:23 3,7 C 4,4 C 9,4 C 7,2 C 7,8 C 7,8 C 77 % 68 % 5 cb 5 cb 5 cb 1026,3 hPa 0,0 l/m 11,3 km/h (2 Bft) S-SW 202 0,000 mm 2,9 UV-I 863 W/m 0,1 C -0,3 C 11,3 km/h (2 Bft)
14.04.2021 14:22 3,7 C 4,4 C 10,6 C 6,7 C 7,8 C 7,8 C 77 % 69 % 5 cb 5 cb 5 cb 1026,3 hPa 0,0 l/m 11,3 km/h (2 Bft) S-SW 202 0,000 mm 2,8 UV-I 860 W/m 0,1 C -0,3 C 12,9 km/h (3 Bft)
14.04.2021 14:21 3,6 C 4,4 C 10,6 C 6,7 C 7,8 C 7,8 C 77 % 69 % 5 cb 5 cb 5 cb 1026,2 hPa 0,0 l/m 8,0 km/h (2 Bft) SW 225 0,000 mm 2,9 UV-I 861 W/m -0,0 C 2,1 C 11,3 km/h (2 Bft)
14.04.2021 14:20 3,4 C 4,4 C 10,0 C 6,7 C 7,8 C 7,8 C 78 % 69 % 5 cb 5 cb 5 cb 1026,3 hPa 0,0 l/m 6,4 km/h (2 Bft) W-SW 247 0,000 mm 2,8 UV-I 849 W/m -0,1 C 3,4 C 9,7 km/h (2 Bft)
14.04.2021 14:19 3,2 C 4,4 C 10,0 C 6,7 C 7,8 C 7,8 C 76 % 68 % 5 cb 5 cb 5 cb 1026,3 hPa 0,0 l/m 8,0 km/h (2 Bft) W-SW 247 0,000 mm 2,8 UV-I 779 W/m -0,6 C 1,7 C 11,3 km/h (2 Bft)
14.04.2021 14:18 3,1 C 4,4 C 10,0 C 6,7 C 7,8 C 7,8 C 76 % 67 % 5 cb 5 cb 5 cb 1026,3 hPa 0,0 l/m 9,7 km/h (2 Bft) W-SW 247 0,000 mm 2,9 UV-I 860 W/m -0,7 C 0,2 C 12,9 km/h (3 Bft)
14.04.2021 14:17 2,9 C 4,4 C 10,0 C 6,7 C 7,8 C 7,8 C 76 % 67 % 5 cb 5 cb 5 cb 1026,3 hPa 0,0 l/m 9,7 km/h (2 Bft) W-SW 247 0,000 mm 2,8 UV-I 898 W/m -0,9 C -0,0 C 12,9 km/h (3 Bft)
14.04.2021 14:16 2,9 C 4,4 C 10,0 C 6,7 C 7,8 C 7,8 C 77 % 67 % 5 cb 5 cb 5 cb 1026,4 hPa 0,0 l/m 9,7 km/h (2 Bft) SW 225 0,000 mm 2,8 UV-I 858 W/m -0,7 C -0,0 C 12,9 km/h (3 Bft)
14.04.2021 14:15 2,8 C 4,4 C 10,0 C 6,7 C 7,8 C 7,8 C 78 % 68 % 5 cb 5 cb 5 cb 1026,4 hPa 0,0 l/m 9,7 km/h (2 Bft) SW 225 0,000 mm 2,9 UV-I 888 W/m -0,6 C -0,1 C 12,9 km/h (3 Bft)
14.04.2021 14:14 2,8 C 4,4 C 9,4 C 6,7 C 7,8 C 7,8 C 78 % 68 % 5 cb 5 cb 5 cb 1026,4 hPa 0,0 l/m 11,3 km/h (2 Bft) W-SW 247 0,000 mm 2,9 UV-I 911 W/m -0,6 C -1,3 C 14,5 km/h (3 Bft)
14.04.2021 14:13 2,7 C 4,4 C 9,4 C 6,7 C 7,8 C 7,8 C 78 % 68 % 5 cb 5 cb 5 cb 1026,4 hPa 0,0 l/m 11,3 km/h (2 Bft) W-SW 247 0,000 mm 2,9 UV-I 905 W/m -0,7 C -1,4 C 12,9 km/h (3 Bft)
14.04.2021 14:12 2,6 C 4,4 C 8,9 C 6,7 C 7,8 C 7,8 C 80 % 69 % 5 cb 5 cb 5 cb 1026,4 hPa 0,0 l/m 11,3 km/h (2 Bft) SW 225 0,000 mm 2,9 UV-I 969 W/m -0,5 C -1,5 C 14,5 km/h (3 Bft)
14.04.2021 14:11 2,6 C 4,4 C 7,8 C 6,7 C 7,8 C 7,8 C 80 % 69 % 5 cb 5 cb 5 cb 1026,4 hPa 0,0 l/m 8,0 km/h (2 Bft) SW 225 0,000 mm 2,9 UV-I 953 W/m -0,5 C 1,1 C 11,3 km/h (2 Bft)
14.04.2021 14:10 2,6 C 4,4 C 6,7 C 6,7 C 7,8 C 7,8 C 79 % 68 % 5 cb 5 cb 5 cb 1026,4 hPa 0,0 l/m 9,7 km/h (2 Bft) W-SW 247 0,000 mm 2,7 UV-I 216 W/m -0,7 C -0,3 C 12,9 km/h (3 Bft)
14.04.2021 14:09 2,6 C 4,4 C 5,6 C 6,7 C 7,8 C 7,8 C 78 % 67 % 5 cb 5 cb 5 cb 1026,4 hPa 0,0 l/m 9,7 km/h (2 Bft) SW 225 0,000 mm 2,3 UV-I 216 W/m -0,8 C -0,3 C 12,9 km/h (3 Bft)
14.04.2021 14:08 2,7 C 4,4 C 5,0 C 6,7 C 7,8 C 7,8 C 79 % 67 % 5 cb 5 cb 5 cb 1026,5 hPa 0,0 l/m 16,1 km/h (3 Bft) SW 225 0,000 mm 1,9 UV-I 216 W/m -0,6 C -4,3 C 20,9 km/h (4 Bft)
14.04.2021 14:07 2,8 C 4,4 C 5,0 C 6,7 C 7,8 C 7,8 C 79 % 67 % 5 cb 5 cb 5 cb 1026,5 hPa 0,0 l/m 9,7 km/h (2 Bft) SW 225 0,000 mm 1,0 UV-I 216 W/m -0,5 C -0,1 C 12,9 km/h (3 Bft)
14.04.2021 14:06 2,9 C 4,4 C 5,0 C 6,7 C 7,8 C 7,8 C 78 % 67 % 5 cb 5 cb 5 cb 1026,6 hPa 0,0 l/m 8,0 km/h (2 Bft) W-SW 247 0,000 mm 1,0 UV-I 200 W/m -0,5 C 1,4 C 16,1 km/h (3 Bft)
14.04.2021 14:05 3,1 C 4,4 C 5,0 C 6,7 C 7,8 C 7,8 C 77 % 66 % 5 cb 5 cb 5 cb 1026,5 hPa 0,0 l/m 9,7 km/h (2 Bft) W-SW 247 0,000 mm 1,0 UV-I 183 W/m -0,5 C 0,2 C 16,1 km/h (3 Bft)
14.04.2021 14:04 3,3 C 4,4 C 5,0 C 6,7 C 7,8 C 7,8 C 77 % 66 % 5 cb 5 cb 5 cb 1026,6 hPa 0,0 l/m 11,3 km/h (2 Bft) W 270 0,000 mm 0,8 UV-I 148 W/m -0,3 C -0,7 C 17,7 km/h (3 Bft)
14.04.2021 14:03 3,4 C 4,4 C 5,6 C 6,7 C 7,8 C 7,8 C 78 % 67 % 5 cb 5 cb 5 cb 1026,6 hPa 0,0 l/m 16,1 km/h (3 Bft) W 270 0,000 mm 0,7 UV-I 151 W/m -0,1 C -3,4 C 27,4 km/h (4 Bft)
14.04.2021 14:02 3,5 C 4,4 C 6,7 C 6,7 C 7,8 C 7,8 C 78 % 68 % 5 cb 5 cb 5 cb 1026,5 hPa 0,0 l/m 14,5 km/h (3 Bft) W-SW 247 0,000 mm 0,7 UV-I 156 W/m 0,0 C -2,5 C 27,4 km/h (4 Bft)
14.04.2021 14:01 3,6 C 4,4 C 6,7 C 6,7 C 7,8 C 7,8 C 77 % 68 % 5 cb 5 cb 5 cb 1026,5 hPa 0,0 l/m 9,7 km/h (2 Bft) W-SW 247 0,000 mm 0,6 UV-I 146 W/m -0,0 C 0,8 C 14,5 km/h (3 Bft)
14.04.2021 14:00 3,7 C 4,4 C 7,2 C 6,7 C 7,8 C 7,8 C 77 % 67 % 5 cb 5 cb 5 cb 1026,5 hPa 0,0 l/m 14,5 km/h (3 Bft) S-SW 202 0,229 mm 0,6 UV-I 139 W/m 0,1 C -2,2 C 19,3 km/h (3 Bft)
14.04.2021 13:59 3,8 C 4,4 C 7,8 C 6,7 C 7,8 C 7,8 C 77 % 67 % 5 cb 5 cb 5 cb 1026,4 hPa 0,0 l/m 11,3 km/h (2 Bft) S-SW 202 0,000 mm 0,6 UV-I 144 W/m 0,1 C -0,2 C 12,9 km/h (3 Bft)
14.04.2021 13:58 3,9 C 4,4 C 9,4 C 6,7 C 7,8 C 7,8 C 77 % 67 % 5 cb 5 cb 5 cb 1026,3 hPa 0,0 l/m 9,7 km/h (2 Bft) S-SW 202 0,000 mm 0,8 UV-I 162 W/m 0,2 C 1,1 C 12,9 km/h (3 Bft)
14.04.2021 13:57 3,9 C 4,4 C 11,1 C 6,7 C 7,8 C 7,8 C 77 % 68 % 5 cb 5 cb 5 cb 1026,4 hPa 0,0 l/m 11,3 km/h (2 Bft) S 180 0,000 mm 0,8 UV-I 193 W/m 0,2 C -0,1 C 16,1 km/h (3 Bft)
14.04.2021 13:56 4,0 C 4,4 C 13,3 C 6,7 C 7,8 C 7,8 C 77 % 69 % 5 cb 5 cb 5 cb 1026,3 hPa 0,0 l/m 11,3 km/h (2 Bft) S 180 0,000 mm 1,3 UV-I 1007 W/m 0,3 C 0,1 C 17,7 km/h (3 Bft)
14.04.2021 13:55 3,9 C 4,4 C 13,9 C 6,7 C 7,8 C 7,8 C 78 % 68 % 5 cb 5 cb 5 cb 1026,3 hPa 0,0 l/m 9,7 km/h (2 Bft) S 180 0,000 mm 1,9 UV-I 1007 W/m 0,4 C 1,1 C 16,1 km/h (3 Bft)
14.04.2021 13:54 3,9 C 4,4 C 13,9 C 6,7 C 7,8 C 7,8 C 79 % 69 % 5 cb 5 cb 5 cb 1026,4 hPa 0,0 l/m 11,3 km/h (2 Bft) S 180 0,000 mm 2,8 UV-I 1007 W/m 0,6 C -0,1 C 22,5 km/h (4 Bft)
14.04.2021 13:53 3,7 C 4,4 C 13,3 C 6,7 C 7,8 C 7,8 C 78 % 68 % 5 cb 5 cb 5 cb 1026,5 hPa 0,0 l/m 11,3 km/h (2 Bft) S 180 0,000 mm 2,8 UV-I 819 W/m 0,2 C -0,3 C 17,7 km/h (3 Bft)
14.04.2021 13:52 3,7 C 4,4 C 12,8 C 6,7 C 7,8 C 7,8 C 78 % 69 % 5 cb 5 cb 5 cb 1026,5 hPa 0,0 l/m 9,7 km/h (2 Bft) S-SO 157 0,000 mm 2,7 UV-I 819 W/m 0,2 C 0,9 C 22,5 km/h (4 Bft)
14.04.2021 13:51 3,6 C 4,4 C 11,7 C 6,7 C 7,8 C 7,8 C 77 % 67 % 5 cb 5 cb 5 cb 1026,5 hPa 0,0 l/m 12,9 km/h (3 Bft) S 180 0,000 mm 2,6 UV-I 781 W/m -0,0 C -1,4 C 19,3 km/h (3 Bft)
14.04.2021 13:50 3,6 C 4,4 C 11,7 C 6,7 C 7,8 C 7,8 C 76 % 67 % 5 cb 5 cb 5 cb 1026,5 hPa 0,0 l/m 12,9 km/h (3 Bft) S 180 0,000 mm 2,6 UV-I 1085 W/m -0,2 C -1,4 C 19,3 km/h (3 Bft)
14.04.2021 13:49 3,7 C 4,4 C 11,7 C 6,7 C 7,8 C 7,8 C 77 % 67 % 5 cb 5 cb 5 cb 1026,5 hPa 0,0 l/m 14,5 km/h (3 Bft) S-SW 202 0,000 mm 3,1 UV-I 1085 W/m 0,1 C -2,2 C 20,9 km/h (4 Bft)
14.04.2021 13:48 3,8 C 4,4 C 13,3 C 6,7 C 7,8 C 7,8 C 77 % 68 % 5 cb 5 cb 5 cb 1026,5 hPa 0,0 l/m 12,9 km/h (3 Bft) S-SW 202 0,000 mm 2,1 UV-I 1085 W/m 0,1 C -1,2 C 17,7 km/h (3 Bft)
14.04.2021 13:47 3,9 C 4,4 C 13,3 C 6,7 C 7,8 C 7,8 C 76 % 68 % 5 cb 5 cb 5 cb 1026,6 hPa 0,0 l/m 12,9 km/h (3 Bft) S-SW 202 0,000 mm 3,2 UV-I 1085 W/m 0,1 C -1,1 C 19,3 km/h (3 Bft)
14.04.2021 13:46 3,9 C 4,4 C 12,2 C 6,7 C 7,8 C 7,8 C 75 % 68 % 5 cb 5 cb 5 cb 1026,6 hPa 0,0 l/m 9,7 km/h (2 Bft) S 180 0,000 mm 3,2 UV-I 399 W/m -0,1 C 1,1 C 14,5 km/h (3 Bft)
14.04.2021 13:45 3,9 C 4,4 C 12,8 C 6,7 C 7,8 C 7,8 C 75 % 67 % 5 cb 5 cb 5 cb 1026,6 hPa 0,0 l/m 12,9 km/h (3 Bft) S-SW 202 0,000 mm 3,2 UV-I 399 W/m -0,1 C -1,1 C 16,1 km/h (3 Bft)
14.04.2021 13:44 4,0 C 4,4 C 15,0 C 6,7 C 7,8 C 7,8 C 77 % 69 % 5 cb 5 cb 5 cb 1026,6 hPa 0,0 l/m 12,9 km/h (3 Bft) S-SW 202 0,000 mm 2,4 UV-I 399 W/m 0,3 C -1,0 C 17,7 km/h (3 Bft)
14.04.2021 13:43 4,0 C 4,4 C 16,7 C 6,7 C 7,8 C 7,8 C 77 % 70 % 5 cb 5 cb 5 cb 1026,6 hPa 0,0 l/m 11,3 km/h (2 Bft) S-SW 202 0,000 mm 3,1 UV-I 958 W/m 0,3 C 0,1 C 16,1 km/h (3 Bft)
14.04.2021 13:42 4,0 C 4,4 C 16,7 C 6,7 C 7,8 C 7,8 C 77 % 71 % 5 cb 5 cb 5 cb 1026,5 hPa 0,0 l/m 11,3 km/h (2 Bft) S-SO 157 0,000 mm 3,1 UV-I 958 W/m 0,3 C 0,1 C 19,3 km/h (3 Bft)
14.04.2021 13:41 3,9 C 3,9 C 15,6 C 6,7 C 7,8 C 7,8 C 77 % 70 % 5 cb 5 cb 5 cb 1026,5 hPa 0,0 l/m 9,7 km/h (2 Bft) S 180 0,000 mm 3,1 UV-I 932 W/m 0,2 C 1,1 C 14,5 km/h (3 Bft)
14.04.2021 13:40 3,9 C 3,9 C 15,0 C 6,7 C 7,8 C 7,8 C 79 % 69 % 5 cb 5 cb 5 cb 1026,5 hPa 0,0 l/m 12,9 km/h (3 Bft) S-SO 157 0,000 mm 3,1 UV-I 907 W/m 0,6 C -1,1 C 17,7 km/h (3 Bft)
14.04.2021 13:39 3,8 C 3,9 C 14,4 C 6,7 C 7,8 C 7,8 C 77 % 69 % 5 cb 5 cb 5 cb 1026,5 hPa 0,0 l/m 8,0 km/h (2 Bft) S-SO 157 0,000 mm 3,1 UV-I 888 W/m 0,1 C 2,3 C 14,5 km/h (3 Bft)
14.04.2021 13:38 3,7 C 3,9 C 14,4 C 6,7 C 7,8 C 7,8 C 78 % 69 % 5 cb 5 cb 5 cb 1026,6 hPa 0,0 l/m 11,3 km/h (2 Bft) S-SW 202 0,000 mm 3,1 UV-I 879 W/m 0,2 C -0,3 C 17,7 km/h (3 Bft)
14.04.2021 13:37 3,6 C 3,9 C 14,4 C 6,1 C 7,8 C 7,8 C 79 % 70 % 5 cb 5 cb 5 cb 1026,6 hPa 0,0 l/m 12,9 km/h (3 Bft) S-SW 202 0,000 mm 3,1 UV-I 870 W/m 0,3 C -1,4 C 20,9 km/h (4 Bft)
14.04.2021 13:36 3,4 C 3,9 C 13,9 C 6,1 C 7,8 C 7,8 C 77 % 69 % 5 cb 5 cb 5 cb 1026,6 hPa 0,0 l/m 9,7 km/h (2 Bft) S 180 0,000 mm 3,0 UV-I 796 W/m -0,2 C 0,5 C 16,1 km/h (3 Bft)
14.04.2021 13:35 3,3 C 3,9 C 13,9 C 6,1 C 7,8 C 7,8 C 76 % 69 % 5 cb 5 cb 5 cb 1026,6 hPa 0,0 l/m 12,9 km/h (3 Bft) S-SW 202 0,000 mm 3,1 UV-I 865 W/m -0,5 C -1,8 C 17,7 km/h (3 Bft)
14.04.2021 13:34 3,3 C 3,9 C 13,3 C 6,1 C 7,8 C 7,8 C 76 % 70 % 5 cb 5 cb 5 cb 1026,7 hPa 0,0 l/m 9,7 km/h (2 Bft) S-SW 202 0,000 mm 3,1 UV-I 860 W/m -0,5 C 0,4 C 12,9 km/h (3 Bft)
14.04.2021 13:33 3,4 C 3,9 C 13,3 C 6,1 C 7,8 C 7,8 C 76 % 69 % 5 cb 5 cb 5 cb 1026,7 hPa 0,0 l/m 12,9 km/h (3 Bft) S-SW 202 0,000 mm 3,0 UV-I 847 W/m -0,4 C -1,7 C 19,3 km/h (3 Bft)
14.04.2021 13:32 3,4 C 3,9 C 13,3 C 6,1 C 7,8 C 7,8 C 75 % 70 % 5 cb 5 cb 5 cb 1026,7 hPa 0,0 l/m 14,5 km/h (3 Bft) S-SW 202 0,000 mm 3,0 UV-I 853 W/m -0,6 C -2,6 C 19,3 km/h (3 Bft)
14.04.2021 13:31 3,5 C 3,9 C 13,3 C 6,1 C 7,8 C 7,8 C 75 % 70 % 5 cb 5 cb 5 cb 1026,7 hPa 0,0 l/m 14,5 km/h (3 Bft) S-SW 202 0,000 mm 3,0 UV-I 856 W/m -0,5 C -2,5 C 19,3 km/h (3 Bft)
14.04.2021 13:30 3,6 C 3,9 C 13,3 C 6,1 C 7,8 C 7,8 C 75 % 69 % 5 cb 5 cb 5 cb 1026,7 hPa 0,0 l/m 11,3 km/h (2 Bft) S-SW 202 0,000 mm 3,0 UV-I 854 W/m -0,4 C -0,4 C 14,5 km/h (3 Bft)
14.04.2021 13:29 3,7 C 3,9 C 13,3 C 6,1 C 7,8 C 7,8 C 75 % 69 % 5 cb 5 cb 5 cb 1026,7 hPa 0,0 l/m 11,3 km/h (2 Bft) S-SW 202 0,000 mm 3,0 UV-I 701 W/m -0,3 C -0,3 C 16,1 km/h (3 Bft)
14.04.2021 13:28 3,6 C 3,9 C 12,2 C 6,1 C 7,8 C 7,8 C 76 % 69 % 5 cb 5 cb 5 cb 1026,7 hPa 0,0 l/m 9,7 km/h (2 Bft) SW 225 0,000 mm 3,0 UV-I 701 W/m -0,2 C 0,8 C 14,5 km/h (3 Bft)
14.04.2021 13:27 3,7 C 3,9 C 11,1 C 6,1 C 7,8 C 7,8 C 77 % 69 % 5 cb 5 cb 5 cb 1026,7 hPa 0,0 l/m 11,3 km/h (2 Bft) SW 225 0,000 mm 2,9 UV-I 701 W/m 0,1 C -0,3 C 16,1 km/h (3 Bft)
14.04.2021 13:26 3,6 C 3,3 C 11,1 C 6,1 C 7,8 C 7,8 C 78 % 70 % 6 cb 5 cb 5 cb 1026,6 hPa 0,0 l/m 8,0 km/h (2 Bft) SW 225 0,000 mm 2,3 UV-I 610 W/m 0,1 C 2,1 C 9,7 km/h (2 Bft)
14.04.2021 13:25 3,4 C 3,3 C 10,0 C 6,1 C 7,8 C 7,8 C 77 % 70 % 6 cb 5 cb 5 cb 1026,7 hPa 0,0 l/m 6,4 km/h (2 Bft) S-SW 202 0,000 mm 2,5 UV-I 675 W/m -0,2 C 3,4 C 9,7 km/h (2 Bft)
14.04.2021 13:24 3,3 C 3,3 C 8,9 C 6,1 C 7,8 C 7,8 C 77 % 70 % 6 cb 5 cb 5 cb 1026,7 hPa 0,0 l/m 8,0 km/h (2 Bft) SW 225 0,000 mm 2,4 UV-I 504 W/m -0,3 C 1,8 C 11,3 km/h (2 Bft)
14.04.2021 13:23 3,3 C 3,3 C 8,9 C 6,1 C 7,8 C 7,8 C 77 % 70 % 6 cb 5 cb 5 cb 1026,7 hPa 0,0 l/m 12,9 km/h (3 Bft) S-SW 202 0,000 mm 2,3 UV-I 504 W/m -0,3 C -1,8 C 19,3 km/h (3 Bft)
14.04.2021 13:22 3,3 C 3,3 C 8,9 C 6,1 C 7,8 C 7,8 C 77 % 70 % 6 cb 5 cb 5 cb 1026,6 hPa 0,0 l/m 14,5 km/h (3 Bft) S-SW 202 0,000 mm 2,3 UV-I 504 W/m -0,3 C -2,7 C 17,7 km/h (3 Bft)
14.04.2021 13:21 3,3 C 3,3 C 8,9 C 6,1 C 7,8 C 7,8 C 77 % 70 % 6 cb 5 cb 5 cb 1026,7 hPa 0,0 l/m 12,9 km/h (3 Bft) S-SW 202 0,000 mm 2,3 UV-I 346 W/m -0,3 C -1,8 C 16,1 km/h (3 Bft)
14.04.2021 13:20 3,3 C 3,3 C 8,9 C 6,1 C 7,8 C 7,8 C 78 % 70 % 6 cb 5 cb 5 cb 1026,7 hPa 0,0 l/m 8,0 km/h (2 Bft) SW 225 0,000 mm 1,9 UV-I 346 W/m -0,2 C 1,8 C 14,5 km/h (3 Bft)
14.04.2021 13:19 3,3 C 3,3 C 7,2 C 6,1 C 7,8 C 7,8 C 78 % 70 % 6 cb 5 cb 5 cb 1026,7 hPa 0,0 l/m 9,7 km/h (2 Bft) SW 225 0,000 mm 2,6 UV-I 287 W/m -0,2 C 0,4 C 12,9 km/h (3 Bft)
14.04.2021 13:18 3,2 C 3,3 C 7,2 C 6,1 C 7,8 C 7,8 C 77 % 70 % 6 cb 5 cb 5 cb 1026,7 hPa 0,0 l/m 16,1 km/h (3 Bft) S-SW 202 0,000 mm 2,6 UV-I 287 W/m -0,4 C -3,7 C 20,9 km/h (4 Bft)
14.04.2021 13:17 3,2 C 3,3 C 6,7 C 6,1 C 7,8 C 7,8 C 78 % 70 % 6 cb 5 cb 5 cb 1026,8 hPa 0,0 l/m 12,9 km/h (3 Bft) S-SW 202 0,000 mm 2,0 UV-I 287 W/m -0,3 C -1,9 C 20,9 km/h (4 Bft)
14.04.2021 13:16 3,2 C 3,3 C 6,1 C 6,1 C 7,8 C 7,8 C 78 % 70 % 6 cb 5 cb 5 cb 1026,8 hPa 0,0 l/m 6,4 km/h (2 Bft) S-SW 202 0,000 mm 1,6 UV-I 287 W/m -0,3 C 3,2 C 11,3 km/h (2 Bft)
14.04.2021 13:15 3,2 C 3,3 C 6,1 C 6,1 C 7,8 C 7,8 C 78 % 70 % 6 cb 5 cb 5 cb 1026,8 hPa 0,0 l/m 8,0 km/h (2 Bft) S-SW 202 0,000 mm 1,6 UV-I 287 W/m -0,3 C 1,7 C 11,3 km/h (2 Bft)
14.04.2021 13:14 3,1 C 3,3 C 6,1 C 6,1 C 7,8 C 7,8 C 77 % 70 % 6 cb 5 cb 5 cb 1026,9 hPa 0,0 l/m 4,8 km/h (1 Bft) SW 225 0,000 mm 1,3 UV-I 267 W/m -0,5 C 3,1 C 8,0 km/h (2 Bft)
14.04.2021 13:13 3,1 C 3,3 C 6,1 C 6,1 C 7,8 C 7,8 C 78 % 70 % 6 cb 5 cb 5 cb 1026,9 hPa 0,0 l/m 9,7 km/h (2 Bft) S-SW 202 0,000 mm 1,3 UV-I 276 W/m -0,4 C 0,2 C 11,3 km/h (2 Bft)
14.04.2021 13:12 3,1 C 3,3 C 6,1 C 6,1 C 7,8 C 7,8 C 78 % 70 % 6 cb 5 cb 5 cb 1026,9 hPa 0,0 l/m 8,0 km/h (2 Bft) S-SW 202 0,000 mm 1,3 UV-I 271 W/m -0,4 C 1,6 C 9,7 km/h (2 Bft)
14.04.2021 13:11 3,0 C 3,3 C 6,1 C 6,1 C 7,8 C 7,8 C 76 % 70 % 6 cb 5 cb 5 cb 1026,9 hPa 0,0 l/m 8,0 km/h (2 Bft) S-SW 202 0,000 mm 1,2 UV-I 258 W/m -0,8 C 1,5 C 11,3 km/h (2 Bft)
14.04.2021 13:10 3,1 C 3,3 C 6,1 C 6,1 C 7,8 C 7,8 C 77 % 69 % 6 cb 5 cb 5 cb 1026,9 hPa 0,0 l/m 9,7 km/h (2 Bft) S-SW 202 0,000 mm 1,2 UV-I 250 W/m -0,5 C 0,2 C 11,3 km/h (2 Bft)
14.04.2021 13:09 3,1 C 3,3 C 6,1 C 6,1 C 7,8 C 7,8 C 77 % 70 % 6 cb 5 cb 5 cb 1026,9 hPa 0,0 l/m 8,0 km/h (2 Bft) SW 225 0,000 mm 1,2 UV-I 251 W/m -0,5 C 1,6 C 11,3 km/h (2 Bft)
14.04.2021 13:08 3,1 C 3,3 C 6,1 C 6,1 C 7,8 C 7,8 C 78 % 71 % 6 cb 5 cb 5 cb 1026,9 hPa 0,0 l/m 9,7 km/h (2 Bft) S-SW 202 0,000 mm 1,1 UV-I 255 W/m -0,4 C 0,2 C 14,5 km/h (3 Bft)
14.04.2021 13:07 3,1 C 3,3 C 6,1 C 6,1 C 7,8 C 7,8 C 78 % 71 % 6 cb 5 cb 5 cb 1026,9 hPa 0,0 l/m 8,0 km/h (2 Bft) S-SW 202 0,000 mm 1,0 UV-I 207 W/m -0,4 C 1,6 C 14,5 km/h (3 Bft)
14.04.2021 13:06 3,2 C 3,3 C 6,7 C 6,1 C 7,8 C 7,8 C 77 % 70 % 6 cb 5 cb 5 cb 1026,9 hPa 0,0 l/m 8,0 km/h (2 Bft) S-SW 202 0,000 mm 0,9 UV-I 200 W/m -0,4 C 1,7 C 9,7 km/h (2 Bft)
14.04.2021 13:05 3,2 C 3,3 C 6,7 C 6,1 C 7,8 C 7,8 C 79 % 71 % 6 cb 5 cb 5 cb 1026,9 hPa 0,0 l/m 6,4 km/h (2 Bft) SW 225 0,000 mm 1,0 UV-I 202 W/m -0,1 C 3,2 C 9,7 km/h (2 Bft)
14.04.2021 13:04 3,2 C 3,3 C 7,2 C 6,1 C 7,8 C 7,8 C 78 % 72 % 6 cb 5 cb 5 cb 1026,9 hPa 0,0 l/m 4,8 km/h (1 Bft) S-SW 202 0,000 mm 1,0 UV-I 246 W/m -0,3 C 3,2 C 6,4 km/h (2 Bft)
14.04.2021 13:03 3,1 C 3,3 C 7,2 C 6,1 C 7,8 C 7,8 C 79 % 72 % 6 cb 5 cb 5 cb 1026,9 hPa 0,0 l/m 6,4 km/h (2 Bft) S 180 0,000 mm 1,1 UV-I 246 W/m -0,2 C 3,1 C 8,0 km/h (2 Bft)
14.04.2021 13:02 3,1 C 3,3 C 7,8 C 6,1 C 7,8 C 7,8 C 78 % 71 % 6 cb 5 cb 5 cb 1026,9 hPa 0,0 l/m 6,4 km/h (2 Bft) S 180 0,000 mm 1,3 UV-I 309 W/m -0,4 C 3,1 C 11,3 km/h (2 Bft)
14.04.2021 13:01 3,2 C 3,3 C 8,9 C 6,1 C 7,8 C 7,8 C 79 % 72 % 6 cb 5 cb 5 cb 1026,9 hPa 0,0 l/m 9,7 km/h (2 Bft) S 180 0,000 mm 1,4 UV-I 345 W/m -0,1 C 0,3 C 12,9 km/h (3 Bft)
14.04.2021 13:00 3,2 C 3,3 C 8,9 C 6,1 C 7,8 C 7,8 C 80 % 72 % 6 cb 5 cb 5 cb 1026,9 hPa 0,0 l/m 6,4 km/h (2 Bft) S-SW 202 0,127 mm 1,6 UV-I 417 W/m 0,1 C 3,2 C 12,9 km/h (3 Bft)
14.04.2021 12:59 3,2 C 3,3 C 8,9 C 6,1 C 7,8 C 7,8 C 81 % 72 % 6 cb 5 cb 5 cb 1026,9 hPa 0,0 l/m 9,7 km/h (2 Bft) S 180 0,000 mm 1,7 UV-I 580 W/m 0,3 C 0,3 C 14,5 km/h (3 Bft)
14.04.2021 12:58 3,2 C 3,3 C 8,3 C 6,1 C 7,8 C 7,8 C 82 % 72 % 6 cb 5 cb 5 cb 1027,0 hPa 0,0 l/m 6,4 km/h (2 Bft) S-SW 202 0,000 mm 2,7 UV-I 580 W/m 0,4 C 3,2 C 12,9 km/h (3 Bft)
14.04.2021 12:57 3,1 C 3,3 C 8,3 C 6,1 C 7,8 C 7,8 C 81 % 72 % 6 cb 5 cb 5 cb 1027,0 hPa 0,0 l/m 6,4 km/h (2 Bft) S-SW 202 0,000 mm 2,0 UV-I 480 W/m 0,2 C 3,1 C 9,7 km/h (2 Bft)
14.04.2021 12:56 3,1 C 2,8 C 8,3 C 6,1 C 7,8 C 7,8 C 82 % 73 % 6 cb 5 cb 5 cb 1027,0 hPa 0,0 l/m 9,7 km/h (2 Bft) S-SW 202 0,000 mm 2,3 UV-I 550 W/m 0,3 C 0,2 C 14,5 km/h (3 Bft)
14.04.2021 12:55 3,0 C 2,8 C 8,3 C 6,1 C 7,8 C 7,8 C 82 % 73 % 6 cb 5 cb 5 cb 1027,1 hPa 0,0 l/m 9,7 km/h (2 Bft) S-SW 202 0,000 mm 2,0 UV-I 471 W/m 0,2 C 0,1 C 12,9 km/h (3 Bft)
14.04.2021 12:54 2,9 C 2,8 C 8,3 C 6,1 C 7,8 C 7,8 C 81 % 73 % 6 cb 5 cb 5 cb 1027,0 hPa 0,0 l/m 9,7 km/h (2 Bft) S-SW 202 0,000 mm 2,0 UV-I 455 W/m -0,0 C -0,0 C 14,5 km/h (3 Bft)
14.04.2021 12:53 2,9 C 2,8 C 9,4 C 6,1 C 7,8 C 7,8 C 82 % 73 % 6 cb 5 cb 5 cb 1027,1 hPa 0,0 l/m 11,3 km/h (2 Bft) S-SW 202 0,000 mm 2,0 UV-I 454 W/m 0,1 C -1,2 C 14,5 km/h (3 Bft)
14.04.2021 12:52 2,9 C 2,8 C 10,0 C 5,6 C 7,8 C 7,8 C 82 % 74 % 6 cb 5 cb 5 cb 1027,1 hPa 0,0 l/m 11,3 km/h (2 Bft) S-SW 202 0,000 mm 2,0 UV-I 468 W/m 0,1 C -1,2 C 14,5 km/h (3 Bft)
14.04.2021 12:51 2,9 C 2,8 C 10,0 C 5,6 C 7,8 C 7,8 C 82 % 74 % 6 cb 5 cb 5 cb 1027,1 hPa 0,0 l/m 11,3 km/h (2 Bft) S-SW 202 0,000 mm 2,7 UV-I 573 W/m 0,1 C -1,2 C 12,9 km/h (3 Bft)
14.04.2021 12:50 2,9 C 2,8 C 8,3 C 5,6 C 7,8 C 7,8 C 82 % 74 % 6 cb 5 cb 5 cb 1027,1 hPa 0,0 l/m 14,5 km/h (3 Bft) S-SW 202 0,000 mm 3,0 UV-I 573 W/m 0,1 C -3,2 C 17,7 km/h (3 Bft)
14.04.2021 12:49 2,9 C 2,8 C 7,8 C 5,6 C 7,8 C 7,8 C 82 % 73 % 6 cb 5 cb 5 cb 1027,1 hPa 0,0 l/m 9,7 km/h (2 Bft) S-SW 202 0,000 mm 2,3 UV-I 573 W/m 0,1 C -0,0 C 12,9 km/h (3 Bft)
14.04.2021 12:48 2,8 C 2,8 C 7,8 C 5,6 C 7,8 C 7,8 C 82 % 73 % 6 cb 5 cb 5 cb 1027,1 hPa 0,0 l/m 8,0 km/h (2 Bft) S-SW 202 0,000 mm 2,2 UV-I 520 W/m 0,0 C 1,3 C 11,3 km/h (2 Bft)
14.04.2021 12:47 2,7 C 2,8 C 7,2 C 5,6 C 7,8 C 7,8 C 82 % 73 % 6 cb 5 cb 5 cb 1027,2 hPa 0,0 l/m 8,0 km/h (2 Bft) S 180 0,000 mm 2,2 UV-I 492 W/m -0,1 C 1,2 C 9,7 km/h (2 Bft)
14.04.2021 12:46 2,7 C 2,8 C 7,2 C 5,6 C 7,8 C 7,8 C 81 % 73 % 6 cb 5 cb 5 cb 1027,2 hPa 0,0 l/m 6,4 km/h (2 Bft) S-SW 202 0,000 mm 2,0 UV-I 455 W/m -0,2 C 2,7 C 9,7 km/h (2 Bft)
14.04.2021 12:45 2,6 C 2,8 C 6,7 C 5,6 C 7,8 C 7,8 C 81 % 73 % 6 cb 5 cb 5 cb 1027,2 hPa 0,0 l/m 4,8 km/h (1 Bft) S-SW 202 0,000 mm 1,9 UV-I 436 W/m -0,3 C 2,6 C 6,4 km/h (2 Bft)
14.04.2021 12:44 2,6 C 2,8 C 6,7 C 5,6 C 7,8 C 7,8 C 82 % 74 % 6 cb 5 cb 5 cb 1027,2 hPa 0,0 l/m 9,7 km/h (2 Bft) S 180 0,000 mm 1,8 UV-I 404 W/m -0,2 C -0,3 C 12,9 km/h (3 Bft)
14.04.2021 12:43 2,6 C 2,8 C 6,7 C 5,6 C 7,8 C 7,8 C 83 % 74 % 6 cb 5 cb 5 cb 1027,2 hPa 0,0 l/m 8,0 km/h (2 Bft) S 180 0,000 mm 1,8 UV-I 392 W/m 0,0 C 1,1 C 11,3 km/h (2 Bft)
14.04.2021 12:42 2,6 C 2,8 C 6,7 C 5,6 C 7,8 C 7,8 C 83 % 74 % 6 cb 5 cb 5 cb 1027,2 hPa 0,0 l/m 8,0 km/h (2 Bft) S 180 0,000 mm 1,7 UV-I 381 W/m 0,0 C 1,1 C 11,3 km/h (2 Bft)
14.04.2021 12:41 2,5 C 2,8 C 6,7 C 5,6 C 7,8 C 7,8 C 83 % 74 % 6 cb 5 cb 5 cb 1027,3 hPa 0,0 l/m 4,8 km/h (1 Bft) S 180 0,000 mm 1,7 UV-I 380 W/m -0,1 C 2,5 C 6,4 km/h (2 Bft)
14.04.2021 12:40 2,5 C 2,8 C 6,7 C 5,6 C 7,8 C 7,8 C 83 % 74 % 6 cb 5 cb 5 cb 1027,3 hPa 0,0 l/m 4,8 km/h (1 Bft) S 180 0,000 mm 1,7 UV-I 383 W/m -0,1 C 2,5 C 6,4 km/h (2 Bft)
14.04.2021 12:39 2,5 C 2,8 C 6,7 C 5,6 C 7,8 C 7,8 C 84 % 74 % 6 cb 5 cb 5 cb 1027,2 hPa 0,0 l/m 6,4 km/h (2 Bft) S 180 0,000 mm 1,7 UV-I 388 W/m 0,1 C 2,5 C 9,7 km/h (2 Bft)
14.04.2021 12:38 2,6 C 2,8 C 6,1 C 5,6 C 7,8 C 7,8 C 85 % 74 % 6 cb 5 cb 5 cb 1027,3 hPa 0,0 l/m 4,8 km/h (1 Bft) S-SW 202 0,000 mm 1,7 UV-I 397 W/m 0,3 C 2,6 C 8,0 km/h (2 Bft)
14.04.2021 12:37 2,4 C 2,8 C 6,1 C 5,6 C 7,8 C 7,8 C 85 % 74 % 6 cb 5 cb 5 cb 1027,3 hPa 0,0 l/m 6,4 km/h (2 Bft) S-SW 202 0,000 mm 1,7 UV-I 410 W/m 0,1 C 2,4 C 9,7 km/h (2 Bft)
14.04.2021 12:36 2,3 C 2,8 C 6,1 C 5,6 C 7,8 C 7,8 C 84 % 73 % 6 cb 5 cb 5 cb 1027,3 hPa 0,0 l/m 6,4 km/h (2 Bft) S 180 0,000 mm 1,8 UV-I 431 W/m -0,1 C 2,3 C 8,0 km/h (2 Bft)
14.04.2021 12:35 2,2 C 2,8 C 6,1 C 5,6 C 7,8 C 7,8 C 84 % 73 % 6 cb 5 cb 5 cb 1027,3 hPa 0,0 l/m 6,4 km/h (2 Bft) S-SW 202 0,000 mm 1,9 UV-I 468 W/m -0,2 C 2,2 C 8,0 km/h (2 Bft)
14.04.2021 12:34 2,2 C 2,8 C 5,0 C 5,6 C 7,8 C 7,8 C 85 % 73 % 6 cb 5 cb 5 cb 1027,3 hPa 0,0 l/m 8,0 km/h (2 Bft) SW 225 0,000 mm 2,0 UV-I 462 W/m -0,1 C 0,7 C 9,7 km/h (2 Bft)
14.04.2021 12:33 2,1 C 2,8 C 4,4 C 5,6 C 7,8 C 7,8 C 85 % 73 % 6 cb 5 cb 5 cb 1027,4 hPa 0,0 l/m 8,0 km/h (2 Bft) SW 225 0,000 mm 1,7 UV-I 420 W/m -0,2 C 0,6 C 11,3 km/h (2 Bft)
14.04.2021 12:32 2,1 C 2,8 C 4,4 C 5,6 C 7,8 C 7,8 C 85 % 73 % 6 cb 5 cb 5 cb 1027,3 hPa 0,0 l/m 11,3 km/h (2 Bft) S 180 0,000 mm 1,8 UV-I 410 W/m -0,2 C -2,1 C 14,5 km/h (3 Bft)
14.04.2021 12:31 2,0 C 2,8 C 3,9 C 5,6 C 7,8 C 7,8 C 85 % 73 % 6 cb 5 cb 5 cb 1027,4 hPa 0,0 l/m 6,4 km/h (2 Bft) SW 225 0,000 mm 1,6 UV-I 366 W/m -0,3 C 2,0 C 11,3 km/h (2 Bft)
14.04.2021 12:30 2,0 C 2,8 C 3,3 C 5,6 C 7,8 C 7,8 C 85 % 73 % 6 cb 5 cb 5 cb 1027,4 hPa 0,0 l/m 3,2 km/h (1 Bft) SW 225 0,000 mm 1,5 UV-I 339 W/m -0,3 C 2,0 C 6,4 km/h (2 Bft)
14.04.2021 12:29 2,0 C 2,8 C 2,8 C 5,6 C 7,8 C 7,8 C 85 % 72 % 6 cb 5 cb 5 cb 1027,4 hPa 0,0 l/m 4,8 km/h (1 Bft) SW 225 0,000 mm 1,4 UV-I 316 W/m -0,3 C 2,0 C 6,4 km/h (2 Bft)
14.04.2021 12:28 2,0 C 2,8 C 2,8 C 5,6 C 7,8 C 7,8 C 84 % 72 % 6 cb 5 cb 5 cb 1027,4 hPa 0,0 l/m 6,4 km/h (2 Bft) SW 225 0,000 mm 1,3 UV-I 283 W/m -0,4 C 2,0 C 11,3 km/h (2 Bft)
14.04.2021 12:27 2,0 C 2,8 C 2,8 C 5,6 C 7,8 C 7,8 C 84 % 72 % 6 cb 5 cb 5 cb 1027,4 hPa 0,0 l/m 11,3 km/h (2 Bft) S-SW 202 0,000 mm 1,0 UV-I 251 W/m -0,4 C -2,2 C 11,3 km/h (2 Bft)
14.04.2021 12:26 2,1 C 2,8 C 2,8 C 5,6 C 7,8 C 7,8 C 83 % 72 % 6 cb 5 cb 5 cb 1027,4 hPa 0,0 l/m 8,0 km/h (2 Bft) S-SW 202 0,000 mm 0,9 UV-I 199 W/m -0,5 C 0,6 C 11,3 km/h (2 Bft)
14.04.2021 12:25 2,1 C 2,8 C 2,8 C 5,6 C 7,8 C 7,8 C 83 % 72 % 6 cb 5 cb 5 cb 1027,4 hPa 0,0 l/m 11,3 km/h (2 Bft) S-SW 202 0,000 mm 0,9 UV-I 197 W/m -0,5 C -2,1 C 12,9 km/h (3 Bft)
14.04.2021 12:24 2,1 C 2,8 C 2,8 C 5,6 C 7,8 C 7,8 C 83 % 71 % 6 cb 5 cb 5 cb 1027,5 hPa 0,0 l/m 9,7 km/h (2 Bft) S-SW 202 0,000 mm 0,9 UV-I 190 W/m -0,5 C -0,9 C 16,1 km/h (3 Bft)
14.04.2021 12:23 2,1 C 2,8 C 2,8 C 5,6 C 7,8 C 7,8 C 83 % 71 % 6 cb 5 cb 5 cb 1027,5 hPa 0,0 l/m 9,7 km/h (2 Bft) S-SW 202 0,000 mm 0,8 UV-I 163 W/m -0,5 C -0,9 C 11,3 km/h (2 Bft)
14.04.2021 12:22 2,2 C 2,8 C 2,8 C 5,6 C 7,8 C 7,8 C 83 % 71 % 6 cb 5 cb 5 cb 1027,5 hPa 0,0 l/m 9,7 km/h (2 Bft) S-SW 202 0,000 mm 0,6 UV-I 137 W/m -0,4 C -0,8 C 12,9 km/h (3 Bft)
14.04.2021 12:21 2,2 C 2,8 C 2,8 C 5,6 C 7,8 C 7,8 C 83 % 71 % 6 cb 5 cb 5 cb 1027,5 hPa 0,0 l/m 9,7 km/h (2 Bft) S-SW 202 0,000 mm 0,5 UV-I 120 W/m -0,4 C -0,8 C 11,3 km/h (2 Bft)
14.04.2021 12:20 2,2 C 2,8 C 2,8 C 5,6 C 7,8 C 7,8 C 83 % 71 % 6 cb 5 cb 5 cb 1027,5 hPa 0,0 l/m 9,7 km/h (2 Bft) S-SW 202 0,000 mm 0,0 UV-I 97 W/m -0,4 C -0,8 C 11,3 km/h (2 Bft)
14.04.2021 12:19 2,2 C 2,8 C 2,8 C 5,6 C 7,8 C 7,8 C 82 % 71 % 6 cb 5 cb 5 cb 1027,5 hPa 0,0 l/m 9,7 km/h (2 Bft) S-SW 202 0,000 mm 0,0 UV-I 91 W/m -0,5 C -0,8 C 11,3 km/h (2 Bft)
14.04.2021 12:18 2,3 C 2,8 C 2,8 C 5,6 C 7,8 C 7,8 C 82 % 71 % 6 cb 5 cb 5 cb 1027,5 hPa 0,0 l/m 8,0 km/h (2 Bft) S-SW 202 0,000 mm 0,0 UV-I 91 W/m -0,4 C 0,8 C 9,7 km/h (2 Bft)
14.04.2021 12:17 2,3 C 2,8 C 2,8 C 5,6 C 7,8 C 7,8 C 82 % 71 % 6 cb 5 cb 5 cb 1027,5 hPa 0,0 l/m 9,7 km/h (2 Bft) S-SW 202 0,000 mm 0,0 UV-I 97 W/m -0,4 C -0,7 C 11,3 km/h (2 Bft)
14.04.2021 12:16 2,4 C 2,8 C 3,3 C 5,6 C 7,8 C 7,8 C 82 % 71 % 6 cb 5 cb 5 cb 1027,5 hPa 0,0 l/m 8,0 km/h (2 Bft) S-SW 202 0,000 mm 0,0 UV-I 93 W/m -0,4 C 0,9 C 11,3 km/h (2 Bft)
14.04.2021 12:15 2,4 C 2,8 C 3,3 C 5,6 C 7,8 C 7,8 C 82 % 71 % 6 cb 5 cb 5 cb 1027,5 hPa 0,0 l/m 9,7 km/h (2 Bft) S-SW 202 0,000 mm 0,0 UV-I 91 W/m -0,4 C -0,6 C 11,3 km/h (2 Bft)
14.04.2021 12:14 2,5 C 2,8 C 3,3 C 5,6 C 7,8 C 7,8 C 82 % 71 % 6 cb 5 cb 5 cb 1027,4 hPa 0,0 l/m 6,4 km/h (2 Bft) S 180 0,000 mm 0,0 UV-I 90 W/m -0,3 C 2,5 C 11,3 km/h (2 Bft)
14.04.2021 12:13 2,5 C 3,3 C 3,3 C 5,6 C 7,8 C 7,8 C 81 % 71 % 6 cb 5 cb 5 cb 1027,4 hPa 0,0 l/m 6,4 km/h (2 Bft) S-SW 202 0,000 mm 0,0 UV-I 95 W/m -0,4 C 2,5 C 11,3 km/h (2 Bft)
14.04.2021 12:12 2,6 C 3,3 C 3,9 C 5,6 C 7,8 C 7,8 C 82 % 71 % 6 cb 5 cb 5 cb 1027,5 hPa 0,0 l/m 8,0 km/h (2 Bft) S-SW 202 0,000 mm 0,0 UV-I 98 W/m -0,2 C 1,1 C 11,3 km/h (2 Bft)
14.04.2021 12:11 2,6 C 3,3 C 3,9 C 5,6 C 7,8 C 7,8 C 82 % 71 % 6 cb 5 cb 5 cb 1027,4 hPa 0,0 l/m 8,0 km/h (2 Bft) S-SW 202 0,000 mm 0,0 UV-I 98 W/m -0,2 C 1,1 C 12,9 km/h (3 Bft)
14.04.2021 12:10 2,6 C 3,3 C 4,4 C 5,6 C 7,8 C 7,8 C 81 % 71 % 6 cb 5 cb 5 cb 1027,5 hPa 0,0 l/m 4,8 km/h (1 Bft) S-SW 202 0,000 mm 0,5 UV-I 107 W/m -0,3 C 2,6 C 6,4 km/h (2 Bft)
14.04.2021 12:09 2,6 C 3,3 C 4,4 C 5,6 C 7,8 C 7,8 C 81 % 71 % 6 cb 5 cb 5 cb 1027,5 hPa 0,0 l/m 6,4 km/h (2 Bft) S-SW 202 0,000 mm 0,5 UV-I 127 W/m -0,3 C 2,6 C 9,7 km/h (2 Bft)
14.04.2021 12:08 2,6 C 3,3 C 4,4 C 5,6 C 7,8 C 7,8 C 82 % 71 % 6 cb 5 cb 5 cb 1027,5 hPa 0,0 l/m 8,0 km/h (2 Bft) S-SW 202 0,000 mm 0,6 UV-I 141 W/m -0,2 C 1,1 C 12,9 km/h (3 Bft)
14.04.2021 12:07 2,6 C 3,3 C 5,0 C 5,6 C 7,8 C 7,8 C 82 % 71 % 6 cb 5 cb 5 cb 1027,5 hPa 0,0 l/m 9,7 km/h (2 Bft) S-SW 202 0,000 mm 0,7 UV-I 181 W/m -0,2 C -0,3 C 14,5 km/h (3 Bft)
14.04.2021 12:06 2,6 C 3,3 C 5,0 C 5,6 C 7,8 C 7,8 C 82 % 71 % 6 cb 5 cb 5 cb 1027,5 hPa 0,0 l/m 6,4 km/h (2 Bft) S-SW 202 0,000 mm 0,7 UV-I 179 W/m -0,2 C 2,6 C 12,9 km/h (3 Bft)
14.04.2021 12:05 2,6 C 3,3 C 5,0 C 5,6 C 7,8 C 7,8 C 82 % 71 % 6 cb 5 cb 5 cb 1027,5 hPa 0,0 l/m 8,0 km/h (2 Bft) S-SW 202 0,000 mm 0,9 UV-I 197 W/m -0,2 C 1,1 C 12,9 km/h (3 Bft)
14.04.2021 12:04 2,6 C 3,3 C 5,0 C 5,6 C 7,8 C 7,8 C 82 % 71 % 6 cb 5 cb 5 cb 1027,5 hPa 0,0 l/m 8,0 km/h (2 Bft) S-SW 202 0,000 mm 0,9 UV-I 227 W/m -0,2 C 1,1 C 11,3 km/h (2 Bft)
14.04.2021 12:03 2,6 C 3,3 C 5,0 C 5,6 C 7,8 C 7,8 C 82 % 71 % 6 cb 5 cb 5 cb 1027,5 hPa 0,0 l/m 8,0 km/h (2 Bft) S 180 0,000 mm 1,0 UV-I 236 W/m -0,2 C 1,1 C 11,3 km/h (2 Bft)
14.04.2021 12:02 2,5 C 3,3 C 5,0 C 5,6 C 7,8 C 7,8 C 82 % 71 % 6 cb 5 cb 5 cb 1027,5 hPa 0,0 l/m 6,4 km/h (2 Bft) S 180 0,000 mm 1,0 UV-I 243 W/m -0,3 C 2,5 C 9,7 km/h (2 Bft)
14.04.2021 12:01 2,5 C 3,3 C 5,0 C 5,6 C 7,8 C 7,8 C 82 % 71 % 6 cb 5 cb 5 cb 1027,5 hPa 0,0 l/m 6,4 km/h (2 Bft) S 180 0,000 mm 1,1 UV-I 246 W/m -0,3 C 2,5 C 14,5 km/h (3 Bft)
14.04.2021 12:00 2,6 C 3,3 C 5,0 C 5,6 C 7,8 C 7,8 C 82 % 71 % 6 cb 5 cb 5 cb 1027,6 hPa 0,0 l/m 11,3 km/h (2 Bft) S 180 0,127 mm 1,1 UV-I 248 W/m -0,2 C -1,5 C 17,7 km/h (3 Bft)
14.04.2021 11:59 2,6 C 3,3 C 5,0 C 5,6 C 7,8 C 7,8 C 82 % 71 % 6 cb 5 cb 5 cb 1027,6 hPa 0,0 l/m 11,3 km/h (2 Bft) S-SW 202 0,000 mm 1,1 UV-I 251 W/m -0,2 C -1,5 C 14,5 km/h (3 Bft)
14.04.2021 11:58 2,5 C 3,3 C 5,0 C 5,6 C 7,8 C 7,8 C 81 % 70 % 6 cb 5 cb 5 cb 1027,6 hPa 0,0 l/m 8,0 km/h (2 Bft) S 180 0,000 mm 1,1 UV-I 257 W/m -0,4 C 1,0 C 11,3 km/h (2 Bft)
14.04.2021 11:57 2,6 C 3,3 C 5,0 C 5,6 C 7,8 C 7,8 C 81 % 70 % 6 cb 5 cb 5 cb 1027,6 hPa 0,0 l/m 11,3 km/h (2 Bft) S-SW 202 0,000 mm 1,1 UV-I 258 W/m -0,3 C -1,5 C 16,1 km/h (3 Bft)
14.04.2021 11:56 2,6 C 3,3 C 5,0 C 5,6 C 7,8 C 7,8 C 81 % 70 % 6 cb 5 cb 5 cb 1027,6 hPa 0,0 l/m 9,7 km/h (2 Bft) SW 225 0,000 mm 1,1 UV-I 258 W/m -0,3 C -0,3 C 14,5 km/h (3 Bft)
14.04.2021 11:55 2,6 C 3,3 C 5,0 C 5,6 C 7,8 C 7,8 C 82 % 70 % 6 cb 5 cb 5 cb 1027,6 hPa 0,0 l/m 9,7 km/h (2 Bft) S-SW 202 0,000 mm 1,1 UV-I 258 W/m -0,2 C -0,3 C 14,5 km/h (3 Bft)
14.04.2021 11:54 2,6 C 3,3 C 5,0 C 5,6 C 7,8 C 7,8 C 81 % 70 % 6 cb 5 cb 5 cb 1027,7 hPa 0,0 l/m 11,3 km/h (2 Bft) S-SW 202 0,000 mm 1,1 UV-I 260 W/m -0,3 C -1,5 C 17,7 km/h (3 Bft)
14.04.2021 11:53 2,6 C 3,3 C 5,0 C 5,6 C 7,8 C 7,8 C 81 % 70 % 6 cb 5 cb 5 cb 1027,6 hPa 0,0 l/m 11,3 km/h (2 Bft) S-SW 202 0,000 mm 1,1 UV-I 264 W/m -0,3 C -1,5 C 16,1 km/h (3 Bft)
14.04.2021 11:52 2,6 C 3,3 C 5,0 C 5,6 C 7,8 C 7,8 C 81 % 70 % 6 cb 5 cb 5 cb 1027,6 hPa 0,0 l/m 9,7 km/h (2 Bft) S-SW 202 0,000 mm 1,1 UV-I 267 W/m -0,3 C -0,3 C 12,9 km/h (3 Bft)
14.04.2021 11:51 2,6 C 3,3 C 5,0 C 5,6 C 7,8 C 7,8 C 82 % 70 % 6 cb 5 cb 5 cb 1027,6 hPa 0,0 l/m 9,7 km/h (2 Bft) S-SW 202 0,000 mm 1,1 UV-I 274 W/m -0,2 C -0,3 C 12,9 km/h (3 Bft)
14.04.2021 11:50 2,6 C 3,3 C 5,0 C 5,6 C 7,8 C 7,8 C 82 % 71 % 6 cb 5 cb 5 cb 1027,6 hPa 0,0 l/m 9,7 km/h (2 Bft) S 180 0,000 mm 1,1 UV-I 278 W/m -0,2 C -0,3 C 16,1 km/h (3 Bft)
14.04.2021 11:49 2,5 C 3,3 C 5,0 C 5,6 C 7,8 C 7,8 C 81 % 70 % 6 cb 5 cb 5 cb 1027,6 hPa 0,0 l/m 9,7 km/h (2 Bft) S-SW 202 0,000 mm 1,1 UV-I 278 W/m -0,4 C -0,5 C 12,9 km/h (3 Bft)
14.04.2021 11:48 2,5 C 3,3 C 4,4 C 5,6 C 7,8 C 7,8 C 81 % 70 % 6 cb 5 cb 5 cb 1027,6 hPa 0,0 l/m 9,7 km/h (2 Bft) S-SW 202 0,000 mm 1,1 UV-I 271 W/m -0,4 C -0,5 C 12,9 km/h (3 Bft)
14.04.2021 11:47 2,5 C 3,3 C 4,4 C 5,6 C 7,8 C 7,8 C 81 % 69 % 6 cb 5 cb 5 cb 1027,6 hPa 0,0 l/m 8,0 km/h (2 Bft) S 180 0,000 mm 1,1 UV-I 262 W/m -0,4 C 1,0 C 11,3 km/h (2 Bft)
14.04.2021 11:46 2,5 C 3,3 C 4,4 C 5,6 C 7,8 C 7,8 C 80 % 69 % 6 cb 5 cb 5 cb 1027,6 hPa 0,0 l/m 11,3 km/h (2 Bft) S 180 0,000 mm 1,0 UV-I 250 W/m -0,6 C -1,6 C 17,7 km/h (3 Bft)
14.04.2021 11:45 2,6 C 3,3 C 4,4 C 5,6 C 7,8 C 7,8 C 81 % 70 % 6 cb 5 cb 5 cb 1027,6 hPa 0,0 l/m 11,3 km/h (2 Bft) S-SW 202 0,000 mm 1,0 UV-I 227 W/m -0,3 C -1,5 C 14,5 km/h (3 Bft)
14.04.2021 11:44 2,6 C 3,3 C 3,9 C 5,6 C 7,8 C 7,8 C 81 % 70 % 6 cb 5 cb 5 cb 1027,6 hPa 0,0 l/m 9,7 km/h (2 Bft) S 180 0,000 mm 0,9 UV-I 214 W/m -0,3 C -0,3 C 14,5 km/h (3 Bft)
14.04.2021 11:43 2,6 C 3,3 C 3,9 C 5,6 C 7,8 C 7,8 C 81 % 70 % 6 cb 5 cb 5 cb 1027,6 hPa 0,0 l/m 9,7 km/h (2 Bft) S-SW 202 0,000 mm 0,9 UV-I 202 W/m -0,3 C -0,3 C 11,3 km/h (2 Bft)
14.04.2021 11:42 2,6 C 3,3 C 3,9 C 5,6 C 7,8 C 7,8 C 81 % 70 % 6 cb 5 cb 5 cb 1027,7 hPa 0,0 l/m 11,3 km/h (2 Bft) S-SW 202 0,000 mm 0,8 UV-I 190 W/m -0,3 C -1,5 C 14,5 km/h (3 Bft)
14.04.2021 11:41 2,6 C 3,3 C 3,9 C 5,6 C 7,8 C 7,8 C 81 % 70 % 6 cb 5 cb 5 cb 1027,6 hPa 0,0 l/m 9,7 km/h (2 Bft) S-SW 202 0,000 mm 0,8 UV-I 178 W/m -0,3 C -0,3 C 12,9 km/h (3 Bft)
14.04.2021 11:40 2,6 C 3,3 C 3,9 C 5,6 C 7,8 C 7,8 C 80 % 70 % 6 cb 5 cb 5 cb 1027,7 hPa 0,0 l/m 8,0 km/h (2 Bft) S-SW 202 0,000 mm 0,6 UV-I 163 W/m -0,5 C 1,1 C 12,9 km/h (3 Bft)
14.04.2021 11:39 2,6 C 3,3 C 3,9 C 5,6 C 7,8 C 7,8 C 80 % 69 % 6 cb 5 cb 5 cb 1027,6 hPa 0,0 l/m 9,7 km/h (2 Bft) S-SW 202 0,000 mm 0,6 UV-I 151 W/m -0,5 C -0,3 C 14,5 km/h (3 Bft)
14.04.2021 11:38 2,6 C 3,3 C 4,4 C 5,6 C 7,8 C 7,8 C 80 % 69 % 6 cb 5 cb 5 cb 1027,6 hPa 0,0 l/m 9,7 km/h (2 Bft) SW 225 0,000 mm 0,6 UV-I 148 W/m -0,5 C -0,3 C 14,5 km/h (3 Bft)
14.04.2021 11:37 2,6 C 3,3 C 4,4 C 5,6 C 7,8 C 7,8 C 79 % 69 % 6 cb 5 cb 5 cb 1027,7 hPa 0,0 l/m 11,3 km/h (2 Bft) S-SW 202 0,000 mm 0,6 UV-I 144 W/m -0,7 C -1,5 C 14,5 km/h (3 Bft)
14.04.2021 11:36 2,6 C 3,3 C 4,4 C 5,6 C 7,8 C 7,8 C 80 % 70 % 6 cb 5 cb 5 cb 1027,7 hPa 0,0 l/m 12,9 km/h (3 Bft) S-SW 202 0,000 mm 0,6 UV-I 142 W/m -0,5 C -2,6 C 16,1 km/h (3 Bft)
14.04.2021 11:35 2,7 C 3,3 C 5,0 C 5,6 C 7,8 C 7,8 C 81 % 71 % 6 cb 5 cb 5 cb 1027,7 hPa 0,0 l/m 12,9 km/h (3 Bft) S-SW 202 0,000 mm 0,6 UV-I 142 W/m -0,2 C -2,5 C 17,7 km/h (3 Bft)
14.04.2021 11:34 2,7 C 3,3 C 5,0 C 5,6 C 7,8 C 7,8 C 81 % 71 % 6 cb 5 cb 5 cb 1027,7 hPa 0,0 l/m 11,3 km/h (2 Bft) SW 225 0,000 mm 0,6 UV-I 151 W/m -0,2 C -1,4 C 14,5 km/h (3 Bft)
14.04.2021 11:33 2,7 C 3,3 C 5,0 C 5,6 C 7,8 C 7,8 C 80 % 70 % 6 cb 5 cb 5 cb 1027,7 hPa 0,0 l/m 6,4 km/h (2 Bft) S-SW 202 0,000 mm 0,6 UV-I 153 W/m -0,4 C 2,7 C 9,7 km/h (2 Bft)
14.04.2021 11:32 2,7 C 3,3 C 5,6 C 5,6 C 7,8 C 7,8 C 80 % 70 % 6 cb 5 cb 5 cb 1027,7 hPa 0,0 l/m 6,4 km/h (2 Bft) SW 225 0,000 mm 0,6 UV-I 156 W/m -0,4 C 2,7 C 9,7 km/h (2 Bft)
14.04.2021 11:31 2,7 C 3,3 C 5,6 C 5,6 C 7,8 C 7,8 C 79 % 70 % 6 cb 5 cb 5 cb 1027,6 hPa 0,0 l/m 9,7 km/h (2 Bft) S-SW 202 0,000 mm 0,6 UV-I 163 W/m -0,6 C -0,2 C 12,9 km/h (3 Bft)
14.04.2021 11:30 2,7 C 3,3 C 5,6 C 5,6 C 7,8 C 7,8 C 79 % 70 % 6 cb 5 cb 5 cb 1027,7 hPa 0,0 l/m 8,0 km/h (2 Bft) S-SW 202 0,000 mm 0,7 UV-I 172 W/m -0,6 C 1,2 C 11,3 km/h (2 Bft)
14.04.2021 11:29 2,7 C 3,3 C 6,1 C 5,6 C 7,8 C 7,8 C 80 % 71 % 6 cb 5 cb 5 cb 1027,7 hPa 0,0 l/m 8,0 km/h (2 Bft) S-SW 202 0,000 mm 0,7 UV-I 183 W/m -0,4 C 1,2 C 9,7 km/h (2 Bft)
14.04.2021 11:28 2,7 C 3,3 C 6,7 C 5,6 C 7,8 C 7,8 C 80 % 71 % 6 cb 5 cb 5 cb 1027,6 hPa 0,0 l/m 6,4 km/h (2 Bft) S-SW 202 0,000 mm 0,7 UV-I 193 W/m -0,4 C 2,7 C 9,7 km/h (2 Bft)
14.04.2021 11:27 2,7 C 3,3 C 6,7 C 5,6 C 7,8 C 7,8 C 80 % 71 % 6 cb 5 cb 5 cb 1027,7 hPa 0,0 l/m 6,4 km/h (2 Bft) SW 225 0,000 mm 0,8 UV-I 216 W/m -0,4 C 2,7 C 9,7 km/h (2 Bft)
14.04.2021 11:26 2,6 C 3,3 C 7,2 C 5,6 C 7,8 C 7,8 C 80 % 70 % 6 cb 5 cb 5 cb 1027,7 hPa 0,0 l/m 6,4 km/h (2 Bft) S-SW 202 0,000 mm 0,8 UV-I 232 W/m -0,5 C 2,6 C 8,0 km/h (2 Bft)
14.04.2021 11:25 2,7 C 3,3 C 7,8 C 5,6 C 7,8 C 7,8 C 80 % 70 % 6 cb 5 cb 5 cb 1027,7 hPa 0,0 l/m 8,0 km/h (2 Bft) S-SW 202 0,000 mm 0,9 UV-I 253 W/m -0,4 C 1,2 C 11,3 km/h (2 Bft)
14.04.2021 11:24 2,7 C 3,3 C 8,3 C 5,6 C 7,8 C 7,8 C 80 % 71 % 6 cb 5 cb 5 cb 1027,7 hPa 0,0 l/m 9,7 km/h (2 Bft) S-SW 202 0,000 mm 1,0 UV-I 267 W/m -0,4 C -0,2 C 11,3 km/h (2 Bft)
14.04.2021 11:23 2,7 C 3,3 C 8,3 C 5,6 C 7,8 C 7,8 C 80 % 72 % 6 cb 5 cb 5 cb 1027,7 hPa 0,0 l/m 8,0 km/h (2 Bft) S-SW 202 0,000 mm 1,1 UV-I 364 W/m -0,4 C 1,2 C 9,7 km/h (2 Bft)
14.04.2021 11:22 2,7 C 3,3 C 8,9 C 5,6 C 7,8 C 7,8 C 81 % 71 % 6 cb 5 cb 5 cb 1027,7 hPa 0,0 l/m 8,0 km/h (2 Bft) S-SW 202 0,000 mm 1,1 UV-I 682 W/m -0,2 C 1,2 C 11,3 km/h (2 Bft)
14.04.2021 11:21 2,7 C 3,3 C 8,3 C 5,6 C 7,8 C 7,8 C 80 % 72 % 6 cb 5 cb 5 cb 1027,7 hPa 0,0 l/m 9,7 km/h (2 Bft) S-SW 202 0,000 mm 1,7 UV-I 682 W/m -0,4 C -0,2 C 11,3 km/h (2 Bft)
14.04.2021 11:20 2,6 C 3,3 C 8,3 C 5,6 C 7,8 C 7,8 C 80 % 71 % 6 cb 5 cb 5 cb 1027,8 hPa 0,0 l/m 6,4 km/h (2 Bft) SW 225 0,000 mm 1,3 UV-I 682 W/m -0,5 C 2,6 C 8,0 km/h (2 Bft)
14.04.2021 11:19 2,7 C 3,3 C 8,3 C 5,6 C 7,8 C 7,8 C 81 % 72 % 6 cb 5 cb 5 cb 1027,8 hPa 0,0 l/m 6,4 km/h (2 Bft) S-SW 202 0,000 mm 1,6 UV-I 682 W/m -0,2 C 2,7 C 9,7 km/h (2 Bft)
14.04.2021 11:18 2,6 C 2,8 C 7,8 C 5,6 C 7,8 C 7,8 C 81 % 72 % 6 cb 5 cb 5 cb 1027,8 hPa 0,0 l/m 4,8 km/h (1 Bft) SW 225 0,000 mm 2,0 UV-I 691 W/m -0,3 C 2,6 C 6,4 km/h (2 Bft)
14.04.2021 11:17 2,6 C 2,8 C 6,7 C 5,6 C 7,8 C 7,8 C 80 % 72 % 6 cb 5 cb 5 cb 1027,8 hPa 0,0 l/m 8,0 km/h (2 Bft) SW 225 0,000 mm 1,4 UV-I 410 W/m -0,5 C 1,1 C 11,3 km/h (2 Bft)
14.04.2021 11:16 2,7 C 2,8 C 6,7 C 5,6 C 7,8 C 7,8 C 79 % 71 % 6 cb 5 cb 5 cb 1027,8 hPa 0,0 l/m 9,7 km/h (2 Bft) S-SW 202 0,000 mm 1,4 UV-I 381 W/m -0,6 C -0,2 C 12,9 km/h (3 Bft)
14.04.2021 11:15 2,8 C 2,8 C 6,7 C 5,6 C 7,8 C 7,8 C 79 % 72 % 6 cb 5 cb 5 cb 1027,8 hPa 0,0 l/m 11,3 km/h (2 Bft) S-SW 202 0,000 mm 1,4 UV-I 360 W/m -0,5 C -1,3 C 14,5 km/h (3 Bft)
14.04.2021 11:14 2,9 C 2,8 C 7,2 C 5,6 C 7,8 C 7,8 C 79 % 72 % 6 cb 5 cb 5 cb 1027,8 hPa 0,0 l/m 11,3 km/h (2 Bft) S-SW 202 0,000 mm 1,3 UV-I 348 W/m -0,4 C -1,2 C 16,1 km/h (3 Bft)
14.04.2021 11:13 2,8 C 2,8 C 7,2 C 5,6 C 7,8 C 7,8 C 80 % 72 % 6 cb 5 cb 5 cb 1027,8 hPa 0,0 l/m 9,7 km/h (2 Bft) SW 225 0,000 mm 1,3 UV-I 341 W/m -0,3 C -0,1 C 14,5 km/h (3 Bft)
14.04.2021 11:12 2,8 C 2,8 C 7,8 C 5,6 C 7,8 C 7,8 C 79 % 72 % 6 cb 5 cb 5 cb 1027,8 hPa 0,0 l/m 8,0 km/h (2 Bft) SW 225 0,000 mm 1,3 UV-I 343 W/m -0,5 C 1,3 C 14,5 km/h (3 Bft)
14.04.2021 11:11 2,7 C 2,8 C 7,2 C 5,6 C 7,8 C 7,8 C 79 % 71 % 6 cb 5 cb 5 cb 1027,8 hPa 0,0 l/m 6,4 km/h (2 Bft) SW 225 0,000 mm 1,3 UV-I 346 W/m -0,6 C 2,7 C 8,0 km/h (2 Bft)
14.04.2021 11:10 2,7 C 2,8 C 7,8 C 5,6 C 7,8 C 7,8 C 79 % 71 % 6 cb 5 cb 5 cb 1027,8 hPa 0,0 l/m 9,7 km/h (2 Bft) S-SW 202 0,000 mm 1,4 UV-I 353 W/m -0,6 C -0,2 C 12,9 km/h (3 Bft)
14.04.2021 11:09 2,7 C 2,8 C 7,8 C 5,6 C 7,8 C 7,8 C 79 % 72 % 6 cb 5 cb 5 cb 1027,8 hPa 0,0 l/m 9,7 km/h (2 Bft) S-SW 202 0,000 mm 1,4 UV-I 360 W/m -0,6 C -0,2 C 11,3 km/h (2 Bft)
14.04.2021 11:08 2,7 C 2,8 C 8,3 C 5,6 C 7,8 C 7,8 C 80 % 73 % 6 cb 5 cb 5 cb 1027,8 hPa 0,0 l/m 9,7 km/h (2 Bft) S-SW 202 0,000 mm 1,4 UV-I 369 W/m -0,4 C -0,2 C 11,3 km/h (2 Bft)
14.04.2021 11:07 2,7 C 2,8 C 8,9 C 5,6 C 7,8 C 7,8 C 80 % 72 % 6 cb 5 cb 5 cb 1027,8 hPa 0,0 l/m 8,0 km/h (2 Bft) S-SW 202 0,000 mm 1,4 UV-I 605 W/m -0,4 C 1,2 C 11,3 km/h (2 Bft)
14.04.2021 11:06 2,7 C 2,8 C 8,9 C 5,6 C 7,8 C 7,8 C 80 % 72 % 6 cb 5 cb 5 cb 1027,8 hPa 0,0 l/m 8,0 km/h (2 Bft) S-SW 202 0,000 mm 1,6 UV-I 605 W/m -0,4 C 1,2 C 11,3 km/h (2 Bft)
14.04.2021 11:05 2,6 C 2,8 C 7,8 C 5,6 C 7,8 C 7,8 C 80 % 72 % 6 cb 5 cb 5 cb 1027,9 hPa 0,0 l/m 8,0 km/h (2 Bft) SW 225 0,000 mm 2,0 UV-I 605 W/m -0,5 C 1,1 C 12,9 km/h (3 Bft)
14.04.2021 11:04 2,6 C 2,8 C 7,2 C 5,6 C 7,8 C 7,8 C 80 % 71 % 6 cb 5 cb 5 cb 1027,9 hPa 0,0 l/m 8,0 km/h (2 Bft) SW 225 0,000 mm 1,5 UV-I 410 W/m -0,5 C 1,1 C 11,3 km/h (2 Bft)
14.04.2021 11:03 2,5 C 2,8 C 6,1 C 5,6 C 7,8 C 7,8 C 80 % 71 % 6 cb 5 cb 5 cb 1027,9 hPa 0,0 l/m 8,0 km/h (2 Bft) SW 225 0,000 mm 1,8 UV-I 410 W/m -0,6 C 1,0 C 9,7 km/h (2 Bft)
14.04.2021 11:02 2,5 C 2,8 C 6,1 C 5,6 C 7,8 C 7,8 C 81 % 72 % 6 cb 5 cb 5 cb 1027,9 hPa 0,0 l/m 8,0 km/h (2 Bft) SW 225 0,000 mm 1,5 UV-I 410 W/m -0,4 C 1,0 C 11,3 km/h (2 Bft)
14.04.2021 11:01 2,4 C 2,8 C 6,1 C 5,6 C 7,8 C 7,8 C 81 % 72 % 6 cb 5 cb 5 cb 1027,9 hPa 0,0 l/m 6,4 km/h (2 Bft) S-SW 202 0,000 mm 1,4 UV-I 374 W/m -0,5 C 2,4 C 8,0 km/h (2 Bft)
14.04.2021 11:00 2,4 C 2,8 C 5,6 C 5,0 C 7,8 C 7,8 C 81 % 71 % 6 cb 5 cb 5 cb 1027,9 hPa 0,0 l/m 8,0 km/h (2 Bft) SW 225 0,102 mm 1,3 UV-I 357 W/m -0,5 C 0,9 C 12,9 km/h (3 Bft)
14.04.2021 10:59 2,3 C 2,8 C 5,6 C 5,0 C 7,8 C 7,8 C 81 % 71 % 6 cb 5 cb 5 cb 1027,9 hPa 0,0 l/m 6,4 km/h (2 Bft) S-SW 202 0,000 mm 1,2 UV-I 346 W/m -0,6 C 2,3 C 8,0 km/h (2 Bft)
14.04.2021 10:58 2,2 C 2,8 C 5,6 C 5,0 C 7,8 C 7,8 C 80 % 71 % 6 cb 5 cb 5 cb 1028,0 hPa 0,0 l/m 9,7 km/h (2 Bft) SW 225 0,000 mm 1,3 UV-I 332 W/m -0,9 C -0,8 C 14,5 km/h (3 Bft)
14.04.2021 10:57 2,2 C 2,8 C 5,0 C 5,0 C 7,8 C 7,8 C 81 % 72 % 6 cb 5 cb 5 cb 1028,0 hPa 0,0 l/m 11,3 km/h (2 Bft) SW 225 0,000 mm 1,2 UV-I 332 W/m -0,7 C -2,0 C 14,5 km/h (3 Bft)
14.04.2021 10:56 2,2 C 2,8 C 5,0 C 5,0 C 7,8 C 7,8 C 82 % 72 % 6 cb 5 cb 5 cb 1027,9 hPa 0,0 l/m 11,3 km/h (2 Bft) SW 225 0,000 mm 1,2 UV-I 323 W/m -0,5 C -2,0 C 14,5 km/h (3 Bft)
14.04.2021 10:55 2,2 C 2,8 C 4,4 C 5,0 C 7,8 C 7,8 C 82 % 72 % 6 cb 5 cb 5 cb 1027,9 hPa 0,0 l/m 6,4 km/h (2 Bft) SW 225 0,000 mm 1,1 UV-I 309 W/m -0,5 C 2,2 C 11,3 km/h (2 Bft)
14.04.2021 10:54 2,2 C 2,8 C 4,4 C 5,0 C 7,8 C 7,8 C 82 % 72 % 6 cb 5 cb 5 cb 1028,0 hPa 0,0 l/m 9,7 km/h (2 Bft) SW 225 0,000 mm 1,1 UV-I 299 W/m -0,5 C -0,8 C 12,9 km/h (3 Bft)
14.04.2021 10:53 2,2 C 2,8 C 4,4 C 5,0 C 7,8 C 7,8 C 81 % 72 % 6 cb 5 cb 5 cb 1028,0 hPa 0,0 l/m 8,0 km/h (2 Bft) SW 225 0,000 mm 1,1 UV-I 288 W/m -0,7 C 0,7 C 9,7 km/h (2 Bft)
14.04.2021 10:52 2,2 C 2,8 C 4,4 C 5,0 C 7,8 C 7,8 C 82 % 72 % 6 cb 5 cb 5 cb 1028,0 hPa 0,0 l/m 9,7 km/h (2 Bft) SW 225 0,000 mm 1,0 UV-I 265 W/m -0,5 C -0,8 C 11,3 km/h (2 Bft)
14.04.2021 10:51 2,3 C 2,8 C 4,4 C 5,0 C 7,8 C 7,8 C 82 % 72 % 6 cb 5 cb 5 cb 1028,0 hPa 0,0 l/m 9,7 km/h (2 Bft) SW 225 0,000 mm 1,0 UV-I 251 W/m -0,4 C -0,7 C 12,9 km/h (3 Bft)
14.04.2021 10:50 2,2 C 2,8 C 4,4 C 5,0 C 7,8 C 7,8 C 82 % 72 % 6 cb 5 cb 5 cb 1028,1 hPa 0,0 l/m 4,8 km/h (1 Bft) SW 225 0,000 mm 1,0 UV-I 237 W/m -0,5 C 2,2 C 6,4 km/h (2 Bft)
14.04.2021 10:49 2,2 C 2,8 C 4,4 C 5,0 C 7,8 C 7,8 C 82 % 73 % 6 cb 5 cb 5 cb 1028,0 hPa 0,0 l/m 6,4 km/h (2 Bft) S-SW 202 0,000 mm 0,9 UV-I 223 W/m -0,5 C 2,2 C 9,7 km/h (2 Bft)
14.04.2021 10:48 2,2 C 2,8 C 4,4 C 5,0 C 7,8 C 7,8 C 82 % 73 % 6 cb 5 cb 5 cb 1028,0 hPa 0,0 l/m 8,0 km/h (2 Bft) W-SW 247 0,000 mm 0,8 UV-I 211 W/m -0,5 C 0,7 C 9,7 km/h (2 Bft)
14.04.2021 10:47 2,2 C 2,8 C 4,4 C 5,0 C 7,8 C 7,8 C 82 % 73 % 6 cb 5 cb 5 cb 1028,0 hPa 0,0 l/m 9,7 km/h (2 Bft) SW 225 0,000 mm 0,8 UV-I 200 W/m -0,5 C -0,8 C 12,9 km/h (3 Bft)
14.04.2021 10:46 2,2 C 2,8 C 4,4 C 5,0 C 7,8 C 7,8 C 82 % 73 % 6 cb 5 cb 5 cb 1028,1 hPa 0,0 l/m 6,4 km/h (2 Bft) W-SW 247 0,000 mm 0,7 UV-I 185 W/m -0,5 C 2,2 C 9,7 km/h (2 Bft)
14.04.2021 10:45 2,2 C 2,8 C 4,4 C 5,0 C 7,8 C 7,8 C 83 % 73 % 6 cb 5 cb 5 cb 1028,1 hPa 0,0 l/m 9,7 km/h (2 Bft) W-SW 247 0,000 mm 0,7 UV-I 181 W/m -0,4 C -0,8 C 14,5 km/h (3 Bft)
14.04.2021 10:44 2,2 C 2,8 C 4,4 C 5,0 C 7,8 C 7,8 C 83 % 73 % 6 cb 5 cb 5 cb 1028,1 hPa 0,0 l/m 3,2 km/h (1 Bft) SW 225 0,000 mm 0,7 UV-I 178 W/m -0,4 C 2,2 C 6,4 km/h (2 Bft)
14.04.2021 10:43 2,2 C 2,8 C 4,4 C 5,0 C 7,8 C 7,8 C 83 % 73 % 6 cb 5 cb 5 cb 1028,1 hPa 0,0 l/m 6,4 km/h (2 Bft) SW 225 0,000 mm 0,7 UV-I 176 W/m -0,4 C 2,2 C 8,0 km/h (2 Bft)
14.04.2021 10:42 2,2 C 2,8 C 4,4 C 5,0 C 7,8 C 7,8 C 83 % 73 % 6 cb 5 cb 5 cb 1028,1 hPa 0,0 l/m 8,0 km/h (2 Bft) SW 225 0,000 mm 0,7 UV-I 179 W/m -0,4 C 0,7 C 9,7 km/h (2 Bft)
14.04.2021 10:41 2,2 C 2,2 C 4,4 C 5,0 C 7,8 C 7,8 C 83 % 73 % 6 cb 5 cb 5 cb 1028,1 hPa 0,0 l/m 8,0 km/h (2 Bft) SW 225 0,000 mm 0,7 UV-I 185 W/m -0,4 C 0,7 C 11,3 km/h (2 Bft)
14.04.2021 10:40 2,2 C 2,8 C 5,0 C 5,0 C 7,8 C 7,8 C 83 % 73 % 6 cb 5 cb 5 cb 1028,1 hPa 0,0 l/m 11,3 km/h (2 Bft) SW 225 0,000 mm 0,7 UV-I 192 W/m -0,4 C -2,0 C 12,9 km/h (3 Bft)
14.04.2021 10:39 2,2 C 2,2 C 5,0 C 5,0 C 7,8 C 7,8 C 83 % 73 % 6 cb 5 cb 5 cb 1028,1 hPa 0,0 l/m 6,4 km/h (2 Bft) SW 225 0,000 mm 0,7 UV-I 200 W/m -0,4 C 2,2 C 9,7 km/h (2 Bft)
14.04.2021 10:38 2,2 C 2,2 C 5,0 C 5,0 C 7,8 C 7,8 C 83 % 73 % 6 cb 5 cb 5 cb 1028,1 hPa 0,0 l/m 6,4 km/h (2 Bft) W-SW 247 0,000 mm 0,7 UV-I 213 W/m -0,4 C 2,2 C 11,3 km/h (2 Bft)
14.04.2021 10:37 2,2 C 2,2 C 5,0 C 5,0 C 7,8 C 7,8 C 83 % 73 % 6 cb 5 cb 5 cb 1028,1 hPa 0,0 l/m 6,4 km/h (2 Bft) SW 225 0,000 mm 0,8 UV-I 230 W/m -0,4 C 2,2 C 9,7 km/h (2 Bft)
14.04.2021 10:36 2,2 C 2,2 C 5,0 C 5,0 C 7,8 C 7,8 C 83 % 74 % 6 cb 5 cb 5 cb 1028,1 hPa 0,0 l/m 8,0 km/h (2 Bft) W-SW 247 0,000 mm 0,9 UV-I 267 W/m -0,4 C 0,7 C 9,7 km/h (2 Bft)
14.04.2021 10:35 2,2 C 2,2 C 5,0 C 5,0 C 7,8 C 7,8 C 83 % 73 % 6 cb 5 cb 5 cb 1028,2 hPa 0,0 l/m 8,0 km/h (2 Bft) W-SW 247 0,000 mm 0,9 UV-I 272 W/m -0,4 C 0,7 C 12,9 km/h (3 Bft)
14.04.2021 10:34 2,2 C 2,2 C 4,4 C 5,0 C 7,8 C 7,8 C 83 % 73 % 6 cb 5 cb 5 cb 1028,1 hPa 0,0 l/m 6,4 km/h (2 Bft) SW 225 0,000 mm 0,9 UV-I 269 W/m -0,4 C 2,2 C 9,7 km/h (2 Bft)
14.04.2021 10:33 2,1 C 2,2 C 4,4 C 5,0 C 7,8 C 7,8 C 83 % 73 % 6 cb 5 cb 5 cb 1028,1 hPa 0,0 l/m 8,0 km/h (2 Bft) W-SW 247 0,000 mm 0,9 UV-I 260 W/m -0,5 C 0,6 C 11,3 km/h (2 Bft)
14.04.2021 10:32 2,1 C 2,2 C 4,4 C 5,0 C 7,8 C 7,8 C 83 % 73 % 6 cb 5 cb 5 cb 1028,1 hPa 0,0 l/m 4,8 km/h (1 Bft) SW 225 0,000 mm 0,9 UV-I 253 W/m -0,5 C 2,1 C 9,7 km/h (2 Bft)
14.04.2021 10:31 2,1 C 2,2 C 4,4 C 5,0 C 7,8 C 7,8 C 83 % 73 % 6 cb 5 cb 5 cb 1028,1 hPa 0,0 l/m 8,0 km/h (2 Bft) SW 225 0,000 mm 0,8 UV-I 246 W/m -0,5 C 0,6 C 11,3 km/h (2 Bft)
14.04.2021 10:30 2,1 C 2,2 C 5,0 C 5,0 C 7,8 C 7,8 C 82 % 73 % 6 cb 5 cb 5 cb 1028,1 hPa 0,0 l/m 8,0 km/h (2 Bft) W-SW 247 0,000 mm 0,8 UV-I 237 W/m -0,6 C 0,6 C 11,3 km/h (2 Bft)
14.04.2021 10:29 2,1 C 2,2 C 5,0 C 5,0 C 7,8 C 7,8 C 82 % 73 % 6 cb 5 cb 5 cb 1028,1 hPa 0,0 l/m 6,4 km/h (2 Bft) SW 225 0,000 mm 0,8 UV-I 229 W/m -0,6 C 2,1 C 8,0 km/h (2 Bft)
14.04.2021 10:28 2,1 C 2,2 C 5,0 C 5,0 C 7,8 C 7,8 C 82 % 73 % 6 cb 5 cb 5 cb 1028,1 hPa 0,0 l/m 6,4 km/h (2 Bft) W-SW 247 0,000 mm 0,7 UV-I 227 W/m -0,6 C 2,1 C 9,7 km/h (2 Bft)
14.04.2021 10:27 2,1 C 2,2 C 5,0 C 5,0 C 7,8 C 7,8 C 82 % 74 % 6 cb 5 cb 5 cb 1028,2 hPa 0,0 l/m 4,8 km/h (1 Bft) W 270 0,000 mm 0,7 UV-I 225 W/m -0,6 C 2,1 C 8,0 km/h (2 Bft)
14.04.2021 10:26 2,1 C 2,2 C 5,0 C 5,0 C 7,8 C 7,8 C 83 % 74 % 6 cb 5 cb 5 cb 1028,1 hPa 0,0 l/m 8,0 km/h (2 Bft) W-SW 247 0,000 mm 0,7 UV-I 223 W/m -0,5 C 0,6 C 11,3 km/h (2 Bft)
14.04.2021 10:25 2,1 C 2,2 C 5,0 C 5,0 C 7,8 C 7,8 C 83 % 74 % 6 cb 5 cb 5 cb 1028,1 hPa 0,0 l/m 6,4 km/h (2 Bft) W-SW 247 0,000 mm 0,7 UV-I 221 W/m -0,5 C 2,1 C 11,3 km/h (2 Bft)
14.04.2021 10:24 2,1 C 2,2 C 5,0 C 5,0 C 7,8 C 7,8 C 83 % 74 % 6 cb 5 cb 5 cb 1028,1 hPa 0,0 l/m 6,4 km/h (2 Bft) W-SW 247 0,000 mm 0,7 UV-I 223 W/m -0,5 C 2,1 C 8,0 km/h (2 Bft)
14.04.2021 10:23 2,0 C 2,2 C 5,0 C 5,0 C 7,8 C 7,8 C 82 % 74 % 6 cb 5 cb 5 cb 1028,2 hPa 0,0 l/m 6,4 km/h (2 Bft) W-SW 247 0,000 mm 0,7 UV-I 227 W/m -0,7 C 2,0 C 9,7 km/h (2 Bft)
14.04.2021 10:22 2,1 C 2,2 C 5,0 C 5,0 C 7,8 C 7,8 C 83 % 74 % 6 cb 5 cb 5 cb 1028,2 hPa 0,0 l/m 6,4 km/h (2 Bft) W 270 0,000 mm 0,7 UV-I 229 W/m -0,5 C 2,1 C 9,7 km/h (2 Bft)
14.04.2021 10:21 2,1 C 2,2 C 5,0 C 5,0 C 7,8 C 7,8 C 82 % 74 % 6 cb 5 cb 5 cb 1028,2 hPa 0,0 l/m 6,4 km/h (2 Bft) W-SW 247 0,000 mm 0,7 UV-I 230 W/m -0,6 C 2,1 C 9,7 km/h (2 Bft)
14.04.2021 10:20 2,1 C 2,2 C 5,6 C 5,0 C 7,8 C 7,8 C 83 % 74 % 6 cb 5 cb 5 cb 1028,2 hPa 0,0 l/m 8,0 km/h (2 Bft) SW 225 0,000 mm 0,7 UV-I 236 W/m -0,5 C 0,6 C 9,7 km/h (2 Bft)
14.04.2021 10:19 2,2 C 2,2 C 5,6 C 5,0 C 7,8 C 7,8 C 83 % 75 % 6 cb 5 cb 5 cb 1028,2 hPa 0,0 l/m 6,4 km/h (2 Bft) SW 225 0,000 mm 0,7 UV-I 246 W/m -0,4 C 2,2 C 11,3 km/h (2 Bft)
14.04.2021 10:18 2,2 C 2,2 C 5,6 C 5,0 C 7,8 C 7,8 C 83 % 75 % 6 cb 5 cb 5 cb 1028,2 hPa 0,0 l/m 9,7 km/h (2 Bft) SW 225 0,000 mm 0,7 UV-I 246 W/m -0,4 C -0,8 C 11,3 km/h (2 Bft)
14.04.2021 10:17 2,2 C 2,2 C 6,1 C 5,0 C 7,8 C 7,8 C 83 % 74 % 6 cb 5 cb 5 cb 1028,2 hPa 0,0 l/m 4,8 km/h (1 Bft) W-SW 247 0,000 mm 0,7 UV-I 251 W/m -0,4 C 2,2 C 9,7 km/h (2 Bft)
14.04.2021 10:16 2,1 C 2,2 C 6,1 C 5,0 C 7,8 C 7,8 C 83 % 74 % 6 cb 5 cb 5 cb 1028,2 hPa 0,0 l/m 4,8 km/h (1 Bft) W 270 0,000 mm 0,8 UV-I 258 W/m -0,5 C 2,1 C 8,0 km/h (2 Bft)
14.04.2021 10:15 2,1 C 2,2 C 5,6 C 5,0 C 7,8 C 7,8 C 84 % 74 % 6 cb 5 cb 5 cb 1028,2 hPa 0,0 l/m 6,4 km/h (2 Bft) W 270 0,000 mm 0,8 UV-I 265 W/m -0,3 C 2,1 C 9,7 km/h (2 Bft)
14.04.2021 10:14 2,1 C 2,2 C 5,6 C 5,0 C 7,8 C 7,8 C 84 % 74 % 6 cb 5 cb 5 cb 1028,2 hPa 0,0 l/m 3,2 km/h (1 Bft) W-SW 247 0,000 mm 0,8 UV-I 272 W/m -0,3 C 2,1 C 6,4 km/h (2 Bft)
14.04.2021 10:13 2,0 C 2,2 C 5,6 C 5,0 C 7,8 C 7,8 C 83 % 74 % 6 cb 5 cb 5 cb 1028,2 hPa 0,0 l/m 4,8 km/h (1 Bft) W-SW 247 0,000 mm 0,9 UV-I 278 W/m -0,6 C 2,0 C 6,4 km/h (2 Bft)
14.04.2021 10:12 1,9 C 2,2 C 5,6 C 5,0 C 7,8 C 7,8 C 83 % 74 % 6 cb 5 cb 5 cb 1028,2 hPa 0,0 l/m 3,2 km/h (1 Bft) W-SW 247 0,000 mm 0,9 UV-I 279 W/m -0,7 C 1,9 C 6,4 km/h (2 Bft)
14.04.2021 10:11 1,8 C 2,2 C 5,6 C 5,0 C 7,8 C 7,8 C 83 % 74 % 6 cb 5 cb 5 cb 1028,2 hPa 0,0 l/m 6,4 km/h (2 Bft) W-SW 247 0,000 mm 0,9 UV-I 279 W/m -0,8 C 1,8 C 9,7 km/h (2 Bft)
14.04.2021 10:10 1,8 C 2,2 C 5,6 C 5,0 C 7,8 C 7,8 C 83 % 74 % 6 cb 5 cb 5 cb 1028,2 hPa 0,0 l/m 9,7 km/h (2 Bft) W 270 0,000 mm 0,9 UV-I 285 W/m -0,8 C -1,2 C 16,1 km/h (3 Bft)
14.04.2021 10:09 1,7 C 2,2 C 5,6 C 5,0 C 7,8 C 7,8 C 84 % 74 % 6 cb 5 cb 5 cb 1028,2 hPa 0,0 l/m 9,7 km/h (2 Bft) W 270 0,000 mm 0,9 UV-I 299 W/m -0,7 C -1,3 C 12,9 km/h (3 Bft)
14.04.2021 10:08 1,7 C 1,7 C 5,0 C 5,0 C 7,8 C 7,8 C 84 % 74 % 6 cb 5 cb 5 cb 1028,2 hPa 0,0 l/m 8,0 km/h (2 Bft) W-SW 247 0,000 mm 1,0 UV-I 306 W/m -0,7 C 0,1 C 12,9 km/h (3 Bft)
14.04.2021 10:07 1,6 C 1,7 C 5,6 C 5,0 C 7,8 C 7,8 C 84 % 74 % 6 cb 5 cb 5 cb 1028,2 hPa 0,0 l/m 8,0 km/h (2 Bft) W-SW 247 0,000 mm 1,0 UV-I 322 W/m -0,8 C 0,0 C 9,7 km/h (2 Bft)
14.04.2021 10:06 1,6 C 1,7 C 5,0 C 5,0 C 7,8 C 7,8 C 83 % 74 % 6 cb 5 cb 5 cb 1028,2 hPa 0,0 l/m 8,0 km/h (2 Bft) W-SW 247 0,000 mm 1,0 UV-I 322 W/m -1,0 C 0,0 C 11,3 km/h (2 Bft)
14.04.2021 10:05 1,6 C 1,7 C 5,6 C 5,0 C 7,8 C 7,8 C 83 % 74 % 6 cb 5 cb 5 cb 1028,3 hPa 0,0 l/m 4,8 km/h (1 Bft) W-SW 247 0,000 mm 1,0 UV-I 316 W/m -1,0 C 1,6 C 8,0 km/h (2 Bft)
14.04.2021 10:04 1,6 C 1,7 C 5,0 C 5,0 C 7,8 C 7,8 C 83 % 74 % 6 cb 5 cb 5 cb 1028,3 hPa 0,0 l/m 6,4 km/h (2 Bft) W-SW 247 0,000 mm 1,0 UV-I 308 W/m -1,0 C 1,6 C 8,0 km/h (2 Bft)
14.04.2021 10:03 1,6 C 1,7 C 5,0 C 5,0 C 7,8 C 7,8 C 83 % 74 % 6 cb 5 cb 5 cb 1028,3 hPa 0,0 l/m 8,0 km/h (2 Bft) SW 225 0,000 mm 1,0 UV-I 302 W/m -1,0 C 0,0 C 9,7 km/h (2 Bft)
14.04.2021 10:02 1,7 C 1,7 C 5,6 C 5,0 C 7,8 C 7,8 C 83 % 74 % 6 cb 5 cb 5 cb 1028,3 hPa 0,0 l/m 8,0 km/h (2 Bft) W-SW 247 0,000 mm 0,9 UV-I 299 W/m -0,9 C 0,1 C 11,3 km/h (2 Bft)
14.04.2021 10:01 1,7 C 1,7 C 5,6 C 5,0 C 7,8 C 7,8 C 83 % 75 % 6 cb 5 cb 5 cb 1028,3 hPa 0,0 l/m 6,4 km/h (2 Bft) W-SW 247 0,000 mm 0,9 UV-I 297 W/m -0,9 C 1,7 C 9,7 km/h (2 Bft)
14.04.2021 10:00 1,7 C 1,7 C 5,6 C 5,0 C 7,8 C 7,8 C 83 % 75 % 6 cb 5 cb 5 cb 1028,3 hPa 0,0 l/m 9,7 km/h (2 Bft) W-SW 247 0,076 mm 0,9 UV-I 294 W/m -0,9 C -1,3 C 12,9 km/h (3 Bft)
14.04.2021 09:59 1,7 C 1,7 C 5,0 C 5,0 C 7,8 C 7,8 C 84 % 75 % 6 cb 5 cb 5 cb 1028,3 hPa 0,0 l/m 6,4 km/h (2 Bft) W 270 0,000 mm 0,9 UV-I 294 W/m -0,7 C 1,7 C 8,0 km/h (2 Bft)
14.04.2021 09:58 1,7 C 1,7 C 5,0 C 5,0 C 7,8 C 7,8 C 84 % 75 % 6 cb 5 cb 5 cb 1028,3 hPa 0,0 l/m 9,7 km/h (2 Bft) W 270 0,000 mm 0,9 UV-I 290 W/m -0,7 C -1,3 C 11,3 km/h (2 Bft)
14.04.2021 09:57 1,7 C 1,7 C 5,0 C 5,0 C 7,8 C 7,8 C 84 % 74 % 6 cb 5 cb 5 cb 1028,3 hPa 0,0 l/m 4,8 km/h (1 Bft) W 270 0,000 mm 0,9 UV-I 288 W/m -0,7 C 1,7 C 8,0 km/h (2 Bft)
14.04.2021 09:56 1,6 C 1,7 C 4,4 C 5,0 C 7,8 C 7,8 C 84 % 74 % 6 cb 5 cb 5 cb 1028,3 hPa 0,0 l/m 3,2 km/h (1 Bft) W 270 0,000 mm 0,9 UV-I 290 W/m -0,8 C 1,6 C 4,8 km/h (1 Bft)
14.04.2021 09:55 1,5 C 1,7 C 4,4 C 5,0 C 7,8 C 7,8 C 84 % 75 % 6 cb 5 cb 5 cb 1028,3 hPa 0,0 l/m 3,2 km/h (1 Bft) W 270 0,000 mm 0,9 UV-I 288 W/m -0,9 C 1,5 C 6,4 km/h (2 Bft)
14.04.2021 09:54 1,5 C 1,7 C 4,4 C 5,0 C 7,8 C 7,8 C 84 % 75 % 6 cb 5 cb 5 cb 1028,3 hPa 0,0 l/m 9,7 km/h (2 Bft) W-SW 247 0,000 mm 0,9 UV-I 267 W/m -0,9 C -1,6 C 11,3 km/h (2 Bft)
14.04.2021 09:53 1,5 C 1,7 C 4,4 C 5,0 C 7,8 C 7,8 C 84 % 75 % 6 cb 5 cb 5 cb 1028,3 hPa 0,0 l/m 6,4 km/h (2 Bft) W-SW 247 0,000 mm 0,9 UV-I 253 W/m -0,9 C 1,5 C 11,3 km/h (2 Bft)
14.04.2021 09:52 1,5 C 1,7 C 4,4 C 5,0 C 7,8 C 7,8 C 84 % 75 % 6 cb 5 cb 5 cb 1028,3 hPa 0,0 l/m 8,0 km/h (2 Bft) W-SW 247 0,000 mm 0,9 UV-I 257 W/m -0,9 C -0,1 C 11,3 km/h (2 Bft)
14.04.2021 09:51 1,4 C 1,7 C 3,9 C 5,0 C 7,8 C 7,8 C 83 % 75 % 6 cb 5 cb 5 cb 1028,3 hPa 0,0 l/m 8,0 km/h (2 Bft) W-SW 247 0,000 mm 0,9 UV-I 244 W/m -1,2 C -0,2 C 9,7 km/h (2 Bft)
14.04.2021 09:50 1,4 C 1,7 C 3,9 C 5,0 C 7,8 C 7,8 C 83 % 75 % 6 cb 5 cb 5 cb 1028,3 hPa 0,0 l/m 6,4 km/h (2 Bft) W-SW 247 0,000 mm 0,9 UV-I 230 W/m -1,2 C 1,4 C 9,7 km/h (2 Bft)
14.04.2021 09:49 1,4 C 1,7 C 3,3 C 5,0 C 7,8 C 7,8 C 83 % 74 % 6 cb 5 cb 5 cb 1028,2 hPa 0,0 l/m 9,7 km/h (2 Bft) SW 225 0,000 mm 0,8 UV-I 227 W/m -1,2 C -1,7 C 12,9 km/h (3 Bft)
14.04.2021 09:48 1,4 C 1,7 C 3,3 C 5,0 C 7,8 C 7,8 C 83 % 75 % 6 cb 5 cb 5 cb 1028,2 hPa 0,0 l/m 9,7 km/h (2 Bft) SW 225 0,000 mm 0,8 UV-I 218 W/m -1,2 C -1,7 C 12,9 km/h (3 Bft)
14.04.2021 09:47 1,5 C 1,7 C 3,9 C 5,0 C 7,8 C 7,8 C 83 % 75 % 6 cb 5 cb 5 cb 1028,3 hPa 0,0 l/m 11,3 km/h (2 Bft) W-SW 247 0,000 mm 0,8 UV-I 209 W/m -1,1 C -2,8 C 14,5 km/h (3 Bft)
14.04.2021 09:46 1,6 C 1,7 C 3,9 C 5,0 C 7,8 C 7,8 C 83 % 75 % 6 cb 5 cb 5 cb 1028,2 hPa 0,0 l/m 12,9 km/h (3 Bft) SW 225 0,000 mm 0,7 UV-I 211 W/m -1,0 C -3,8 C 17,7 km/h (3 Bft)
14.04.2021 09:45 1,6 C 1,7 C 3,9 C 5,0 C 7,8 C 7,8 C 83 % 75 % 6 cb 5 cb 5 cb 1028,2 hPa 0,0 l/m 12,9 km/h (3 Bft) SW 225 0,000 mm 0,7 UV-I 234 W/m -1,0 C -3,8 C 17,7 km/h (3 Bft)
14.04.2021 09:44 1,6 C 1,7 C 3,9 C 5,0 C 7,8 C 7,8 C 83 % 75 % 6 cb 5 cb 5 cb 1028,2 hPa 0,0 l/m 8,0 km/h (2 Bft) SW 225 0,000 mm 0,8 UV-I 306 W/m -1,0 C 0,0 C 9,7 km/h (2 Bft)
14.04.2021 09:43 1,6 C 1,7 C 3,9 C 5,0 C 7,8 C 7,8 C 83 % 75 % 6 cb 5 cb 5 cb 1028,2 hPa 0,0 l/m 6,4 km/h (2 Bft) SW 225 0,000 mm 0,7 UV-I 232 W/m -1,0 C 1,6 C 8,0 km/h (2 Bft)
14.04.2021 09:42 1,6 C 1,7 C 3,9 C 5,0 C 7,8 C 7,8 C 83 % 75 % 6 cb 5 cb 5 cb 1028,2 hPa 0,0 l/m 8,0 km/h (2 Bft) SW 225 0,000 mm 0,7 UV-I 225 W/m -1,0 C 0,0 C 11,3 km/h (2 Bft)
14.04.2021 09:41 1,6 C 1,7 C 3,9 C 5,0 C 7,8 C 7,8 C 83 % 75 % 6 cb 5 cb 5 cb 1028,3 hPa 0,0 l/m 6,4 km/h (2 Bft) W-SW 247 0,000 mm 0,7 UV-I 236 W/m -1,0 C 1,6 C 8,0 km/h (2 Bft)
14.04.2021 09:40 1,5 C 1,7 C 3,9 C 5,0 C 7,8 C 7,8 C 83 % 75 % 6 cb 5 cb 5 cb 1028,2 hPa 0,0 l/m 6,4 km/h (2 Bft) W-SW 247 0,000 mm 0,7 UV-I 269 W/m -1,1 C 1,5 C 9,7 km/h (2 Bft)
14.04.2021 09:39 1,5 C 1,7 C 3,9 C 5,0 C 7,8 C 7,8 C 83 % 75 % 6 cb 5 cb 5 cb 1028,2 hPa 0,0 l/m 8,0 km/h (2 Bft) SW 225 0,000 mm 0,7 UV-I 269 W/m -1,1 C -0,1 C 11,3 km/h (2 Bft)
14.04.2021 09:38 1,5 C 1,7 C 3,3 C 5,0 C 7,8 C 7,8 C 83 % 74 % 6 cb 5 cb 5 cb 1028,2 hPa 0,0 l/m 8,0 km/h (2 Bft) SW 225 0,000 mm 0,7 UV-I 237 W/m -1,1 C -0,1 C 12,9 km/h (3 Bft)
14.04.2021 09:37 1,5 C 1,7 C 3,3 C 5,0 C 7,8 C 7,8 C 83 % 74 % 6 cb 5 cb 5 cb 1028,2 hPa 0,0 l/m 6,4 km/h (2 Bft) W-SW 247 0,000 mm 0,6 UV-I 221 W/m -1,1 C 1,5 C 9,7 km/h (2 Bft)
14.04.2021 09:36 1,4 C 1,7 C 3,3 C 5,0 C 7,8 C 7,8 C 83 % 75 % 6 cb 5 cb 5 cb 1028,2 hPa 0,0 l/m 6,4 km/h (2 Bft) S-SW 202 0,000 mm 0,6 UV-I 193 W/m -1,2 C 1,4 C 9,7 km/h (2 Bft)
14.04.2021 09:35 1,4 C 1,7 C 3,3 C 5,0 C 7,8 C 7,8 C 83 % 74 % 6 cb 5 cb 5 cb 1028,2 hPa 0,0 l/m 4,8 km/h (1 Bft) SW 225 0,000 mm 0,6 UV-I 188 W/m -1,2 C 1,4 C 8,0 km/h (2 Bft)
14.04.2021 09:34 1,4 C 1,7 C 3,3 C 5,0 C 7,8 C 7,8 C 83 % 74 % 6 cb 5 cb 5 cb 1028,1 hPa 0,0 l/m 4,8 km/h (1 Bft) SW 225 0,000 mm 0,6 UV-I 186 W/m -1,2 C 1,4 C 6,4 km/h (2 Bft)
14.04.2021 09:33 1,4 C 1,1 C 3,3 C 5,0 C 7,8 C 7,8 C 83 % 75 % 6 cb 5 cb 5 cb 1028,2 hPa 0,0 l/m 4,8 km/h (1 Bft) SW 225 0,000 mm 0,6 UV-I 185 W/m -1,2 C 1,4 C 8,0 km/h (2 Bft)
14.04.2021 09:32 1,4 C 1,1 C 3,3 C 5,0 C 7,8 C 7,8 C 83 % 74 % 6 cb 5 cb 5 cb 1028,2 hPa 0,0 l/m 4,8 km/h (1 Bft) SW 225 0,000 mm 0,6 UV-I 185 W/m -1,2 C 1,4 C 8,0 km/h (2 Bft)
14.04.2021 09:31 1,4 C 1,1 C 3,3 C 5,0 C 7,8 C 7,8 C 83 % 74 % 6 cb 5 cb 5 cb 1028,2 hPa 0,0 l/m 3,2 km/h (1 Bft) W 270 0,000 mm 0,6 UV-I 186 W/m -1,2 C 1,4 C 4,8 km/h (1 Bft)
14.04.2021 09:30 1,3 C 1,1 C 3,3 C 5,0 C 7,8 C 7,8 C 83 % 75 % 6 cb 5 cb 5 cb 1028,2 hPa 0,0 l/m 4,8 km/h (1 Bft) SW 225 0,000 mm 0,6 UV-I 190 W/m -1,3 C 1,3 C 6,4 km/h (2 Bft)
14.04.2021 09:29 1,3 C 1,1 C 3,3 C 5,0 C 7,8 C 7,8 C 84 % 75 % 6 cb 5 cb 5 cb 1028,2 hPa 0,0 l/m 8,0 km/h (2 Bft) SW 225 0,000 mm 0,6 UV-I 190 W/m -1,1 C -0,3 C 9,7 km/h (2 Bft)
14.04.2021 09:28 1,3 C 1,1 C 3,3 C 5,0 C 7,8 C 7,8 C 84 % 75 % 6 cb 5 cb 5 cb 1028,2 hPa 0,0 l/m 4,8 km/h (1 Bft) W-SW 247 0,000 mm 0,6 UV-I 192 W/m -1,1 C 1,3 C 6,4 km/h (2 Bft)
14.04.2021 09:27 1,3 C 1,1 C 3,3 C 5,0 C 7,8 C 7,8 C 84 % 75 % 6 cb 5 cb 5 cb 1028,2 hPa 0,0 l/m 3,2 km/h (1 Bft) W-SW 247 0,000 mm 0,6 UV-I 190 W/m -1,1 C 1,3 C 4,8 km/h (1 Bft)
14.04.2021 09:26 1,3 C 1,1 C 2,8 C 5,0 C 7,8 C 7,8 C 84 % 75 % 6 cb 5 cb 5 cb 1028,2 hPa 0,0 l/m 4,8 km/h (1 Bft) W-SW 247 0,000 mm 0,5 UV-I 185 W/m -1,1 C 1,3 C 4,8 km/h (1 Bft)
14.04.2021 09:25 1,2 C 1,1 C 2,8 C 5,0 C 7,8 C 7,8 C 84 % 75 % 6 cb 5 cb 5 cb 1028,2 hPa 0,0 l/m 4,8 km/h (1 Bft) W-SW 247 0,000 mm 0,5 UV-I 179 W/m -1,2 C 1,2 C 6,4 km/h (2 Bft)
14.04.2021 09:24 1,2 C 1,1 C 2,8 C 5,0 C 7,8 C 7,8 C 84 % 75 % 6 cb 5 cb 5 cb 1028,2 hPa 0,0 l/m 6,4 km/h (2 Bft) SW 225 0,000 mm 0,5 UV-I 167 W/m -1,2 C 1,2 C 9,7 km/h (2 Bft)
14.04.2021 09:23 1,2 C 1,1 C 2,8 C 5,0 C 7,8 C 7,8 C 84 % 75 % 6 cb 5 cb 5 cb 1028,2 hPa 0,0 l/m 8,0 km/h (2 Bft) W-SW 247 0,000 mm 0,5 UV-I 162 W/m -1,2 C -0,4 C 9,7 km/h (2 Bft)
14.04.2021 09:22 1,2 C 1,1 C 2,8 C 5,0 C 7,8 C 7,8 C 84 % 75 % 6 cb 5 cb 5 cb 1028,2 hPa 0,0 l/m 6,4 km/h (2 Bft) W-SW 247 0,000 mm 0,5 UV-I 156 W/m -1,2 C 1,2 C 8,0 km/h (2 Bft)
14.04.2021 09:21 1,2 C 1,1 C 2,8 C 5,0 C 7,8 C 7,8 C 85 % 75 % 6 cb 5 cb 5 cb 1028,2 hPa 0,0 l/m 4,8 km/h (1 Bft) W-SW 247 0,000 mm 0,5 UV-I 153 W/m -1,0 C 1,2 C 6,4 km/h (2 Bft)
14.04.2021 09:20 1,2 C 1,1 C 2,8 C 5,0 C 7,8 C 7,8 C 85 % 75 % 6 cb 5 cb 5 cb 1028,2 hPa 0,0 l/m 6,4 km/h (2 Bft) W-SW 247 0,000 mm 0,0 UV-I 149 W/m -1,0 C 1,2 C 9,7 km/h (2 Bft)
14.04.2021 09:19 1,2 C 1,1 C 2,8 C 5,0 C 7,8 C 7,8 C 85 % 75 % 6 cb 5 cb 5 cb 1028,1 hPa 0,0 l/m 6,4 km/h (2 Bft) W-SW 247 0,000 mm 0,0 UV-I 139 W/m -1,0 C 1,2 C 8,0 km/h (2 Bft)
14.04.2021 09:18 1,1 C 1,1 C 2,2 C 5,0 C 7,8 C 7,8 C 84 % 75 % 6 cb 5 cb 5 cb 1028,2 hPa 0,0 l/m 6,4 km/h (2 Bft) W-SW 247 0,000 mm 0,0 UV-I 134 W/m -1,3 C 1,1 C 8,0 km/h (2 Bft)
14.04.2021 09:17 1,1 C 1,1 C 2,2 C 5,0 C 7,8 C 7,8 C 84 % 75 % 6 cb 5 cb 5 cb 1028,2 hPa 0,0 l/m 6,4 km/h (2 Bft) W-SW 247 0,000 mm 0,0 UV-I 128 W/m -1,3 C 1,1 C 9,7 km/h (2 Bft)
14.04.2021 09:16 1,1 C 1,1 C 2,2 C 5,0 C 7,8 C 7,8 C 85 % 75 % 6 cb 5 cb 5 cb 1028,2 hPa 0,0 l/m 6,4 km/h (2 Bft) SW 225 0,000 mm 0,0 UV-I 123 W/m -1,1 C 1,1 C 6,4 km/h (2 Bft)
14.04.2021 09:15 1,1 C 1,1 C 2,2 C 5,0 C 7,8 C 7,8 C 85 % 75 % 6 cb 5 cb 5 cb 1028,2 hPa 0,0 l/m 9,7 km/h (2 Bft) SW 225 0,000 mm 0,0 UV-I 120 W/m -1,1 C -2,0 C 11,3 km/h (2 Bft)
14.04.2021 09:14 1,1 C 1,1 C 2,2 C 5,0 C 7,8 C 7,8 C 85 % 75 % 6 cb 5 cb 5 cb 1028,2 hPa 0,0 l/m 6,4 km/h (2 Bft) W-SW 247 0,000 mm 0,0 UV-I 118 W/m -1,1 C 1,1 C 9,7 km/h (2 Bft)
14.04.2021 09:13 1,1 C 1,1 C 2,2 C 5,0 C 7,8 C 7,8 C 85 % 75 % 6 cb 5 cb 5 cb 1028,2 hPa 0,0 l/m 4,8 km/h (1 Bft) W-SW 247 0,000 mm 0,0 UV-I 113 W/m -1,1 C 1,1 C 6,4 km/h (2 Bft)
14.04.2021 09:12 1,1 C 1,1 C 2,2 C 5,0 C 7,8 C 7,8 C 85 % 75 % 6 cb 5 cb 5 cb 1028,2 hPa 0,0 l/m 8,0 km/h (2 Bft) W-SW 247 0,000 mm 0,0 UV-I 111 W/m -1,1 C -0,5 C 11,3 km/h (2 Bft)
14.04.2021 09:11 1,1 C 1,1 C 2,2 C 5,0 C 7,8 C 7,8 C 85 % 75 % 6 cb 5 cb 5 cb 1028,1 hPa 0,0 l/m 8,0 km/h (2 Bft) SW 225 0,000 mm 0,0 UV-I 107 W/m -1,1 C -0,5 C 9,7 km/h (2 Bft)
14.04.2021 09:10 1,1 C 1,1 C 2,2 C 5,0 C 7,8 C 7,8 C 85 % 75 % 6 cb 5 cb 5 cb 1028,1 hPa 0,0 l/m 8,0 km/h (2 Bft) SW 225 0,000 mm 0,0 UV-I 107 W/m -1,1 C -0,5 C 11,3 km/h (2 Bft)
14.04.2021 09:09 1,0 C 1,1 C 2,2 C 5,0 C 7,8 C 7,8 C 85 % 75 % 6 cb 5 cb 5 cb 1028,2 hPa 0,0 l/m 6,4 km/h (2 Bft) W-SW 247 0,000 mm 0,0 UV-I 105 W/m -1,2 C 1,0 C 8,0 km/h (2 Bft)
14.04.2021 09:08 1,0 C 1,1 C 2,2 C 5,0 C 7,8 C 7,8 C 85 % 75 % 6 cb 5 cb 5 cb 1028,1 hPa 0,0 l/m 6,4 km/h (2 Bft) W-SW 247 0,000 mm 0,0 UV-I 109 W/m -1,2 C 1,0 C 9,7 km/h (2 Bft)
14.04.2021 09:07 1,0 C 1,1 C 2,2 C 5,0 C 7,8 C 7,8 C 85 % 75 % 6 cb 5 cb 5 cb 1028,1 hPa 0,0 l/m 8,0 km/h (2 Bft) W-SW 247 0,000 mm 0,0 UV-I 114 W/m -1,2 C -0,6 C 11,3 km/h (2 Bft)
14.04.2021 09:06 1,0 C 1,1 C 2,2 C 5,0 C 7,8 C 7,8 C 85 % 75 % 6 cb 5 cb 5 cb 1028,1 hPa 0,0 l/m 6,4 km/h (2 Bft) SW 225 0,000 mm 0,0 UV-I 118 W/m -1,2 C 1,0 C 8,0 km/h (2 Bft)
14.04.2021 09:05 1,0 C 1,1 C 2,2 C 5,0 C 7,8 C 7,8 C 85 % 75 % 6 cb 5 cb 5 cb 1028,1 hPa 0,0 l/m 6,4 km/h (2 Bft) SW 225 0,000 mm 0,0 UV-I 121 W/m -1,2 C 1,0 C 8,0 km/h (2 Bft)
14.04.2021 09:04 1,0 C 1,1 C 2,2 C 5,0 C 7,8 C 7,8 C 85 % 75 % 6 cb 5 cb 5 cb 1028,1 hPa 0,0 l/m 8,0 km/h (2 Bft) SW 225 0,000 mm 0,0 UV-I 123 W/m -1,2 C -0,6 C 9,7 km/h (2 Bft)
14.04.2021 09:03 1,0 C 1,1 C 2,2 C 5,0 C 7,8 C 7,8 C 85 % 75 % 6 cb 5 cb 5 cb 1028,1 hPa 0,0 l/m 3,2 km/h (1 Bft) SW 225 0,000 mm 0,0 UV-I 123 W/m -1,2 C 1,0 C 6,4 km/h (2 Bft)
14.04.2021 09:02 0,9 C 1,1 C 1,7 C 5,0 C 7,8 C 7,8 C 85 % 75 % 6 cb 5 cb 5 cb 1028,1 hPa 0,0 l/m 4,8 km/h (1 Bft) W-SW 247 0,000 mm 0,0 UV-I 121 W/m -1,3 C 0,9 C 6,4 km/h (2 Bft)
14.04.2021 09:01 0,9 C 1,1 C 1,7 C 5,0 C 7,8 C 7,8 C 85 % 75 % 6 cb 5 cb 5 cb 1028,1 hPa 0,0 l/m 4,8 km/h (1 Bft) W-SW 247 0,000 mm 0,0 UV-I 111 W/m -1,3 C 0,9 C 6,4 km/h (2 Bft)
14.04.2021 09:00 0,9 C 1,1 C 1,7 C 5,0 C 7,8 C 7,8 C 85 % 75 % 6 cb 5 cb 5 cb 1028,1 hPa 0,0 l/m 6,4 km/h (2 Bft) W-SW 247 0,025 mm 0,0 UV-I 105 W/m -1,3 C 0,9 C 6,4 km/h (2 Bft)
14.04.2021 08:59 0,9 C 1,1 C 1,7 C 5,0 C 7,8 C 7,8 C 85 % 75 % 6 cb 5 cb 5 cb 1028,1 hPa 0,0 l/m 6,4 km/h (2 Bft) SW 225 0,000 mm 0,0 UV-I 98 W/m -1,3 C 0,9 C 8,0 km/h (2 Bft)
14.04.2021 08:58 0,9 C 1,1 C 1,7 C 5,0 C 7,8 C 7,8 C 85 % 75 % 6 cb 5 cb 5 cb 1028,2 hPa 0,0 l/m 8,0 km/h (2 Bft) SW 225 0,000 mm 0,0 UV-I 95 W/m -1,3 C -0,7 C 11,3 km/h (2 Bft)
14.04.2021 08:57 0,9 C 1,1 C 1,7 C 5,0 C 7,8 C 7,8 C 85 % 75 % 6 cb 5 cb 5 cb 1028,1 hPa 0,0 l/m 9,7 km/h (2 Bft) SW 225 0,000 mm 0,0 UV-I 90 W/m -1,3 C -2,2 C 11,3 km/h (2 Bft)
14.04.2021 08:56 0,9 C 1,1 C 1,7 C 5,0 C 7,8 C 7,8 C 85 % 75 % 6 cb 5 cb 5 cb 1028,1 hPa 0,0 l/m 8,0 km/h (2 Bft) W-SW 247 0,000 mm 0,0 UV-I 84 W/m -1,3 C -0,7 C 11,3 km/h (2 Bft)
14.04.2021 08:55 0,9 C 1,1 C 1,7 C 5,0 C 7,8 C 7,8 C 85 % 75 % 6 cb 5 cb 5 cb 1028,2 hPa 0,0 l/m 6,4 km/h (2 Bft) W-SW 247 0,000 mm 0,0 UV-I 81 W/m -1,3 C 0,9 C 9,7 km/h (2 Bft)
14.04.2021 08:54 0,9 C 1,1 C 1,7 C 5,0 C 7,8 C 7,8 C 85 % 75 % 6 cb 5 cb 5 cb 1028,2 hPa 0,0 l/m 4,8 km/h (1 Bft) W-SW 247 0,000 mm 0,0 UV-I 79 W/m -1,3 C 0,9 C 6,4 km/h (2 Bft)
14.04.2021 08:53 0,9 C 1,1 C 1,7 C 5,0 C 7,8 C 7,8 C 85 % 75 % 6 cb 5 cb 5 cb 1028,1 hPa 0,0 l/m 6,4 km/h (2 Bft) W-SW 247 0,000 mm 0,0 UV-I 77 W/m -1,3 C 0,9 C 8,0 km/h (2 Bft)
14.04.2021 08:52 0,9 C 1,1 C 1,7 C 5,0 C 7,8 C 7,8 C 85 % 75 % 6 cb 5 cb 5 cb 1028,2 hPa 0,0 l/m 6,4 km/h (2 Bft) W-SW 247 0,000 mm 0,0 UV-I 76 W/m -1,3 C 0,9 C 8,0 km/h (2 Bft)
14.04.2021 08:51 0,9 C 1,1 C 1,7 C 5,0 C 7,8 C 7,8 C 85 % 75 % 6 cb 5 cb 5 cb 1028,2 hPa 0,0 l/m 4,8 km/h (1 Bft) SW 225 0,000 mm 0,0 UV-I 76 W/m -1,3 C 0,9 C 6,4 km/h (2 Bft)
14.04.2021 08:50 0,9 C 1,1 C 1,7 C 5,0 C 7,8 C 7,8 C 84 % 75 % 6 cb 5 cb 5 cb 1028,1 hPa 0,0 l/m 6,4 km/h (2 Bft) W-SW 247 0,000 mm 0,0 UV-I 72 W/m -1,5 C 0,9 C 6,4 km/h (2 Bft)
14.04.2021 08:49 0,9 C 1,1 C 1,7 C 5,0 C 7,8 C 7,8 C 84 % 75 % 6 cb 5 cb 5 cb 1028,1 hPa 0,0 l/m 8,0 km/h (2 Bft) SW 225 0,000 mm 0,0 UV-I 69 W/m -1,5 C -0,7 C 9,7 km/h (2 Bft)
14.04.2021 08:48 0,9 C 1,1 C 1,7 C 5,0 C 7,8 C 7,8 C 84 % 74 % 6 cb 5 cb 5 cb 1028,1 hPa 0,0 l/m 8,0 km/h (2 Bft) SW 225 0,000 mm 0,0 UV-I 67 W/m -1,5 C -0,7 C 9,7 km/h (2 Bft)
14.04.2021 08:47 0,9 C 1,1 C 1,7 C 5,0 C 7,8 C 7,8 C 84 % 75 % 6 cb 5 cb 5 cb 1028,1 hPa 0,0 l/m 6,4 km/h (2 Bft) SW 225 0,000 mm 0,0 UV-I 65 W/m -1,5 C 0,9 C 9,7 km/h (2 Bft)
14.04.2021 08:46 0,9 C 1,1 C 1,7 C 5,0 C 7,8 C 7,8 C 84 % 75 % 6 cb 5 cb 5 cb 1028,1 hPa 0,0 l/m 4,8 km/h (1 Bft) W-SW 247 0,000 mm 0,0 UV-I 63 W/m -1,5 C 0,9 C 8,0 km/h (2 Bft)
14.04.2021 08:45 0,9 C 1,1 C 1,7 C 5,0 C 7,8 C 7,8 C 84 % 75 % 6 cb 5 cb 5 cb 1028,2 hPa 0,0 l/m 6,4 km/h (2 Bft) SW 225 0,000 mm 0,0 UV-I 63 W/m -1,5 C 0,9 C 9,7 km/h (2 Bft)
14.04.2021 08:44 0,9 C 1,1 C 1,7 C 5,0 C 7,8 C 7,8 C 84 % 75 % 6 cb 5 cb 5 cb 1028,1 hPa 0,0 l/m 6,4 km/h (2 Bft) SW 225 0,000 mm 0,0 UV-I 67 W/m -1,5 C 0,9 C 9,7 km/h (2 Bft)
14.04.2021 08:43 0,9 C 1,1 C 1,7 C 5,0 C 7,8 C 7,8 C 84 % 74 % 6 cb 5 cb 5 cb 1028,1 hPa 0,0 l/m 6,4 km/h (2 Bft) SW 225 0,000 mm 0,0 UV-I 69 W/m -1,5 C 0,9 C 9,7 km/h (2 Bft)
14.04.2021 08:42 0,9 C 1,1 C 1,7 C 5,0 C 7,8 C 7,8 C 84 % 75 % 6 cb 5 cb 5 cb 1028,1 hPa 0,0 l/m 6,4 km/h (2 Bft) W-SW 247 0,000 mm 0,0 UV-I 72 W/m -1,5 C 0,9 C 9,7 km/h (2 Bft)
14.04.2021 08:41 0,9 C 1,1 C 1,7 C 5,0 C 7,8 C 7,8 C 84 % 75 % 6 cb 5 cb 5 cb 1028,1 hPa 0,0 l/m 9,7 km/h (2 Bft) W-SW 247 0,000 mm 0,0 UV-I 76 W/m -1,5 C -2,2 C 11,3 km/h (2 Bft)
14.04.2021 08:40 0,9 C 1,1 C 1,7 C 5,0 C 7,8 C 7,8 C 84 % 74 % 6 cb 5 cb 5 cb 1028,1 hPa 0,0 l/m 8,0 km/h (2 Bft) SW 225 0,000 mm 0,0 UV-I 79 W/m -1,5 C -0,7 C 11,3 km/h (2 Bft)
14.04.2021 08:39 0,9 C 1,1 C 1,7 C 5,0 C 7,8 C 7,8 C 84 % 74 % 6 cb 5 cb 5 cb 1028,1 hPa 0,0 l/m 4,8 km/h (1 Bft) SW 225 0,000 mm 0,0 UV-I 84 W/m -1,5 C 0,9 C 6,4 km/h (2 Bft)
14.04.2021 08:38 0,9 C 1,1 C 1,7 C 5,0 C 7,8 C 7,8 C 84 % 74 % 6 cb 5 cb 5 cb 1028,1 hPa 0,0 l/m 8,0 km/h (2 Bft) SW 225 0,000 mm 0,0 UV-I 88 W/m -1,5 C -0,7 C 9,7 km/h (2 Bft)
14.04.2021 08:37 0,9 C 1,1 C 1,7 C 5,0 C 7,8 C 7,8 C 84 % 74 % 6 cb 5 cb 5 cb 1028,1 hPa 0,0 l/m 9,7 km/h (2 Bft) SW 225 0,000 mm 0,0 UV-I 91 W/m -1,5 C -2,2 C 12,9 km/h (3 Bft)
14.04.2021 08:36 0,9 C 1,1 C 1,7 C 5,0 C 7,8 C 7,8 C 84 % 75 % 6 cb 5 cb 5 cb 1028,1 hPa 0,0 l/m 8,0 km/h (2 Bft) SW 225 0,000 mm 0,0 UV-I 95 W/m -1,5 C -0,7 C 11,3 km/h (2 Bft)
14.04.2021 08:35 0,9 C 1,1 C 1,7 C 5,0 C 7,8 C 7,8 C 84 % 75 % 6 cb 5 cb 5 cb 1028,1 hPa 0,0 l/m 8,0 km/h (2 Bft) SW 225 0,000 mm 0,0 UV-I 98 W/m -1,5 C -0,7 C 9,7 km/h (2 Bft)
14.04.2021 08:34 0,9 C 1,1 C 1,7 C 5,0 C 7,8 C 7,8 C 84 % 75 % 6 cb 5 cb 5 cb 1028,1 hPa 0,0 l/m 8,0 km/h (2 Bft) SW 225 0,000 mm 0,0 UV-I 102 W/m -1,5 C -0,7 C 11,3 km/h (2 Bft)
14.04.2021 08:33 0,9 C 1,1 C 1,7 C 5,0 C 7,8 C 7,8 C 84 % 75 % 6 cb 5 cb 5 cb 1028,1 hPa 0,0 l/m 6,4 km/h (2 Bft) SW 225 0,000 mm 0,0 UV-I 109 W/m -1,5 C 0,9 C 9,7 km/h (2 Bft)
14.04.2021 08:32 1,0 C 1,1 C 1,7 C 5,0 C 7,8 C 7,8 C 84 % 75 % 6 cb 5 cb 5 cb 1028,1 hPa 0,0 l/m 11,3 km/h (2 Bft) S-SW 202 0,000 mm 0,0 UV-I 111 W/m -1,4 C -3,3 C 14,5 km/h (3 Bft)
14.04.2021 08:31 0,9 C 1,1 C 1,7 C 5,0 C 7,8 C 7,8 C 84 % 75 % 6 cb 5 cb 5 cb 1028,1 hPa 0,0 l/m 6,4 km/h (2 Bft) SW 225 0,000 mm 0,0 UV-I 111 W/m -1,5 C 0,9 C 9,7 km/h (2 Bft)
14.04.2021 08:30 0,9 C 1,1 C 1,7 C 5,0 C 7,8 C 7,8 C 84 % 75 % 6 cb 5 cb 5 cb 1028,1 hPa 0,0 l/m 9,7 km/h (2 Bft) S 180 0,000 mm 0,0 UV-I 109 W/m -1,5 C -2,2 C 12,9 km/h (3 Bft)
14.04.2021 08:29 0,9 C 1,1 C 1,7 C 5,0 C 7,8 C 7,8 C 85 % 75 % 6 cb 5 cb 5 cb 1028,1 hPa 0,0 l/m 8,0 km/h (2 Bft) SW 225 0,000 mm 0,0 UV-I 105 W/m -1,3 C -0,7 C 11,3 km/h (2 Bft)
14.04.2021 08:28 0,9 C 1,1 C 1,7 C 5,0 C 7,8 C 7,8 C 85 % 75 % 6 cb 5 cb 5 cb 1028,1 hPa 0,0 l/m 6,4 km/h (2 Bft) S-SW 202 0,000 mm 0,0 UV-I 100 W/m -1,3 C 0,9 C 11,3 km/h (2 Bft)
14.04.2021 08:27 0,9 C 1,1 C 1,7 C 5,0 C 7,8 C 7,8 C 85 % 75 % 6 cb 5 cb 5 cb 1028,1 hPa 0,0 l/m 4,8 km/h (1 Bft) W-SW 247 0,000 mm 0,0 UV-I 95 W/m -1,3 C 0,9 C 8,0 km/h (2 Bft)
14.04.2021 08:26 0,9 C 1,1 C 1,7 C 5,0 C 7,8 C 7,8 C 84 % 75 % 6 cb 5 cb 5 cb 1028,2 hPa 0,0 l/m 4,8 km/h (1 Bft) W 270 0,000 mm 0,0 UV-I 83 W/m -1,5 C 0,9 C 8,0 km/h (2 Bft)
14.04.2021 08:25 0,9 C 1,1 C 1,7 C 5,0 C 7,8 C 7,8 C 84 % 75 % 6 cb 5 cb 5 cb 1028,1 hPa 0,0 l/m 6,4 km/h (2 Bft) W-SW 247 0,000 mm 0,0 UV-I 79 W/m -1,5 C 0,9 C 9,7 km/h (2 Bft)
14.04.2021 08:24 0,9 C 1,1 C 1,7 C 5,0 C 7,8 C 7,8 C 84 % 75 % 7 cb 5 cb 5 cb 1028,2 hPa 0,0 l/m 6,4 km/h (2 Bft) W-SW 247 0,000 mm 0,0 UV-I 77 W/m -1,5 C 0,9 C 9,7 km/h (2 Bft)
14.04.2021 08:23 0,9 C 1,1 C 1,7 C 5,0 C 7,8 C 7,8 C 84 % 75 % 7 cb 5 cb 5 cb 1028,2 hPa 0,0 l/m 4,8 km/h (1 Bft) SW 225 0,000 mm 0,0 UV-I 76 W/m -1,5 C 0,9 C 8,0 km/h (2 Bft)
14.04.2021 08:22 0,9 C 1,1 C 1,7 C 5,0 C 7,8 C 7,8 C 84 % 75 % 7 cb 5 cb 5 cb 1028,2 hPa 0,0 l/m 4,8 km/h (1 Bft) W-SW 247 0,000 mm 0,0 UV-I 76 W/m -1,5 C 0,9 C 6,4 km/h (2 Bft)
14.04.2021 08:21 0,9 C 1,1 C 1,7 C 5,0 C 7,8 C 7,8 C 84 % 75 % 7 cb 5 cb 5 cb 1028,1 hPa 0,0 l/m 6,4 km/h (2 Bft) W-SW 247 0,000 mm 0,0 UV-I 77 W/m -1,5 C 0,9 C 8,0 km/h (2 Bft)
14.04.2021 08:20 0,9 C 1,1 C 1,7 C 5,0 C 7,8 C 7,8 C 85 % 75 % 7 cb 5 cb 5 cb 1028,2 hPa 0,0 l/m 8,0 km/h (2 Bft) W-SW 247 0,000 mm 0,0 UV-I 81 W/m -1,3 C -0,7 C 11,3 km/h (2 Bft)
14.04.2021 08:19 0,9 C 1,1 C 1,7 C 5,0 C 7,8 C 7,8 C 85 % 75 % 7 cb 5 cb 5 cb 1028,1 hPa 0,0 l/m 4,8 km/h (1 Bft) SW 225 0,000 mm 0,0 UV-I 83 W/m -1,3 C 0,9 C 8,0 km/h (2 Bft)
14.04.2021 08:18 0,9 C 1,1 C 1,1 C 5,0 C 7,8 C 7,8 C 84 % 75 % 7 cb 5 cb 5 cb 1028,1 hPa 0,0 l/m 4,8 km/h (1 Bft) S-SW 202 0,000 mm 0,0 UV-I 84 W/m -1,5 C 0,9 C 4,8 km/h (1 Bft)
14.04.2021 08:17 0,9 C 1,1 C 1,1 C 5,0 C 7,8 C 7,8 C 84 % 75 % 7 cb 5 cb 5 cb 1028,1 hPa 0,0 l/m 6,4 km/h (2 Bft) W-SW 247 0,000 mm 0,0 UV-I 86 W/m -1,5 C 0,9 C 11,3 km/h (2 Bft)
14.04.2021 08:16 0,9 C 1,1 C 1,1 C 5,0 C 7,8 C 7,8 C 84 % 75 % 7 cb 5 cb 5 cb 1028,1 hPa 0,0 l/m 8,0 km/h (2 Bft) SW 225 0,000 mm 0,0 UV-I 86 W/m -1,5 C -0,7 C 12,9 km/h (3 Bft)
14.04.2021 08:15 0,9 C 1,1 C 1,1 C 5,0 C 7,8 C 7,8 C 85 % 75 % 7 cb 5 cb 5 cb 1028,1 hPa 0,0 l/m 9,7 km/h (2 Bft) SW 225 0,000 mm 0,0 UV-I 86 W/m -1,3 C -2,2 C 11,3 km/h (2 Bft)
14.04.2021 08:14 0,9 C 1,1 C 1,1 C 5,0 C 7,8 C 7,8 C 85 % 75 % 7 cb 5 cb 5 cb 1028,1 hPa 0,0 l/m 9,7 km/h (2 Bft) SW 225 0,000 mm 0,0 UV-I 83 W/m -1,3 C -2,2 C 12,9 km/h (3 Bft)
14.04.2021 08:13 0,9 C 1,1 C 1,1 C 5,0 C 7,8 C 7,8 C 85 % 75 % 7 cb 5 cb 5 cb 1028,2 hPa 0,0 l/m 4,8 km/h (1 Bft) S-SW 202 0,000 mm 0,0 UV-I 81 W/m -1,3 C 0,9 C 11,3 km/h (2 Bft)
14.04.2021 08:12 0,9 C 1,1 C 1,1 C 5,0 C 7,8 C 7,8 C 85 % 75 % 7 cb 5 cb 5 cb 1028,1 hPa 0,0 l/m 8,0 km/h (2 Bft) S-SW 202 0,000 mm 0,0 UV-I 79 W/m -1,3 C -0,7 C 11,3 km/h (2 Bft)
14.04.2021 08:11 0,8 C 1,1 C 1,1 C 5,0 C 7,8 C 7,8 C 85 % 75 % 7 cb 5 cb 5 cb 1028,2 hPa 0,0 l/m 3,2 km/h (1 Bft) SW 225 0,000 mm 0,0 UV-I 77 W/m -1,4 C 0,8 C 8,0 km/h (2 Bft)
14.04.2021 08:10 0,8 C 1,1 C 1,1 C 5,0 C 7,8 C 7,8 C 84 % 75 % 7 cb 5 cb 5 cb 1028,2 hPa 0,0 l/m 3,2 km/h (1 Bft) SW 225 0,000 mm 0,0 UV-I 76 W/m -1,6 C 0,8 C 4,8 km/h (1 Bft)
14.04.2021 08:09 0,8 C 1,1 C 1,1 C 5,0 C 7,8 C 7,8 C 84 % 75 % 7 cb 5 cb 5 cb 1028,1 hPa 0,0 l/m 6,4 km/h (2 Bft) W-SW 247 0,000 mm 0,0 UV-I 76 W/m -1,6 C 0,8 C 8,0 km/h (2 Bft)
14.04.2021 08:08 0,8 C 1,1 C 1,1 C 5,0 C 7,8 C 7,8 C 84 % 75 % 7 cb 5 cb 5 cb 1028,1 hPa 0,0 l/m 8,0 km/h (2 Bft) W-SW 247 0,000 mm 0,0 UV-I 76 W/m -1,6 C -0,8 C 12,9 km/h (3 Bft)
14.04.2021 08:07 0,8 C 1,1 C 1,1 C 5,0 C 7,8 C 7,8 C 85 % 75 % 7 cb 5 cb 5 cb 1028,1 hPa 0,0 l/m 8,0 km/h (2 Bft) SW 225 0,000 mm 0,0 UV-I 74 W/m -1,4 C -0,8 C 12,9 km/h (3 Bft)
14.04.2021 08:06 0,8 C 1,1 C 1,1 C 5,0 C 7,8 C 7,8 C 85 % 75 % 7 cb 5 cb 5 cb 1028,1 hPa 0,0 l/m 9,7 km/h (2 Bft) SW 225 0,000 mm 0,0 UV-I 72 W/m -1,4 C -2,3 C 12,9 km/h (3 Bft)
14.04.2021 08:05 0,8 C 1,1 C 1,1 C 5,0 C 7,8 C 7,8 C 85 % 75 % 6 cb 5 cb 5 cb 1028,1 hPa 0,0 l/m 9,7 km/h (2 Bft) SW 225 0,000 mm 0,0 UV-I 70 W/m -1,4 C -2,3 C 12,9 km/h (3 Bft)
14.04.2021 08:04 0,8 C 1,1 C 1,1 C 5,0 C 7,8 C 7,8 C 85 % 75 % 6 cb 5 cb 5 cb 1028,0 hPa 0,0 l/m 6,4 km/h (2 Bft) W-SW 247 0,000 mm 0,0 UV-I 69 W/m -1,4 C 0,8 C 9,7 km/h (2 Bft)
14.04.2021 08:03 0,8 C 1,1 C 1,1 C 5,0 C 7,8 C 7,8 C 85 % 75 % 7 cb 5 cb 5 cb 1028,0 hPa 0,0 l/m 8,0 km/h (2 Bft) SW 225 0,000 mm 0,0 UV-I 69 W/m -1,4 C -0,8 C 9,7 km/h (2 Bft)
14.04.2021 08:02 0,8 C 1,1 C 1,1 C 5,0 C 7,8 C 7,8 C 85 % 75 % 6 cb 5 cb 5 cb 1028,1 hPa 0,0 l/m 6,4 km/h (2 Bft) SW 225 0,000 mm 0,0 UV-I 67 W/m -1,4 C 0,8 C 9,7 km/h (2 Bft)
14.04.2021 08:01 0,8 C 1,1 C 1,1 C 5,0 C 7,8 C 7,8 C 85 % 75 % 6 cb 5 cb 5 cb 1028,1 hPa 0,0 l/m 6,4 km/h (2 Bft) SW 225 0,000 mm 0,0 UV-I 65 W/m -1,4 C 0,8 C 11,3 km/h (2 Bft)
14.04.2021 08:00 0,8 C 1,1 C 1,1 C 5,0 C 7,8 C 7,8 C 85 % 75 % 7 cb 5 cb 5 cb 1028,1 hPa 0,0 l/m 6,4 km/h (2 Bft) W-SW 247 0,025 mm 0,0 UV-I 65 W/m -1,4 C 0,8 C 9,7 km/h (2 Bft)
14.04.2021 07:59 0,8 C 1,1 C 1,1 C 5,0 C 7,8 C 7,8 C 85 % 75 % 7 cb 5 cb 5 cb 1028,1 hPa 0,0 l/m 3,2 km/h (1 Bft) SW 225 0,000 mm 0,0 UV-I 65 W/m -1,4 C 0,8 C 6,4 km/h (2 Bft)
14.04.2021 07:58 0,8 C 1,1 C 1,1 C 5,0 C 7,8 C 7,8 C 85 % 75 % 7 cb 5 cb 5 cb 1028,1 hPa 0,0 l/m 6,4 km/h (2 Bft) W-SW 247 0,000 mm 0,0 UV-I 63 W/m -1,4 C 0,8 C 8,0 km/h (2 Bft)
14.04.2021 07:57 0,8 C 1,1 C 1,1 C 5,0 C 7,8 C 7,8 C 85 % 75 % 7 cb 5 cb 5 cb 1028,1 hPa 0,0 l/m 8,0 km/h (2 Bft) W 270 0,000 mm 0,0 UV-I 63 W/m -1,4 C -0,8 C 9,7 km/h (2 Bft)
14.04.2021 07:56 0,8 C 1,1 C 1,1 C 5,0 C 7,8 C 7,8 C 85 % 75 % 7 cb 5 cb 5 cb 1028,1 hPa 0,0 l/m 6,4 km/h (2 Bft) W-SW 247 0,000 mm 0,0 UV-I 63 W/m -1,4 C 0,8 C 8,0 km/h (2 Bft)
14.04.2021 07:55 0,8 C 1,1 C 1,1 C 5,0 C 7,8 C 7,8 C 85 % 75 % 7 cb 5 cb 5 cb 1028,1 hPa 0,0 l/m 8,0 km/h (2 Bft) W-SW 247 0,000 mm 0,0 UV-I 63 W/m -1,4 C -0,8 C 11,3 km/h (2 Bft)
14.04.2021 07:54 0,8 C 1,1 C 1,1 C 5,0 C 7,8 C 7,8 C 85 % 75 % 7 cb 5 cb 5 cb 1028,1 hPa 0,0 l/m 6,4 km/h (2 Bft) SW 225 0,000 mm 0,0 UV-I 63 W/m -1,4 C 0,8 C 9,7 km/h (2 Bft)
14.04.2021 07:53 0,8 C 1,1 C 1,1 C 5,0 C 7,8 C 7,8 C 85 % 75 % 7 cb 5 cb 5 cb 1028,1 hPa 0,0 l/m 8,0 km/h (2 Bft) SW 225 0,000 mm 0,0 UV-I 65 W/m -1,4 C -0,8 C 11,3 km/h (2 Bft)
14.04.2021 07:52 0,8 C 1,1 C 1,1 C 5,0 C 7,8 C 7,8 C 85 % 75 % 7 cb 5 cb 5 cb 1028,1 hPa 0,0 l/m 6,4 km/h (2 Bft) W-SW 247 0,000 mm 0,0 UV-I 65 W/m -1,4 C 0,8 C 9,7 km/h (2 Bft)
14.04.2021 07:51 0,8 C 1,1 C 1,1 C 5,0 C 7,8 C 7,8 C 85 % 75 % 7 cb 5 cb 5 cb 1028,1 hPa 0,0 l/m 6,4 km/h (2 Bft) W-SW 247 0,000 mm 0,0 UV-I 63 W/m -1,4 C 0,8 C 11,3 km/h (2 Bft)
14.04.2021 07:50 0,8 C 1,1 C 1,1 C 5,0 C 7,8 C 7,8 C 85 % 75 % 7 cb 5 cb 5 cb 1028,1 hPa 0,0 l/m 6,4 km/h (2 Bft) W-SW 247 0,000 mm 0,0 UV-I 63 W/m -1,4 C 0,8 C 8,0 km/h (2 Bft)
14.04.2021 07:49 0,8 C 1,1 C 1,1 C 5,0 C 7,8 C 7,8 C 85 % 75 % 7 cb 5 cb 5 cb 1028,1 hPa 0,0 l/m 4,8 km/h (1 Bft) W-SW 247 0,000 mm 0,0 UV-I 63 W/m -1,4 C 0,8 C 8,0 km/h (2 Bft)
14.04.2021 07:48 0,8 C 1,1 C 1,1 C 5,0 C 7,8 C 7,8 C 85 % 75 % 7 cb 5 cb 5 cb 1028,1 hPa 0,0 l/m 4,8 km/h (1 Bft) W-SW 247 0,000 mm 0,0 UV-I 62 W/m -1,4 C 0,8 C 6,4 km/h (2 Bft)
14.04.2021 07:47 0,8 C 1,1 C 1,1 C 5,0 C 7,8 C 7,8 C 85 % 75 % 7 cb 5 cb 5 cb 1028,1 hPa 0,0 l/m 6,4 km/h (2 Bft) SW 225 0,000 mm 0,0 UV-I 62 W/m -1,4 C 0,8 C 8,0 km/h (2 Bft)
14.04.2021 07:46 0,8 C 1,1 C 1,1 C 5,0 C 7,8 C 7,8 C 85 % 75 % 7 cb 5 cb 5 cb 1028,2 hPa 0,0 l/m 9,7 km/h (2 Bft) W-SW 247 0,000 mm 0,0 UV-I 62 W/m -1,4 C -2,3 C 12,9 km/h (3 Bft)
14.04.2021 07:45 0,8 C 1,1 C 1,1 C 5,0 C 7,8 C 7,8 C 85 % 75 % 7 cb 5 cb 5 cb 1028,2 hPa 0,0 l/m 8,0 km/h (2 Bft) W-SW 247 0,000 mm 0,0 UV-I 60 W/m -1,4 C -0,8 C 11,3 km/h (2 Bft)
14.04.2021 07:44 0,8 C 1,1 C 1,1 C 5,0 C 7,8 C 7,8 C 84 % 75 % 7 cb 5 cb 5 cb 1028,2 hPa 0,0 l/m 6,4 km/h (2 Bft) W-SW 247 0,000 mm 0,0 UV-I 60 W/m -1,6 C 0,8 C 9,7 km/h (2 Bft)
14.04.2021 07:43 0,8 C 1,1 C 1,1 C 5,0 C 7,8 C 7,8 C 84 % 75 % 7 cb 5 cb 5 cb 1028,2 hPa 0,0 l/m 6,4 km/h (2 Bft) W-SW 247 0,000 mm 0,0 UV-I 58 W/m -1,6 C 0,8 C 9,7 km/h (2 Bft)
14.04.2021 07:42 0,8 C 1,1 C 1,1 C 5,0 C 7,8 C 7,8 C 84 % 75 % 7 cb 5 cb 5 cb 1028,1 hPa 0,0 l/m 8,0 km/h (2 Bft) W-SW 247 0,000 mm 0,0 UV-I 58 W/m -1,6 C -0,8 C 9,7 km/h (2 Bft)
14.04.2021 07:41 0,8 C 1,1 C 1,1 C 5,0 C 7,8 C 7,8 C 84 % 75 % 7 cb 5 cb 5 cb 1028,2 hPa 0,0 l/m 9,7 km/h (2 Bft) W-SW 247 0,000 mm 0,0 UV-I 56 W/m -1,6 C -2,3 C 11,3 km/h (2 Bft)
14.04.2021 07:40 0,8 C 1,1 C 1,1 C 5,0 C 7,8 C 7,8 C 84 % 75 % 7 cb 5 cb 5 cb 1028,1 hPa 0,0 l/m 8,0 km/h (2 Bft) W-SW 247 0,000 mm 0,0 UV-I 56 W/m -1,6 C -0,8 C 12,9 km/h (3 Bft)
14.04.2021 07:39 0,8 C 1,1 C 1,1 C 5,0 C 7,8 C 7,8 C 84 % 75 % 7 cb 5 cb 5 cb 1028,2 hPa 0,0 l/m 6,4 km/h (2 Bft) W-SW 247 0,000 mm 0,0 UV-I 56 W/m -1,6 C 0,8 C 9,7 km/h (2 Bft)
14.04.2021 07:38 0,8 C 1,1 C 1,1 C 5,0 C 7,8 C 7,8 C 85 % 75 % 7 cb 5 cb 5 cb 1028,2 hPa 0,0 l/m 8,0 km/h (2 Bft) W-SW 247 0,000 mm 0,0 UV-I 56 W/m -1,4 C -0,8 C 11,3 km/h (2 Bft)
14.04.2021 07:37 0,8 C 1,1 C 1,1 C 5,0 C 7,8 C 7,8 C 84 % 75 % 7 cb 5 cb 5 cb 1028,2 hPa 0,0 l/m 6,4 km/h (2 Bft) W-SW 247 0,000 mm 0,0 UV-I 56 W/m -1,6 C 0,8 C 8,0 km/h (2 Bft)
14.04.2021 07:36 0,8 C 1,1 C 1,1 C 5,0 C 7,8 C 7,8 C 84 % 75 % 7 cb 5 cb 5 cb 1028,1 hPa 0,0 l/m 8,0 km/h (2 Bft) W-SW 247 0,000 mm 0,0 UV-I 56 W/m -1,6 C -0,8 C 11,3 km/h (2 Bft)
14.04.2021 07:35 0,8 C 1,1 C 1,1 C 5,0 C 7,8 C 7,8 C 85 % 75 % 7 cb 5 cb 5 cb 1028,1 hPa 0,0 l/m 6,4 km/h (2 Bft) W-SW 247 0,000 mm 0,0 UV-I 56 W/m -1,4 C 0,8 C 8,0 km/h (2 Bft)
14.04.2021 07:34 0,8 C 1,1 C 1,1 C 5,0 C 7,8 C 7,8 C 85 % 75 % 7 cb 5 cb 5 cb 1028,1 hPa 0,0 l/m 9,7 km/h (2 Bft) W-SW 247 0,000 mm 0,0 UV-I 54 W/m -1,4 C -2,3 C 12,9 km/h (3 Bft)
14.04.2021 07:33 0,8 C 1,1 C 1,1 C 5,0 C 7,8 C 7,8 C 85 % 75 % 7 cb 5 cb 5 cb 1028,1 hPa 0,0 l/m 8,0 km/h (2 Bft) W-SW 247 0,000 mm 0,0 UV-I 53 W/m -1,4 C -0,8 C 11,3 km/h (2 Bft)
14.04.2021 07:32 0,9 C 1,1 C 1,1 C 5,0 C 7,8 C 7,8 C 85 % 75 % 7 cb 5 cb 5 cb 1028,1 hPa 0,0 l/m 4,8 km/h (1 Bft) W-SW 247 0,000 mm 0,0 UV-I 51 W/m -1,3 C 0,9 C 8,0 km/h (2 Bft)
14.04.2021 07:31 0,8 C 1,1 C 1,1 C 5,0 C 7,8 C 7,8 C 85 % 75 % 7 cb 5 cb 5 cb 1028,1 hPa 0,0 l/m 3,2 km/h (1 Bft) W-SW 247 0,000 mm 0,0 UV-I 49 W/m -1,4 C 0,8 C 4,8 km/h (1 Bft)
14.04.2021 07:30 0,8 C 1,1 C 1,1 C 5,0 C 7,8 C 7,8 C 84 % 75 % 7 cb 5 cb 5 cb 1028,1 hPa 0,0 l/m 4,8 km/h (1 Bft) W-SW 247 0,000 mm 0,0 UV-I 47 W/m -1,6 C 0,8 C 6,4 km/h (2 Bft)
14.04.2021 07:29 0,8 C 1,1 C 1,1 C 5,0 C 7,8 C 7,8 C 84 % 75 % 7 cb 5 cb 5 cb 1028,1 hPa 0,0 l/m 4,8 km/h (1 Bft) W-SW 247 0,000 mm 0,0 UV-I 47 W/m -1,6 C 0,8 C 8,0 km/h (2 Bft)
14.04.2021 07:28 0,9 C 1,1 C 1,1 C 5,0 C 7,8 C 7,8 C 84 % 75 % 7 cb 5 cb 5 cb 1028,0 hPa 0,0 l/m 6,4 km/h (2 Bft) W-SW 247 0,000 mm 0,0 UV-I 46 W/m -1,5 C 0,9 C 8,0 km/h (2 Bft)
14.04.2021 07:27 0,9 C 0,6 C 1,1 C 5,0 C 7,8 C 7,8 C 85 % 75 % 7 cb 5 cb 5 cb 1028,0 hPa 0,0 l/m 6,4 km/h (2 Bft) W-SW 247 0,000 mm 0,0 UV-I 46 W/m -1,3 C 0,9 C 8,0 km/h (2 Bft)
14.04.2021 07:26 0,9 C 0,6 C 1,1 C 5,0 C 7,8 C 7,8 C 85 % 75 % 7 cb 5 cb 5 cb 1028,1 hPa 0,0 l/m 4,8 km/h (1 Bft) SW 225 0,000 mm 0,0 UV-I 46 W/m -1,3 C 0,9 C 6,4 km/h (2 Bft)
14.04.2021 07:25 0,8 C 0,6 C 1,1 C 5,0 C 7,8 C 7,8 C 85 % 75 % 7 cb 5 cb 5 cb 1028,1 hPa 0,0 l/m 6,4 km/h (2 Bft) SW 225 0,000 mm 0,0 UV-I 46 W/m -1,4 C 0,8 C 9,7 km/h (2 Bft)
14.04.2021 07:24 0,9 C 1,1 C 1,1 C 5,0 C 7,8 C 7,8 C 85 % 75 % 7 cb 5 cb 5 cb 1028,1 hPa 0,0 l/m 6,4 km/h (2 Bft) W-SW 247 0,000 mm 0,0 UV-I 46 W/m -1,3 C 0,9 C 9,7 km/h (2 Bft)
14.04.2021 07:23 0,9 C 0,6 C 1,1 C 5,0 C 7,8 C 7,8 C 85 % 75 % 7 cb 5 cb 5 cb 1028,0 hPa 0,0 l/m 6,4 km/h (2 Bft) W-SW 247 0,000 mm 0,0 UV-I 46 W/m -1,3 C 0,9 C 8,0 km/h (2 Bft)
14.04.2021 07:22 0,9 C 0,6 C 1,1 C 5,0 C 7,8 C 7,8 C 85 % 75 % 7 cb 5 cb 5 cb 1028,0 hPa 0,0 l/m 6,4 km/h (2 Bft) W-SW 247 0,000 mm 0,0 UV-I 46 W/m -1,3 C 0,9 C 8,0 km/h (2 Bft)
14.04.2021 07:21 0,9 C 0,6 C 1,1 C 5,0 C 7,8 C 7,8 C 85 % 75 % 7 cb 5 cb 5 cb 1028,0 hPa 0,0 l/m 6,4 km/h (2 Bft) W-SW 247 0,000 mm 0,0 UV-I 46 W/m -1,3 C 0,9 C 9,7 km/h (2 Bft)
14.04.2021 07:20 0,8 C 0,6 C 1,1 C 5,0 C 7,8 C 7,8 C 85 % 75 % 7 cb 5 cb 5 cb 1028,0 hPa 0,0 l/m 4,8 km/h (1 Bft) W-SW 247 0,000 mm 0,0 UV-I 46 W/m -1,4 C 0,8 C 6,4 km/h (2 Bft)
14.04.2021 07:19 0,8 C 0,6 C 0,6 C 5,0 C 7,8 C 7,8 C 85 % 75 % 7 cb 5 cb 5 cb 1028,0 hPa 0,0 l/m 6,4 km/h (2 Bft) W-SW 247 0,000 mm 0,0 UV-I 46 W/m -1,4 C 0,8 C 8,0 km/h (2 Bft)
14.04.2021 07:18 0,8 C 0,6 C 0,6 C 5,0 C 7,8 C 7,8 C 85 % 75 % 7 cb 5 cb 5 cb 1028,0 hPa 0,0 l/m 8,0 km/h (2 Bft) SW 225 0,000 mm 0,0 UV-I 46 W/m -1,4 C -0,8 C 11,3 km/h (2 Bft)
14.04.2021 07:17 0,8 C 0,6 C 0,6 C 5,0 C 7,8 C 7,8 C 85 % 75 % 7 cb 5 cb 5 cb 1028,0 hPa 0,0 l/m 9,7 km/h (2 Bft) W-SW 247 0,000 mm 0,0 UV-I 44 W/m -1,4 C -2,3 C 11,3 km/h (2 Bft)
14.04.2021 07:16 0,8 C 0,6 C 0,6 C 5,0 C 7,8 C 7,8 C 85 % 76 % 7 cb 5 cb 5 cb 1028,0 hPa 0,0 l/m 9,7 km/h (2 Bft) SW 225 0,000 mm 0,0 UV-I 44 W/m -1,4 C -2,3 C 11,3 km/h (2 Bft)
14.04.2021 07:15 0,8 C 0,6 C 1,1 C 5,0 C 7,8 C 7,8 C 85 % 76 % 7 cb 5 cb 5 cb 1028,0 hPa 0,0 l/m 9,7 km/h (2 Bft) W-SW 247 0,000 mm 0,0 UV-I 44 W/m -1,4 C -2,3 C 14,5 km/h (3 Bft)
14.04.2021 07:14 0,8 C 0,6 C 1,1 C 5,0 C 7,8 C 7,8 C 86 % 76 % 7 cb 5 cb 5 cb 1028,0 hPa 0,0 l/m 8,0 km/h (2 Bft) SW 225 0,000 mm 0,0 UV-I 44 W/m -1,3 C -0,8 C 11,3 km/h (2 Bft)
14.04.2021 07:13 0,8 C 0,6 C 1,1 C 5,0 C 7,8 C 7,8 C 85 % 76 % 7 cb 5 cb 5 cb 1028,0 hPa 0,0 l/m 6,4 km/h (2 Bft) SW 225 0,000 mm 0,0 UV-I 44 W/m -1,4 C 0,8 C 9,7 km/h (2 Bft)
14.04.2021 07:12 0,8 C 0,6 C 1,1 C 5,0 C 7,8 C 7,8 C 85 % 76 % 7 cb 5 cb 5 cb 1028,0 hPa 0,0 l/m 3,2 km/h (1 Bft) SW 225 0,000 mm 0,0 UV-I 46 W/m -1,4 C 0,8 C 9,7 km/h (2 Bft)
14.04.2021 07:11 0,8 C 0,6 C 1,1 C 5,0 C 7,8 C 7,8 C 85 % 76 % 7 cb 5 cb 5 cb 1028,0 hPa 0,0 l/m 0,0 km/h (0 Bft) N 0 0,000 mm 0,0 UV-I 47 W/m -1,4 C 0,8 C 0,0 km/h (0 Bft)
14.04.2021 07:10 0,8 C 0,6 C 1,1 C 5,0 C 7,8 C 7,8 C 85 % 76 % 7 cb 5 cb 5 cb 1028,0 hPa 0,0 l/m 3,2 km/h (1 Bft) W-SW 247 0,000 mm 0,0 UV-I 47 W/m -1,4 C 0,8 C 6,4 km/h (2 Bft)
14.04.2021 07:09 0,8 C 0,6 C 0,6 C 5,0 C 7,8 C 7,8 C 85 % 76 % 7 cb 5 cb 5 cb 1028,0 hPa 0,0 l/m 4,8 km/h (1 Bft) W-SW 247 0,000 mm 0,0 UV-I 47 W/m -1,4 C 0,8 C 6,4 km/h (2 Bft)
14.04.2021 07:08 0,8 C 0,6 C 0,6 C 5,0 C 7,8 C 7,8 C 85 % 76 % 7 cb 5 cb 5 cb 1028,0 hPa 0,0 l/m 1,6 km/h (1 Bft) W-SW 247 0,000 mm 0,0 UV-I 47 W/m -1,4 C 0,8 C 6,4 km/h (2 Bft)
14.04.2021 07:07 0,8 C 0,6 C 0,6 C 5,0 C 7,8 C 7,8 C 85 % 76 % 7 cb 5 cb 5 cb 1028,0 hPa 0,0 l/m 0,0 km/h (0 Bft) W-SW 247 0,000 mm 0,0 UV-I 46 W/m -1,4 C 0,8 C 1,6 km/h (1 Bft)
14.04.2021 07:06 0,8 C 0,6 C 0,6 C 5,0 C 7,8 C 7,8 C 85 % 76 % 7 cb 5 cb 5 cb 1028,0 hPa 0,0 l/m 0,0 km/h (0 Bft) N 0 0,000 mm 0,0 UV-I 44 W/m -1,4 C 0,8 C 0,0 km/h (0 Bft)
14.04.2021 07:05 0,8 C 0,6 C 0,6 C 5,0 C 7,8 C 7,8 C 85 % 76 % 7 cb 5 cb 5 cb 1028,0 hPa 0,0 l/m 0,0 km/h (0 Bft) N 0 0,000 mm 0,0 UV-I 44 W/m -1,4 C 0,8 C 0,0 km/h (0 Bft)
14.04.2021 07:04 0,8 C 0,6 C 0,6 C 5,0 C 7,8 C 7,8 C 85 % 76 % 7 cb 5 cb 5 cb 1028,0 hPa 0,0 l/m 0,0 km/h (0 Bft) N 0 0,000 mm 0,0 UV-I 39 W/m -1,4 C 0,8 C 0,0 km/h (0 Bft)
14.04.2021 07:03 0,8 C 0,6 C 0,6 C 5,0 C 7,8 C 7,8 C 85 % 76 % 7 cb 5 cb 5 cb 1028,0 hPa 0,0 l/m 0,0 km/h (0 Bft) N 0 0,000 mm 0,0 UV-I 39 W/m -1,4 C 0,8 C 0,0 km/h (0 Bft)
14.04.2021 07:02 0,8 C 0,6 C 0,6 C 5,0 C 7,8 C 7,8 C 85 % 76 % 7 cb 5 cb 5 cb 1028,0 hPa 0,0 l/m 0,0 km/h (0 Bft) N 0 0,000 mm 0,0 UV-I 35 W/m -1,4 C 0,8 C 0,0 km/h (0 Bft)
14.04.2021 07:01 0,8 C 0,6 C 0,6 C 5,0 C 7,8 C 7,8 C 85 % 76 % 7 cb 5 cb 5 cb 1028,0 hPa 0,0 l/m 0,0 km/h (0 Bft) N 0 0,000 mm 0,0 UV-I 33 W/m -1,4 C 0,8 C 0,0 km/h (0 Bft)
14.04.2021 07:00 0,8 C 0,6 C 0,6 C 5,0 C 7,8 C 7,8 C 85 % 76 % 7 cb 5 cb 5 cb 1028,0 hPa 0,0 l/m 0,0 km/h (0 Bft) N 0 0,000 mm 0,0 UV-I 33 W/m -1,4 C 0,8 C 0,0 km/h (0 Bft)
14.04.2021 06:59 0,8 C 0,6 C 0,6 C 5,0 C 7,8 C 7,8 C 85 % 76 % 7 cb 5 cb 5 cb 1028,0 hPa 0,0 l/m 0,0 km/h (0 Bft) SW 225 0,000 mm 0,0 UV-I 32 W/m -1,4 C 0,8 C 3,2 km/h (1 Bft)
14.04.2021 06:58 0,8 C 0,6 C 0,6 C 5,0 C 7,8 C 7,8 C 85 % 76 % 7 cb 5 cb 5 cb 1028,0 hPa 0,0 l/m 1,6 km/h (1 Bft) SW 225 0,000 mm 0,0 UV-I 32 W/m -1,4 C 0,8 C 4,8 km/h (1 Bft)
14.04.2021 06:57 0,8 C 0,6 C 0,6 C 5,0 C 7,8 C 7,8 C 85 % 76 % 7 cb 5 cb 5 cb 1028,0 hPa 0,0 l/m 0,0 km/h (0 Bft) N 0 0,000 mm 0,0 UV-I 32 W/m -1,4 C 0,8 C 0,0 km/h (0 Bft)
14.04.2021 06:56 0,8 C 0,6 C 0,6 C 5,0 C 7,8 C 7,8 C 85 % 76 % 7 cb 5 cb 5 cb 1028,0 hPa 0,0 l/m 0,0 km/h (0 Bft) N 0 0,000 mm 0,0 UV-I 32 W/m -1,4 C 0,8 C 0,0 km/h (0 Bft)
14.04.2021 06:55 0,8 C 0,6 C 0,6 C 5,0 C 7,8 C 7,8 C 85 % 76 % 7 cb 5 cb 5 cb 1027,9 hPa 0,0 l/m 0,0 km/h (0 Bft) N 0 0,000 mm 0,0 UV-I 33 W/m -1,4 C 0,8 C 0,0 km/h (0 Bft)
14.04.2021 06:54 0,8 C 0,6 C 0,6 C 5,0 C 7,8 C 7,8 C 85 % 76 % 7 cb 5 cb 5 cb 1027,9 hPa 0,0 l/m 0,0 km/h (0 Bft) N 0 0,000 mm 0,0 UV-I 33 W/m -1,4 C 0,8 C 0,0 km/h (0 Bft)
14.04.2021 06:53 0,8 C 0,6 C 0,6 C 5,0 C 7,8 C 7,8 C 85 % 76 % 7 cb 5 cb 5 cb 1027,9 hPa 0,0 l/m 0,0 km/h (0 Bft) N 0 0,000 mm 0,0 UV-I 33 W/m -1,4 C 0,8 C 0,0 km/h (0 Bft)
14.04.2021 06:52 0,8 C 0,6 C 0,6 C 5,0 C 7,8 C 7,8 C 85 % 76 % 7 cb 5 cb 5 cb 1027,9 hPa 0,0 l/m 0,0 km/h (0 Bft) N 0 0,000 mm 0,0 UV-I 32 W/m -1,4 C 0,8 C 0,0 km/h (0 Bft)
14.04.2021 06:51 0,7 C 0,6 C 0,6 C 5,0 C 7,8 C 7,8 C 85 % 76 % 7 cb 5 cb 5 cb 1027,9 hPa 0,0 l/m 0,0 km/h (0 Bft) N 0 0,000 mm 0,0 UV-I 30 W/m -1,5 C 0,7 C 0,0 km/h (0 Bft)
14.04.2021 06:50 0,7 C 0,6 C 0,6 C 5,0 C 7,8 C 7,8 C 85 % 76 % 7 cb 5 cb 5 cb 1027,9 hPa 0,0 l/m 0,0 km/h (0 Bft) S-SW 202 0,000 mm 0,0 UV-I 28 W/m -1,5 C 0,7 C 1,6 km/h (1 Bft)
14.04.2021 06:49 0,7 C 0,6 C 0,6 C 5,0 C 7,8 C 7,8 C 86 % 76 % 7 cb 5 cb 5 cb 1027,9 hPa 0,0 l/m 0,0 km/h (0 Bft) N 0 0,000 mm 0,0 UV-I 26 W/m -1,4 C 0,7 C 0,0 km/h (0 Bft)
14.04.2021 06:48 0,7 C 0,6 C 0,6 C 5,0 C 7,8 C 7,8 C 85 % 76 % 7 cb 5 cb 5 cb 1027,8 hPa 0,0 l/m 0,0 km/h (0 Bft) N 0 0,000 mm 0,0 UV-I 25 W/m -1,5 C 0,7 C 0,0 km/h (0 Bft)
14.04.2021 06:47 0,7 C 0,6 C 0,6 C 5,0 C 7,8 C 7,8 C 86 % 76 % 7 cb 5 cb 5 cb 1027,9 hPa 0,0 l/m 4,8 km/h (1 Bft) SW 225 0,000 mm 0,0 UV-I 23 W/m -1,4 C 0,7 C 8,0 km/h (2 Bft)
14.04.2021 06:46 0,7 C 0,6 C 0,6 C 5,0 C 7,8 C 7,8 C 86 % 76 % 7 cb 5 cb 5 cb 1027,8 hPa 0,0 l/m 6,4 km/h (2 Bft) SW 225 0,000 mm 0,0 UV-I 21 W/m -1,4 C 0,7 C 8,0 km/h (2 Bft)
14.04.2021 06:45 0,7 C 0,6 C 0,6 C 5,0 C 7,8 C 7,8 C 86 % 76 % 7 cb 5 cb 5 cb 1027,8 hPa 0,0 l/m 6,4 km/h (2 Bft) W-SW 247 0,000 mm 0,0 UV-I 21 W/m -1,4 C 0,7 C 8,0 km/h (2 Bft)
14.04.2021 06:44 0,7 C 0,6 C 0,6 C 5,0 C 7,8 C 7,8 C 86 % 76 % 7 cb 5 cb 5 cb 1027,9 hPa 0,0 l/m 4,8 km/h (1 Bft) W-SW 247 0,000 mm 0,0 UV-I 19 W/m -1,4 C 0,7 C 6,4 km/h (2 Bft)
14.04.2021 06:43 0,7 C 0,6 C 0,6 C 5,0 C 7,8 C 7,8 C 86 % 76 % 7 cb 5 cb 5 cb 1027,8 hPa 0,0 l/m 6,4 km/h (2 Bft) W-SW 247 0,000 mm 0,0 UV-I 18 W/m -1,4 C 0,7 C 8,0 km/h (2 Bft)
14.04.2021 06:42 0,7 C 0,6 C 0,6 C 5,0 C 7,8 C 7,8 C 86 % 76 % 7 cb 5 cb 5 cb 1027,9 hPa 0,0 l/m 3,2 km/h (1 Bft) SW 225 0,000 mm 0,0 UV-I 18 W/m -1,4 C 0,7 C 6,4 km/h (2 Bft)
14.04.2021 06:41 0,7 C 0,6 C 0,6 C 5,0 C 7,8 C 7,8 C 86 % 76 % 7 cb 5 cb 5 cb 1027,8 hPa 0,0 l/m 6,4 km/h (2 Bft) SW 225 0,000 mm 0,0 UV-I 16 W/m -1,4 C 0,7 C 8,0 km/h (2 Bft)
14.04.2021 06:40 0,7 C 0,6 C 0,0 C 5,0 C 7,8 C 7,8 C 86 % 76 % 7 cb 5 cb 5 cb 1027,9 hPa 0,0 l/m 4,8 km/h (1 Bft) SW 225 0,000 mm 0,0 UV-I 14 W/m -1,4 C 0,7 C 6,4 km/h (2 Bft)
14.04.2021 06:39 0,7 C 0,6 C 0,0 C 5,0 C 7,8 C 7,8 C 86 % 76 % 7 cb 5 cb 5 cb 1027,8 hPa 0,0 l/m 4,8 km/h (1 Bft) SW 225 0,000 mm 0,0 UV-I 14 W/m -1,4 C 0,7 C 8,0 km/h (2 Bft)
14.04.2021 06:38 0,7 C 0,6 C 0,0 C 5,0 C 7,8 C 7,8 C 86 % 76 % 7 cb 5 cb 5 cb 1027,8 hPa 0,0 l/m 0,0 km/h (0 Bft) N 0 0,000 mm 0,0 UV-I 12 W/m -1,4 C 0,7 C 0,0 km/h (0 Bft)
14.04.2021 06:37 0,7 C 0,6 C 0,0 C 5,0 C 7,8 C 7,8 C 86 % 76 % 7 cb 5 cb 5 cb 1027,8 hPa 0,0 l/m 0,0 km/h (0 Bft) N 0 0,000 mm 0,0 UV-I 11 W/m -1,4 C 0,7 C 0,0 km/h (0 Bft)
14.04.2021 06:36 0,7 C 0,6 C 0,0 C 5,0 C 7,8 C 7,8 C 86 % 76 % 7 cb 5 cb 5 cb 1027,8 hPa 0,0 l/m 0,0 km/h (0 Bft) N 0 0,000 mm 0,0 UV-I 11 W/m -1,4 C 0,7 C 0,0 km/h (0 Bft)
14.04.2021 06:35 0,7 C 1,1 C 0,0 C 5,0 C 7,8 C 7,8 C 86 % 76 % 7 cb 5 cb 5 cb 1027,8 hPa 0,0 l/m 0,0 km/h (0 Bft) N 0 0,000 mm 0,0 UV-I 9 W/m -1,4 C 0,7 C 0,0 km/h (0 Bft)
14.04.2021 06:34 0,7 C 1,1 C 0,0 C 5,0 C 7,8 C 7,8 C 86 % 76 % 7 cb 5 cb 5 cb 1027,8 hPa 0,0 l/m 0,0 km/h (0 Bft) N 0 0,000 mm 0,0 UV-I 7 W/m -1,4 C 0,7 C 0,0 km/h (0 Bft)
14.04.2021 06:33 0,8 C 1,1 C 0,0 C 5,0 C 7,8 C 7,8 C 86 % 76 % 7 cb 5 cb 5 cb 1027,8 hPa 0,0 l/m 1,6 km/h (1 Bft) SW 225 0,000 mm 0,0 UV-I 7 W/m -1,3 C 0,8 C 4,8 km/h (1 Bft)
14.04.2021 06:32 0,8 C 1,1 C 0,0 C 5,0 C 7,8 C 7,8 C 86 % 76 % 7 cb 5 cb 5 cb 1027,8 hPa 0,0 l/m 6,4 km/h (2 Bft) W-SW 247 0,000 mm 0,0 UV-I 7 W/m -1,3 C 0,8 C 8,0 km/h (2 Bft)
14.04.2021 06:31 0,8 C 0,6 C 0,0 C 5,0 C 7,8 C 7,8 C 86 % 76 % 7 cb 5 cb 5 cb 1027,9 hPa 0,0 l/m 6,4 km/h (2 Bft) W 270 0,000 mm 0,0 UV-I 5 W/m -1,3 C 0,8 C 9,7 km/h (2 Bft)
14.04.2021 06:30 0,8 C 1,1 C 0,0 C 5,0 C 7,8 C 7,8 C 86 % 76 % 7 cb 5 cb 5 cb 1027,8 hPa 0,0 l/m 0,0 km/h (0 Bft) SW 225 0,000 mm 0,0 UV-I 5 W/m -1,3 C 0,8 C 6,4 km/h (2 Bft)
14.04.2021 06:29 0,8 C 0,6 C 0,0 C 5,0 C 7,8 C 7,8 C 86 % 76 % 7 cb 5 cb 5 cb 1027,8 hPa 0,0 l/m 0,0 km/h (0 Bft) N 0 0,000 mm 0,0 UV-I 5 W/m -1,3 C 0,8 C 0,0 km/h (0 Bft)
14.04.2021 06:28 0,8 C 1,1 C 0,0 C 5,0 C 7,8 C 7,8 C 86 % 76 % 7 cb 5 cb 5 cb 1027,8 hPa 0,0 l/m 0,0 km/h (0 Bft) N 0 0,000 mm 0,0 UV-I 0 W/m -1,3 C 0,8 C 0,0 km/h (0 Bft)
14.04.2021 06:27 0,8 C 1,1 C 0,0 C 5,0 C 7,8 C 7,8 C 86 % 76 % 7 cb 5 cb 5 cb 1027,8 hPa 0,0 l/m 0,0 km/h (0 Bft) N 0 0,000 mm 0,0 UV-I 0 W/m -1,3 C 0,8 C 0,0 km/h (0 Bft)
14.04.2021 06:26 0,8 C 1,1 C 0,0 C 5,0 C 7,8 C 7,8 C 86 % 76 % 7 cb 5 cb 5 cb 1027,8 hPa 0,0 l/m 0,0 km/h (0 Bft) N 0 0,000 mm 0,0 UV-I 0 W/m -1,3 C 0,8 C 0,0 km/h (0 Bft)
14.04.2021 06:25 0,8 C 1,1 C 0,6 C 5,0 C 7,8 C 7,8 C 86 % 76 % 7 cb 5 cb 5 cb 1027,9 hPa 0,0 l/m 0,0 km/h (0 Bft) N 0 0,000 mm 0,0 UV-I 0 W/m -1,3 C 0,8 C 0,0 km/h (0 Bft)
14.04.2021 06:24 0,8 C 1,1 C 0,6 C 5,0 C 7,8 C 7,8 C 86 % 76 % 7 cb 5 cb 5 cb 1027,8 hPa 0,0 l/m 0,0 km/h (0 Bft) N 0 0,000 mm 0,0 UV-I 0 W/m -1,3 C 0,8 C 0,0 km/h (0 Bft)
14.04.2021 06:23 0,8 C 1,1 C 0,6 C 5,0 C 7,8 C 7,8 C 86 % 76 % 7 cb 5 cb 5 cb 1027,8 hPa 0,0 l/m 0,0 km/h (0 Bft) N 0 0,000 mm 0,0 UV-I 0 W/m -1,3 C 0,8 C 0,0 km/h (0 Bft)
14.04.2021 06:22 0,8 C 1,1 C 0,0 C 5,0 C 7,8 C 7,8 C 86 % 76 % 7 cb 5 cb 5 cb 1027,8 hPa 0,0 l/m 0,0 km/h (0 Bft) N 0 0,000 mm 0,0 UV-I 0 W/m -1,3 C 0,8 C 0,0 km/h (0 Bft)
14.04.2021 06:21 0,8 C 1,1 C 0,0 C 5,0 C 7,8 C 7,8 C 86 % 76 % 7 cb 5 cb 5 cb 1027,8 hPa 0,0 l/m 0,0 km/h (0 Bft) N 0 0,000 mm 0,0 UV-I 0 W/m -1,3 C 0,8 C 0,0 km/h (0 Bft)
14.04.2021 06:20 0,8 C 1,1 C 0,0 C 5,0 C 7,8 C 7,8 C 86 % 76 % 7 cb 5 cb 5 cb 1027,8 hPa 0,0 l/m 0,0 km/h (0 Bft) N 0 0,000 mm 0,0 UV-I 0 W/m -1,3 C 0,8 C 0,0 km/h (0 Bft)
14.04.2021 06:19 0,8 C 1,1 C 0,0 C 5,0 C 7,8 C 7,8 C 86 % 76 % 7 cb 5 cb 5 cb 1027,8 hPa 0,0 l/m 0,0 km/h (0 Bft) N 0 0,000 mm 0,0 UV-I 0 W/m -1,3 C 0,8 C 0,0 km/h (0 Bft)
14.04.2021 06:18 0,8 C 1,1 C 0,6 C 5,0 C 7,8 C 7,8 C 86 % 76 % 7 cb 5 cb 5 cb 1027,9 hPa 0,0 l/m 0,0 km/h (0 Bft) N 0 0,000 mm 0,0 UV-I 0 W/m -1,3 C 0,8 C 0,0 km/h (0 Bft)
14.04.2021 06:17 0,8 C 1,1 C 0,6 C 5,0 C 7,8 C 7,8 C 86 % 76 % 7 cb 5 cb 5 cb 1027,8 hPa 0,0 l/m 0,0 km/h (0 Bft) N 0 0,000 mm 0,0 UV-I 0 W/m -1,3 C 0,8 C 0,0 km/h (0 Bft)
14.04.2021 06:16 0,8 C 1,1 C 0,6 C 5,0 C 7,8 C 7,8 C 86 % 76 % 7 cb 5 cb 5 cb 1027,8 hPa 0,0 l/m 0,0 km/h (0 Bft) N 0 0,000 mm 0,0 UV-I 0 W/m -1,3 C 0,8 C 0,0 km/h (0 Bft)
14.04.2021 06:15 0,8 C 1,1 C 0,0 C 5,0 C 7,8 C 7,8 C 86 % 76 % 7 cb 5 cb 5 cb 1027,8 hPa 0,0 l/m 0,0 km/h (0 Bft) N 0 0,000 mm 0,0 UV-I 0 W/m -1,3 C 0,8 C 0,0 km/h (0 Bft)
14.04.2021 06:14 0,8 C 1,1 C 0,0 C 5,0 C 7,8 C 7,8 C 86 % 76 % 7 cb 5 cb 5 cb 1027,8 hPa 0,0 l/m 6,4 km/h (2 Bft) SW 225 0,000 mm 0,0 UV-I 0 W/m -1,3 C 0,8 C 8,0 km/h (2 Bft)
14.04.2021 06:13 0,8 C 1,1 C 0,0 C 5,0 C 7,8 C 7,8 C 86 % 76 % 7 cb 5 cb 5 cb 1027,8 hPa 0,0 l/m 4,8 km/h (1 Bft) SW 225 0,000 mm 0,0 UV-I 0 W/m -1,3 C 0,8 C 6,4 km/h (2 Bft)
14.04.2021 06:12 0,8 C 1,1 C 0,0 C 5,0 C 7,8 C 7,8 C 86 % 76 % 7 cb 5 cb 5 cb 1027,8 hPa 0,0 l/m 4,8 km/h (1 Bft) SW 225 0,000 mm 0,0 UV-I 0 W/m -1,3 C 0,8 C 6,4 km/h (2 Bft)
14.04.2021 06:11 0,8 C 1,1 C 0,0 C 5,0 C 7,8 C 7,8 C 86 % 76 % 7 cb 5 cb 5 cb 1027,8 hPa 0,0 l/m 4,8 km/h (1 Bft) SW 225 0,000 mm 0,0 UV-I 0 W/m -1,3 C 0,8 C 8,0 km/h (2 Bft)
14.04.2021 06:10 0,8 C 1,1 C 0,0 C 5,0 C 7,8 C 7,8 C 86 % 76 % 7 cb 5 cb 5 cb 1027,8 hPa 0,0 l/m 6,4 km/h (2 Bft) SW 225 0,000 mm 0,0 UV-I 0 W/m -1,3 C 0,8 C 6,4 km/h (2 Bft)
14.04.2021 06:09 0,8 C 1,1 C 0,0 C 5,0 C 7,8 C 7,8 C 86 % 76 % 7 cb 5 cb 5 cb 1027,8 hPa 0,0 l/m 8,0 km/h (2 Bft) W-SW 247 0,000 mm 0,0 UV-I 0 W/m -1,3 C -0,8 C 11,3 km/h (2 Bft)
14.04.2021 06:08 0,8 C 1,1 C 0,0 C 5,0 C 7,8 C 7,8 C 86 % 76 % 7 cb 5 cb 5 cb 1027,7 hPa 0,0 l/m 3,2 km/h (1 Bft) SW 225 0,000 mm 0,0 UV-I 0 W/m -1,3 C 0,8 C 4,8 km/h (1 Bft)
14.04.2021 06:07 0,8 C 1,1 C 0,0 C 5,0 C 7,8 C 7,8 C 86 % 76 % 7 cb 5 cb 5 cb 1027,7 hPa 0,0 l/m 3,2 km/h (1 Bft) SW 225 0,000 mm 0,0 UV-I 0 W/m -1,3 C 0,8 C 6,4 km/h (2 Bft)
14.04.2021 06:06 0,8 C 1,1 C 0,0 C 5,0 C 7,8 C 7,8 C 86 % 76 % 7 cb 5 cb 5 cb 1027,8 hPa 0,0 l/m 6,4 km/h (2 Bft) SW 225 0,000 mm 0,0 UV-I 0 W/m -1,3 C 0,8 C 9,7 km/h (2 Bft)
14.04.2021 06:05 0,8 C 1,1 C 0,0 C 5,0 C 7,8 C 7,8 C 86 % 76 % 7 cb 5 cb 5 cb 1027,8 hPa 0,0 l/m 8,0 km/h (2 Bft) SW 225 0,000 mm 0,0 UV-I 0 W/m -1,3 C -0,8 C 9,7 km/h (2 Bft)
14.04.2021 06:04 0,8 C 1,1 C 0,0 C 5,0 C 7,8 C 7,8 C 87 % 76 % 7 cb 5 cb 5 cb 1027,8 hPa 0,0 l/m 3,2 km/h (1 Bft) W-SW 247 0,000 mm 0,0 UV-I 0 W/m -1,1 C 0,8 C 6,4 km/h (2 Bft)
14.04.2021 06:03 0,8 C 1,1 C 0,0 C 5,0 C 7,8 C 7,8 C 86 % 76 % 7 cb 5 cb 5 cb 1027,7 hPa 0,0 l/m 4,8 km/h (1 Bft) W-SW 247 0,000 mm 0,0 UV-I 0 W/m -1,3 C 0,8 C 8,0 km/h (2 Bft)
14.04.2021 06:02 0,8 C 1,1 C 0,0 C 5,0 C 7,8 C 7,8 C 86 % 76 % 7 cb 5 cb 5 cb 1027,8 hPa 0,0 l/m 8,0 km/h (2 Bft) SW 225 0,000 mm 0,0 UV-I 0 W/m -1,3 C -0,8 C 9,7 km/h (2 Bft)
14.04.2021 06:01 0,8 C 1,1 C 0,0 C 5,0 C 7,8 C 7,8 C 86 % 76 % 7 cb 5 cb 5 cb 1027,7 hPa 0,0 l/m 4,8 km/h (1 Bft) S-SW 202 0,000 mm 0,0 UV-I 0 W/m -1,3 C 0,8 C 8,0 km/h (2 Bft)
14.04.2021 06:00 0,8 C 1,1 C 0,0 C 5,0 C 7,8 C 7,8 C 86 % 76 % 7 cb 5 cb 5 cb 1027,7 hPa 0,0 l/m 4,8 km/h (1 Bft) SW 225 0,000 mm 0,0 UV-I 0 W/m -1,3 C 0,8 C 8,0 km/h (2 Bft)
14.04.2021 05:59 0,7 C 1,1 C 0,0 C 5,0 C 7,8 C 7,8 C 86 % 76 % 7 cb 5 cb 5 cb 1027,7 hPa 0,0 l/m 6,4 km/h (2 Bft) SW 225 0,000 mm 0,0 UV-I 0 W/m -1,4 C 0,7 C 9,7 km/h (2 Bft)
14.04.2021 05:58 0,8 C 1,1 C 0,0 C 5,0 C 7,8 C 7,8 C 86 % 76 % 7 cb 5 cb 5 cb 1027,8 hPa 0,0 l/m 6,4 km/h (2 Bft) W-SW 247 0,000 mm 0,0 UV-I 0 W/m -1,3 C 0,8 C 11,3 km/h (2 Bft)
14.04.2021 05:57 0,8 C 1,1 C 0,0 C 5,0 C 7,8 C 7,8 C 86 % 76 % 7 cb 5 cb 5 cb 1027,7 hPa 0,0 l/m 4,8 km/h (1 Bft) W-SW 247 0,000 mm 0,0 UV-I 0 W/m -1,3 C 0,8 C 8,0 km/h (2 Bft)
14.04.2021 05:56 0,8 C 1,1 C 0,0 C 5,0 C 7,8 C 7,8 C 86 % 76 % 7 cb 5 cb 5 cb 1027,8 hPa 0,0 l/m 8,0 km/h (2 Bft) W-SW 247 0,000 mm 0,0 UV-I 0 W/m -1,3 C -0,8 C 9,7 km/h (2 Bft)
14.04.2021 05:55 0,8 C 1,1 C 0,0 C 5,0 C 7,8 C 7,8 C 87 % 76 % 7 cb 5 cb 5 cb 1027,8 hPa 0,0 l/m 8,0 km/h (2 Bft) W-SW 247 0,000 mm 0,0 UV-I 0 W/m -1,1 C -0,8 C 12,9 km/h (3 Bft)
14.04.2021 05:54 0,8 C 1,1 C 0,0 C 5,0 C 7,8 C 7,8 C 87 % 76 % 7 cb 5 cb 5 cb 1027,8 hPa 0,0 l/m 8,0 km/h (2 Bft) SW 225 0,000 mm 0,0 UV-I 0 W/m -1,1 C -0,8 C 12,9 km/h (3 Bft)
14.04.2021 05:53 0,8 C 1,1 C 0,0 C 5,0 C 7,8 C 7,8 C 87 % 76 % 7 cb 5 cb 5 cb 1027,7 hPa 0,0 l/m 4,8 km/h (1 Bft) W-SW 247 0,000 mm 0,0 UV-I 0 W/m -1,1 C 0,8 C 8,0 km/h (2 Bft)
14.04.2021 05:52 0,8 C 1,1 C 0,0 C 5,0 C 7,8 C 7,8 C 87 % 76 % 7 cb 5 cb 5 cb 1027,8 hPa 0,0 l/m 6,4 km/h (2 Bft) W-SW 247 0,000 mm 0,0 UV-I 0 W/m -1,1 C 0,8 C 8,0 km/h (2 Bft)
14.04.2021 05:51 0,8 C 1,1 C 0,0 C 5,0 C 7,8 C 7,8 C 87 % 76 % 7 cb 5 cb 5 cb 1027,8 hPa 0,0 l/m 6,4 km/h (2 Bft) SW 225 0,000 mm 0,0 UV-I 0 W/m -1,1 C 0,8 C 8,0 km/h (2 Bft)
14.04.2021 05:50 0,8 C 1,1 C 0,0 C 5,0 C 7,8 C 7,8 C 87 % 76 % 7 cb 5 cb 5 cb 1027,7 hPa 0,0 l/m 6,4 km/h (2 Bft) SW 225 0,000 mm 0,0 UV-I 0 W/m -1,1 C 0,8 C 9,7 km/h (2 Bft)
14.04.2021 05:49 0,8 C 1,1 C 0,0 C 5,0 C 7,8 C 7,8 C 87 % 76 % 7 cb 5 cb 5 cb 1027,8 hPa 0,0 l/m 8,0 km/h (2 Bft) W-SW 247 0,000 mm 0,0 UV-I 0 W/m -1,1 C -0,8 C 11,3 km/h (2 Bft)
14.04.2021 05:48 0,8 C 1,1 C 0,0 C 5,0 C 7,8 C 7,8 C 87 % 76 % 7 cb 5 cb 5 cb 1027,8 hPa 0,0 l/m 6,4 km/h (2 Bft) SW 225 0,000 mm 0,0 UV-I 0 W/m -1,1 C 0,8 C 9,7 km/h (2 Bft)
14.04.2021 05:47 0,8 C 1,1 C 0,0 C 5,0 C 7,8 C 7,8 C 87 % 76 % 7 cb 5 cb 5 cb 1027,8 hPa 0,0 l/m 8,0 km/h (2 Bft) SW 225 0,000 mm 0,0 UV-I 0 W/m -1,1 C -0,8 C 9,7 km/h (2 Bft)
14.04.2021 05:46 0,8 C 1,1 C 0,0 C 5,0 C 7,8 C 7,8 C 87 % 76 % 7 cb 5 cb 5 cb 1027,8 hPa 0,0 l/m 8,0 km/h (2 Bft) SW 225 0,000 mm 0,0 UV-I 0 W/m -1,1 C -0,8 C 12,9 km/h (3 Bft)
14.04.2021 05:45 0,8 C 1,1 C 0,0 C 5,0 C 7,8 C 7,8 C 87 % 76 % 7 cb 5 cb 5 cb 1027,8 hPa 0,0 l/m 8,0 km/h (2 Bft) SW 225 0,000 mm 0,0 UV-I 0 W/m -1,1 C -0,8 C 11,3 km/h (2 Bft)
14.04.2021 05:44 0,8 C 1,1 C 0,0 C 5,0 C 7,8 C 7,8 C 87 % 76 % 7 cb 5 cb 5 cb 1027,8 hPa 0,0 l/m 8,0 km/h (2 Bft) SW 225 0,000 mm 0,0 UV-I 0 W/m -1,1 C -0,8 C 9,7 km/h (2 Bft)
14.04.2021 05:43 0,8 C 1,1 C 0,0 C 5,0 C 7,8 C 7,8 C 87 % 77 % 7 cb 5 cb 5 cb 1027,8 hPa 0,0 l/m 9,7 km/h (2 Bft) SW 225 0,000 mm 0,0 UV-I 0 W/m -1,1 C -2,3 C 12,9 km/h (3 Bft)
14.04.2021 05:42 0,8 C 1,1 C 0,0 C 5,0 C 7,8 C 7,8 C 87 % 76 % 7 cb 5 cb 5 cb 1027,8 hPa 0,0 l/m 9,7 km/h (2 Bft) SW 225 0,000 mm 0,0 UV-I 0 W/m -1,1 C -2,3 C 12,9 km/h (3 Bft)
14.04.2021 05:41 0,8 C 1,1 C 0,0 C 5,0 C 7,8 C 7,8 C 87 % 77 % 7 cb 5 cb 5 cb 1027,8 hPa 0,0 l/m 8,0 km/h (2 Bft) SW 225 0,000 mm 0,0 UV-I 0 W/m -1,1 C -0,8 C 11,3 km/h (2 Bft)
14.04.2021 05:40 0,8 C 1,1 C 0,0 C 5,0 C 7,8 C 7,8 C 87 % 77 % 7 cb 5 cb 5 cb 1027,9 hPa 0,0 l/m 6,4 km/h (2 Bft) SW 225 0,000 mm 0,0 UV-I 0 W/m -1,1 C 0,8 C 8,0 km/h (2 Bft)
14.04.2021 05:39 0,8 C 1,1 C 0,0 C 5,0 C 7,8 C 7,8 C 87 % 77 % 7 cb 5 cb 5 cb 1027,8 hPa 0,0 l/m 8,0 km/h (2 Bft) SW 225 0,000 mm 0,0 UV-I 0 W/m -1,1 C -0,8 C 9,7 km/h (2 Bft)
14.04.2021 05:38 0,8 C 1,1 C 0,0 C 5,0 C 7,8 C 7,8 C 87 % 77 % 7 cb 5 cb 5 cb 1027,9 hPa 0,0 l/m 6,4 km/h (2 Bft) SW 225 0,000 mm 0,0 UV-I 0 W/m -1,1 C 0,8 C 8,0 km/h (2 Bft)
14.04.2021 05:37 0,8 C 1,1 C 0,0 C 5,0 C 7,8 C 7,8 C 87 % 77 % 7 cb 5 cb 5 cb 1027,9 hPa 0,0 l/m 6,4 km/h (2 Bft) SW 225 0,000 mm 0,0 UV-I 0 W/m -1,1 C 0,8 C 9,7 km/h (2 Bft)
14.04.2021 05:36 0,8 C 1,1 C 0,0 C 5,0 C 7,8 C 7,8 C 87 % 77 % 7 cb 5 cb 5 cb 1027,9 hPa 0,0 l/m 6,4 km/h (2 Bft) SW 225 0,000 mm 0,0 UV-I 0 W/m -1,1 C 0,8 C 9,7 km/h (2 Bft)
14.04.2021 05:35 0,9 C 1,1 C 0,0 C 5,0 C 7,8 C 7,8 C 87 % 77 % 7 cb 5 cb 5 cb 1027,9 hPa 0,0 l/m 8,0 km/h (2 Bft) W-SW 247 0,000 mm 0,0 UV-I 0 W/m -1,0 C -0,7 C 11,3 km/h (2 Bft)
14.04.2021 05:34 0,9 C 1,1 C 0,0 C 5,0 C 7,8 C 7,8 C 87 % 77 % 7 cb 5 cb 5 cb 1027,9 hPa 0,0 l/m 6,4 km/h (2 Bft) SW 225 0,000 mm 0,0 UV-I 0 W/m -1,0 C 0,9 C 9,7 km/h (2 Bft)
14.04.2021 05:33 0,9 C 1,1 C 0,0 C 5,0 C 7,8 C 7,8 C 87 % 77 % 7 cb 5 cb 5 cb 1027,8 hPa 0,0 l/m 3,2 km/h (1 Bft) W-SW 247 0,000 mm 0,0 UV-I 0 W/m -1,0 C 0,9 C 6,4 km/h (2 Bft)
14.04.2021 05:32 0,9 C 1,1 C 0,0 C 5,0 C 7,8 C 7,8 C 87 % 77 % 7 cb 5 cb 5 cb 1027,8 hPa 0,0 l/m 0,0 km/h (0 Bft) SW 225 0,000 mm 0,0 UV-I 0 W/m -1,0 C 0,9 C 1,6 km/h (1 Bft)
14.04.2021 05:31 0,9 C 1,1 C 0,6 C 5,0 C 7,8 C 7,8 C 87 % 77 % 7 cb 5 cb 5 cb 1027,9 hPa 0,0 l/m 6,4 km/h (2 Bft) W-SW 247 0,000 mm 0,0 UV-I 0 W/m -1,0 C 0,9 C 8,0 km/h (2 Bft)
14.04.2021 05:30 0,9 C 1,1 C 0,6 C 5,0 C 7,8 C 7,8 C 87 % 77 % 7 cb 5 cb 5 cb 1027,8 hPa 0,0 l/m 8,0 km/h (2 Bft) W-SW 247 0,000 mm 0,0 UV-I 0 W/m -1,0 C -0,7 C 9,7 km/h (2 Bft)
14.04.2021 05:29 0,9 C 1,1 C 0,6 C 5,0 C 7,8 C 7,8 C 87 % 77 % 7 cb 5 cb 5 cb 1027,8 hPa 0,0 l/m 4,8 km/h (1 Bft) SW 225 0,000 mm 0,0 UV-I 0 W/m -1,0 C 0,9 C 8,0 km/h (2 Bft)
14.04.2021 05:28 0,9 C 1,1 C 0,6 C 5,0 C 7,8 C 7,8 C 87 % 77 % 7 cb 5 cb 5 cb 1027,8 hPa 0,0 l/m 3,2 km/h (1 Bft) SW 225 0,000 mm 0,0 UV-I 0 W/m -1,0 C 0,9 C 6,4 km/h (2 Bft)
14.04.2021 05:27 0,9 C 1,1 C 0,6 C 5,0 C 7,8 C 7,8 C 87 % 77 % 7 cb 5 cb 5 cb 1027,9 hPa 0,0 l/m 6,4 km/h (2 Bft) SW 225 0,000 mm 0,0 UV-I 0 W/m -1,0 C 0,9 C 11,3 km/h (2 Bft)
14.04.2021 05:26 0,9 C 1,1 C 0,6 C 5,0 C 7,8 C 7,8 C 87 % 77 % 7 cb 5 cb 5 cb 1027,8 hPa 0,0 l/m 4,8 km/h (1 Bft) S-SW 202 0,000 mm 0,0 UV-I 0 W/m -1,0 C 0,9 C 11,3 km/h (2 Bft)
14.04.2021 05:25 0,9 C 1,1 C 0,6 C 5,0 C 7,8 C 7,8 C 87 % 77 % 7 cb 5 cb 5 cb 1027,9 hPa 0,0 l/m 0,0 km/h (0 Bft) N 0 0,000 mm 0,0 UV-I 0 W/m -1,0 C 0,9 C 0,0 km/h (0 Bft)
14.04.2021 05:24 0,9 C 1,1 C 0,6 C 5,0 C 7,8 C 7,8 C 87 % 77 % 7 cb 5 cb 5 cb 1027,9 hPa 0,0 l/m 4,8 km/h (1 Bft) SW 225 0,000 mm 0,0 UV-I 0 W/m -1,0 C 0,9 C 6,4 km/h (2 Bft)
14.04.2021 05:23 0,9 C 1,1 C 0,6 C 5,0 C 7,8 C 7,8 C 87 % 77 % 7 cb 5 cb 5 cb 1027,8 hPa 0,0 l/m 3,2 km/h (1 Bft) SW 225 0,000 mm 0,0 UV-I 0 W/m -1,0 C 0,9 C 6,4 km/h (2 Bft)
14.04.2021 05:22 0,9 C 1,1 C 0,6 C 5,0 C 7,8 C 7,8 C 87 % 77 % 7 cb 5 cb 5 cb 1027,9 hPa 0,0 l/m 4,8 km/h (1 Bft) SW 225 0,000 mm 0,0 UV-I 0 W/m -1,0 C 0,9 C 8,0 km/h (2 Bft)
14.04.2021 05:21 0,9 C 1,1 C 0,6 C 5,0 C 7,8 C 7,8 C 87 % 77 % 7 cb 5 cb 5 cb 1027,8 hPa 0,0 l/m 6,4 km/h (2 Bft) SW 225 0,000 mm 0,0 UV-I 0 W/m -1,0 C 0,9 C 8,0 km/h (2 Bft)
14.04.2021 05:20 0,9 C 1,1 C 0,6 C 5,0 C 7,8 C 7,8 C 87 % 77 % 7 cb 5 cb 5 cb 1027,8 hPa 0,0 l/m 6,4 km/h (2 Bft) SW 225 0,000 mm 0,0 UV-I 0 W/m -1,0 C 0,9 C 8,0 km/h (2 Bft)
14.04.2021 05:19 0,9 C 1,1 C 0,6 C 5,0 C 7,8 C 7,8 C 87 % 77 % 7 cb 5 cb 5 cb 1027,8 hPa 0,0 l/m 4,8 km/h (1 Bft) S-SW 202 0,000 mm 0,0 UV-I 0 W/m -1,0 C 0,9 C 9,7 km/h (2 Bft)
14.04.2021 05:18 0,9 C 1,1 C 0,6 C 5,0 C 7,8 C 7,8 C 87 % 77 % 7 cb 5 cb 5 cb 1027,8 hPa 0,0 l/m 0,0 km/h (0 Bft) W-SW 247 0,000 mm 0,0 UV-I 0 W/m -1,0 C 0,9 C 3,2 km/h (1 Bft)
14.04.2021 05:17 0,9 C 1,1 C 0,6 C 5,0 C 7,8 C 7,8 C 87 % 77 % 7 cb 5 cb 5 cb 1027,8 hPa 0,0 l/m 3,2 km/h (1 Bft) W-SW 247 0,000 mm 0,0 UV-I 0 W/m -1,0 C 0,9 C 3,2 km/h (1 Bft)
14.04.2021 05:16 0,9 C 1,1 C 0,6 C 5,0 C 7,8 C 7,8 C 87 % 77 % 7 cb 5 cb 5 cb 1027,8 hPa 0,0 l/m 3,2 km/h (1 Bft) W-SW 247 0,000 mm 0,0 UV-I 0 W/m -1,0 C 0,9 C 4,8 km/h (1 Bft)
14.04.2021 05:15 0,9 C 1,1 C 0,6 C 5,0 C 7,8 C 7,8 C 87 % 77 % 7 cb 5 cb 5 cb 1027,8 hPa 0,0 l/m 4,8 km/h (1 Bft) W-SW 247 0,000 mm 0,0 UV-I 0 W/m -1,0 C 0,9 C 6,4 km/h (2 Bft)
14.04.2021 05:14 0,9 C 1,1 C 0,6 C 5,0 C 7,8 C 7,8 C 87 % 77 % 7 cb 5 cb 5 cb 1027,8 hPa 0,0 l/m 4,8 km/h (1 Bft) W-SW 247 0,000 mm 0,0 UV-I 0 W/m -1,0 C 0,9 C 8,0 km/h (2 Bft)
14.04.2021 05:13 0,9 C 1,1 C 0,6 C 5,0 C 7,8 C 7,8 C 87 % 77 % 7 cb 5 cb 5 cb 1027,8 hPa 0,0 l/m 4,8 km/h (1 Bft) W-SW 247 0,000 mm 0,0 UV-I 0 W/m -1,0 C 0,9 C 6,4 km/h (2 Bft)
14.04.2021 05:12 0,9 C 1,1 C 0,6 C 5,0 C 7,8 C 7,8 C 87 % 77 % 7 cb 5 cb 5 cb 1027,8 hPa 0,0 l/m 4,8 km/h (1 Bft) W-SW 247 0,000 mm 0,0 UV-I 0 W/m -1,0 C 0,9 C 8,0 km/h (2 Bft)
14.04.2021 05:11 1,0 C 1,1 C 0,6 C 5,0 C 7,8 C 7,8 C 87 % 77 % 7 cb 5 cb 5 cb 1027,9 hPa 0,0 l/m 8,0 km/h (2 Bft) W-SW 247 0,000 mm 0,0 UV-I 0 W/m -0,9 C -0,6 C 11,3 km/h (2 Bft)
14.04.2021 05:10 1,0 C 1,1 C 0,6 C 5,0 C 7,8 C 7,8 C 87 % 77 % 7 cb 5 cb 5 cb 1027,9 hPa 0,0 l/m 8,0 km/h (2 Bft) W-SW 247 0,000 mm 0,0 UV-I 0 W/m -0,9 C -0,6 C 11,3 km/h (2 Bft)
14.04.2021 05:09 1,0 C 1,1 C 0,6 C 5,0 C 7,8 C 7,8 C 87 % 77 % 7 cb 5 cb 5 cb 1027,8 hPa 0,0 l/m 8,0 km/h (2 Bft) W-SW 247 0,000 mm 0,0 UV-I 0 W/m -0,9 C -0,6 C 12,9 km/h (3 Bft)
14.04.2021 05:08 1,0 C 1,1 C 0,6 C 5,0 C 7,8 C 7,8 C 87 % 77 % 7 cb 5 cb 5 cb 1027,8 hPa 0,0 l/m 6,4 km/h (2 Bft) W-SW 247 0,000 mm 0,0 UV-I 0 W/m -0,9 C 1,0 C 9,7 km/h (2 Bft)
14.04.2021 05:07 1,0 C 1,1 C 0,6 C 5,0 C 7,8 C 7,8 C 87 % 77 % 7 cb 5 cb 5 cb 1027,9 hPa 0,0 l/m 8,0 km/h (2 Bft) S-SW 202 0,000 mm 0,0 UV-I 0 W/m -0,9 C -0,6 C 11,3 km/h (2 Bft)
14.04.2021 05:06 1,0 C 1,1 C 0,6 C 5,0 C 7,8 C 7,8 C 87 % 77 % 7 cb 5 cb 5 cb 1027,9 hPa 0,0 l/m 6,4 km/h (2 Bft) S-SW 202 0,000 mm 0,0 UV-I 0 W/m -0,9 C 1,0 C 9,7 km/h (2 Bft)
14.04.2021 05:05 1,0 C 1,1 C 0,6 C 5,0 C 7,8 C 7,8 C 87 % 77 % 7 cb 5 cb 5 cb 1027,9 hPa 0,0 l/m 4,8 km/h (1 Bft) SW 225 0,000 mm 0,0 UV-I 0 W/m -0,9 C 1,0 C 8,0 km/h (2 Bft)
14.04.2021 05:04 1,0 C 1,1 C 0,6 C 5,0 C 7,8 C 7,8 C 87 % 77 % 7 cb 5 cb 5 cb 1027,9 hPa 0,0 l/m 4,8 km/h (1 Bft) S-SW 202 0,000 mm 0,0 UV-I 0 W/m -0,9 C 1,0 C 8,0 km/h (2 Bft)
14.04.2021 05:03 1,0 C 1,1 C 0,6 C 5,0 C 7,8 C 7,8 C 87 % 77 % 7 cb 5 cb 5 cb 1027,9 hPa 0,0 l/m 0,0 km/h (0 Bft) W-SW 247 0,000 mm 0,0 UV-I 0 W/m -0,9 C 1,0 C 1,6 km/h (1 Bft)
14.04.2021 05:02 1,0 C 1,1 C 0,6 C 5,0 C 7,8 C 7,8 C 87 % 77 % 7 cb 5 cb 5 cb 1027,9 hPa 0,0 l/m 3,2 km/h (1 Bft) W-SW 247 0,000 mm 0,0 UV-I 0 W/m -0,9 C 1,0 C 8,0 km/h (2 Bft)
14.04.2021 05:01 1,0 C 1,1 C 0,6 C 5,0 C 7,8 C 7,8 C 87 % 77 % 7 cb 5 cb 5 cb 1027,9 hPa 0,0 l/m 4,8 km/h (1 Bft) SW 225 0,000 mm 0,0 UV-I 0 W/m -0,9 C 1,0 C 4,8 km/h (1 Bft)
14.04.2021 05:00 1,0 C 1,1 C 0,6 C 5,0 C 7,8 C 7,8 C 87 % 77 % 7 cb 5 cb 5 cb 1027,9 hPa 0,0 l/m 4,8 km/h (1 Bft) SW 225 0,000 mm 0,0 UV-I 0 W/m -0,9 C 1,0 C 6,4 km/h (2 Bft)
14.04.2021 04:59 1,0 C 1,1 C 0,6 C 5,0 C 7,8 C 7,8 C 87 % 77 % 7 cb 5 cb 5 cb 1027,8 hPa 0,0 l/m 6,4 km/h (2 Bft) SW 225 0,000 mm 0,0 UV-I 0 W/m -0,9 C 1,0 C 8,0 km/h (2 Bft)
14.04.2021 04:58 1,0 C 1,1 C 0,6 C 5,0 C 7,8 C 7,8 C 87 % 77 % 7 cb 5 cb 5 cb 1027,9 hPa 0,0 l/m 6,4 km/h (2 Bft) W-SW 247 0,000 mm 0,0 UV-I 0 W/m -0,9 C 1,0 C 8,0 km/h (2 Bft)
14.04.2021 04:57 1,0 C 1,1 C 0,6 C 5,0 C 7,8 C 7,8 C 87 % 77 % 7 cb 5 cb 5 cb 1027,9 hPa 0,0 l/m 6,4 km/h (2 Bft) SW 225 0,000 mm 0,0 UV-I 0 W/m -0,9 C 1,0 C 11,3 km/h (2 Bft)
14.04.2021 04:56 1,0 C 1,1 C 0,6 C 5,0 C 7,8 C 7,8 C 87 % 77 % 7 cb 5 cb 5 cb 1027,8 hPa 0,0 l/m 4,8 km/h (1 Bft) SW 225 0,000 mm 0,0 UV-I 0 W/m -0,9 C 1,0 C 8,0 km/h (2 Bft)
14.04.2021 04:55 1,0 C 1,1 C 0,6 C 5,0 C 7,8 C 7,8 C 87 % 77 % 7 cb 5 cb 5 cb 1027,9 hPa 0,0 l/m 6,4 km/h (2 Bft) SW 225 0,000 mm 0,0 UV-I 0 W/m -0,9 C 1,0 C 8,0 km/h (2 Bft)
14.04.2021 04:54 1,0 C 1,1 C 0,6 C 5,0 C 7,8 C 7,8 C 87 % 77 % 7 cb 5 cb 5 cb 1027,8 hPa 0,0 l/m 4,8 km/h (1 Bft) W-SW 247 0,000 mm 0,0 UV-I 0 W/m -0,9 C 1,0 C 8,0 km/h (2 Bft)
14.04.2021 04:53 1,0 C 1,1 C 0,6 C 5,0 C 7,8 C 7,8 C 87 % 77 % 7 cb 5 cb 5 cb 1027,8 hPa 0,0 l/m 0,0 km/h (0 Bft) W-SW 247 0,000 mm 0,0 UV-I 0 W/m -0,9 C 1,0 C 1,6 km/h (1 Bft)
14.04.2021 04:52 1,0 C 1,1 C 0,6 C 5,0 C 7,8 C 7,8 C 87 % 77 % 7 cb 5 cb 5 cb 1027,8 hPa 0,0 l/m 3,2 km/h (1 Bft) W-SW 247 0,000 mm 0,0 UV-I 0 W/m -0,9 C 1,0 C 6,4 km/h (2 Bft)
14.04.2021 04:51 1,0 C 1,1 C 0,6 C 5,0 C 7,8 C 7,8 C 87 % 77 % 7 cb 5 cb 5 cb 1027,8 hPa 0,0 l/m 4,8 km/h (1 Bft) W-SW 247 0,000 mm 0,0 UV-I 0 W/m -0,9 C 1,0 C 6,4 km/h (2 Bft)
14.04.2021 04:50 1,0 C 1,1 C 0,6 C 5,0 C 7,8 C 7,8 C 87 % 77 % 7 cb 5 cb 5 cb 1027,8 hPa 0,0 l/m 6,4 km/h (2 Bft) W-SW 247 0,000 mm 0,0 UV-I 0 W/m -0,9 C 1,0 C 6,4 km/h (2 Bft)
14.04.2021 04:49 1,0 C 1,1 C 0,6 C 5,0 C 7,8 C 7,8 C 87 % 77 % 7 cb 5 cb 5 cb 1027,8 hPa 0,0 l/m 6,4 km/h (2 Bft) W-SW 247 0,000 mm 0,0 UV-I 0 W/m -0,9 C 1,0 C 11,3 km/h (2 Bft)
14.04.2021 04:48 1,0 C 1,1 C 0,6 C 5,0 C 7,8 C 7,8 C 87 % 77 % 7 cb 5 cb 5 cb 1027,8 hPa 0,0 l/m 9,7 km/h (2 Bft) W-SW 247 0,000 mm 0,0 UV-I 0 W/m -0,9 C -2,1 C 11,3 km/h (2 Bft)
14.04.2021 04:47 1,0 C 1,1 C 0,6 C 5,0 C 7,8 C 7,8 C 87 % 77 % 7 cb 5 cb 5 cb 1027,9 hPa 0,0 l/m 6,4 km/h (2 Bft) SW 225 0,000 mm 0,0 UV-I 0 W/m -0,9 C 1,0 C 11,3 km/h (2 Bft)
14.04.2021 04:46 1,0 C 1,1 C 0,6 C 5,0 C 7,8 C 7,8 C 87 % 77 % 7 cb 5 cb 5 cb 1027,9 hPa 0,0 l/m 6,4 km/h (2 Bft) W-SW 247 0,000 mm 0,0 UV-I 0 W/m -0,9 C 1,0 C 11,3 km/h (2 Bft)
14.04.2021 04:45 0,9 C 1,1 C 0,6 C 5,0 C 7,8 C 7,8 C 87 % 77 % 7 cb 5 cb 5 cb 1027,9 hPa 0,0 l/m 6,4 km/h (2 Bft) W-SW 247 0,000 mm 0,0 UV-I 0 W/m -1,0 C 0,9 C 9,7 km/h (2 Bft)
14.04.2021 04:44 0,9 C 1,1 C 0,6 C 5,0 C 7,8 C 7,8 C 87 % 77 % 7 cb 5 cb 5 cb 1027,9 hPa 0,0 l/m 8,0 km/h (2 Bft) W-SW 247 0,000 mm 0,0 UV-I 0 W/m -1,0 C -0,7 C 9,7 km/h (2 Bft)
14.04.2021 04:43 1,0 C 1,1 C 0,6 C 5,0 C 7,8 C 7,8 C 87 % 77 % 7 cb 5 cb 5 cb 1027,9 hPa 0,0 l/m 11,3 km/h (2 Bft) SW 225 0,000 mm 0,0 UV-I 0 W/m -0,9 C -3,3 C 12,9 km/h (3 Bft)
14.04.2021 04:42 0,9 C 1,1 C 0,6 C 5,0 C 7,8 C 7,8 C 87 % 77 % 7 cb 5 cb 5 cb 1027,9 hPa 0,0 l/m 9,7 km/h (2 Bft) SW 225 0,000 mm 0,0 UV-I 0 W/m -1,0 C -2,2 C 12,9 km/h (3 Bft)
14.04.2021 04:41 1,0 C 1,1 C 0,6 C 5,0 C 7,8 C 7,8 C 88 % 77 % 7 cb 5 cb 5 cb 1027,9 hPa 0,0 l/m 8,0 km/h (2 Bft) SW 225 0,000 mm 0,0 UV-I 0 W/m -0,8 C -0,6 C 11,3 km/h (2 Bft)
14.04.2021 04:40 1,0 C 1,1 C 0,6 C 5,0 C 7,8 C 7,8 C 87 % 77 % 7 cb 5 cb 5 cb 1027,9 hPa 0,0 l/m 6,4 km/h (2 Bft) SW 225 0,000 mm 0,0 UV-I 0 W/m -0,9 C 1,0 C 9,7 km/h (2 Bft)
14.04.2021 04:39 1,0 C 1,1 C 0,6 C 5,0 C 7,8 C 7,8 C 87 % 77 % 7 cb 5 cb 5 cb 1027,9 hPa 0,0 l/m 8,0 km/h (2 Bft) SW 225 0,000 mm 0,0 UV-I 0 W/m -0,9 C -0,6 C 9,7 km/h (2 Bft)
14.04.2021 04:38 1,0 C 1,1 C 0,6 C 5,0 C 7,8 C 7,8 C 87 % 77 % 7 cb 5 cb 5 cb 1027,9 hPa 0,0 l/m 4,8 km/h (1 Bft) W-SW 247 0,000 mm 0,0 UV-I 0 W/m -0,9 C 1,0 C 6,4 km/h (2 Bft)
14.04.2021 04:37 1,0 C 1,1 C 0,6 C 5,0 C 7,8 C 7,8 C 87 % 77 % 7 cb 5 cb 5 cb 1027,9 hPa 0,0 l/m 3,2 km/h (1 Bft) W-SW 247 0,000 mm 0,0 UV-I 0 W/m -0,9 C 1,0 C 6,4 km/h (2 Bft)
14.04.2021 04:36 1,0 C 1,1 C 0,6 C 5,0 C 7,8 C 7,8 C 87 % 77 % 7 cb 5 cb 5 cb 1027,9 hPa 0,0 l/m 4,8 km/h (1 Bft) W-SW 247 0,000 mm 0,0 UV-I 0 W/m -0,9 C 1,0 C 8,0 km/h (2 Bft)
14.04.2021 04:35 1,0 C 1,1 C 0,6 C 5,0 C 7,8 C 7,8 C 87 % 77 % 7 cb 5 cb 5 cb 1027,9 hPa 0,0 l/m 8,0 km/h (2 Bft) W-SW 247 0,000 mm 0,0 UV-I 0 W/m -0,9 C -0,6 C 11,3 km/h (2 Bft)
14.04.2021 04:34 1,0 C 1,1 C 0,6 C 5,0 C 7,8 C 7,8 C 87 % 77 % 7 cb 5 cb 5 cb 1027,9 hPa 0,0 l/m 8,0 km/h (2 Bft) SW 225 0,000 mm 0,0 UV-I 0 W/m -0,9 C -0,6 C 11,3 km/h (2 Bft)
14.04.2021 04:33 1,0 C 1,1 C 0,6 C 5,0 C 7,8 C 7,8 C 87 % 77 % 7 cb 5 cb 5 cb 1027,9 hPa 0,0 l/m 8,0 km/h (2 Bft) SW 225 0,000 mm 0,0 UV-I 0 W/m -0,9 C -0,6 C 9,7 km/h (2 Bft)
14.04.2021 04:32 0,9 C 1,1 C 0,6 C 5,0 C 7,8 C 7,8 C 87 % 77 % 7 cb 5 cb 5 cb 1027,9 hPa 0,0 l/m 6,4 km/h (2 Bft) SW 225 0,000 mm 0,0 UV-I 0 W/m -1,0 C 0,9 C 11,3 km/h (2 Bft)
14.04.2021 04:31 0,9 C 1,1 C 0,6 C 5,0 C 7,8 C 7,8 C 87 % 77 % 7 cb 5 cb 5 cb 1027,9 hPa 0,0 l/m 4,8 km/h (1 Bft) W-SW 247 0,000 mm 0,0 UV-I 0 W/m -1,0 C 0,9 C 8,0 km/h (2 Bft)
14.04.2021 04:30 0,9 C 1,1 C 0,6 C 5,0 C 7,8 C 7,8 C 87 % 77 % 7 cb 5 cb 5 cb 1027,9 hPa 0,0 l/m 6,4 km/h (2 Bft) W-SW 247 0,000 mm 0,0 UV-I 0 W/m -1,0 C 0,9 C 9,7 km/h (2 Bft)
14.04.2021 04:29 0,9 C 1,1 C 0,6 C 5,0 C 7,8 C 7,8 C 87 % 77 % 7 cb 5 cb 5 cb 1028,0 hPa 0,0 l/m 6,4 km/h (2 Bft) W-SW 247 0,000 mm 0,0 UV-I 0 W/m -1,0 C 0,9 C 9,7 km/h (2 Bft)
14.04.2021 04:28 0,9 C 1,1 C 0,6 C 5,0 C 7,8 C 7,8 C 87 % 77 % 7 cb 5 cb 5 cb 1027,9 hPa 0,0 l/m 4,8 km/h (1 Bft) W-SW 247 0,000 mm 0,0 UV-I 0 W/m -1,0 C 0,9 C 6,4 km/h (2 Bft)
14.04.2021 04:27 1,0 C 1,1 C 0,6 C 5,0 C 7,8 C 7,8 C 87 % 77 % 7 cb 5 cb 5 cb 1027,9 hPa 0,0 l/m 6,4 km/h (2 Bft) W-SW 247 0,000 mm 0,0 UV-I 0 W/m -0,9 C 1,0 C 8,0 km/h (2 Bft)
14.04.2021 04:26 1,0 C 1,1 C 0,6 C 5,0 C 7,8 C 7,8 C 87 % 77 % 7 cb 5 cb 5 cb 1027,9 hPa 0,0 l/m 6,4 km/h (2 Bft) W-SW 247 0,000 mm 0,0 UV-I 0 W/m -0,9 C 1,0 C 9,7 km/h (2 Bft)
14.04.2021 04:25 1,0 C 1,1 C 0,6 C 5,0 C 7,8 C 7,8 C 87 % 77 % 7 cb 5 cb 5 cb 1028,0 hPa 0,0 l/m 3,2 km/h (1 Bft) W-SW 247 0,000 mm 0,0 UV-I 0 W/m -0,9 C 1,0 C 9,7 km/h (2 Bft)
14.04.2021 04:24 1,0 C 1,1 C 0,6 C 5,0 C 7,8 C 7,8 C 87 % 77 % 7 cb 5 cb 5 cb 1027,9 hPa 0,0 l/m 3,2 km/h (1 Bft) W-SW 247 0,000 mm 0,0 UV-I 0 W/m -0,9 C 1,0 C 8,0 km/h (2 Bft)
14.04.2021 04:23 1,0 C 1,1 C 0,6 C 5,0 C 7,8 C 7,8 C 87 % 77 % 7 cb 5 cb 5 cb 1028,0 hPa 0,0 l/m 3,2 km/h (1 Bft) W-SW 247 0,000 mm 0,0 UV-I 0 W/m -0,9 C 1,0 C 4,8 km/h (1 Bft)
14.04.2021 04:22 1,0 C 1,1 C 0,6 C 5,0 C 7,8 C 7,8 C 87 % 77 % 7 cb 5 cb 5 cb 1028,0 hPa 0,0 l/m 6,4 km/h (2 Bft) W-SW 247 0,000 mm 0,0 UV-I 0 W/m -0,9 C 1,0 C 8,0 km/h (2 Bft)
14.04.2021 04:21 1,0 C 1,1 C 0,6 C 5,0 C 7,8 C 7,8 C 87 % 77 % 7 cb 5 cb 5 cb 1027,9 hPa 0,0 l/m 1,6 km/h (1 Bft) W-SW 247 0,000 mm 0,0 UV-I 0 W/m -0,9 C 1,0 C 6,4 km/h (2 Bft)
14.04.2021 04:20 1,0 C 1,1 C 0,6 C 5,0 C 7,8 C 7,8 C 87 % 77 % 7 cb 5 cb 5 cb 1028,0 hPa 0,0 l/m 0,0 km/h (0 Bft) N 0 0,000 mm 0,0 UV-I 0 W/m -0,9 C 1,0 C 0,0 km/h (0 Bft)
14.04.2021 04:19 1,0 C 1,1 C 0,6 C 5,0 C 7,8 C 7,8 C 87 % 77 % 7 cb 5 cb 5 cb 1028,0 hPa 0,0 l/m 0,0 km/h (0 Bft) N 0 0,000 mm 0,0 UV-I 0 W/m -0,9 C 1,0 C 0,0 km/h (0 Bft)
14.04.2021 04:18 1,0 C 1,1 C 0,6 C 5,0 C 7,8 C 7,8 C 87 % 77 % 7 cb 5 cb 5 cb 1028,0 hPa 0,0 l/m 0,0 km/h (0 Bft) N 0 0,000 mm 0,0 UV-I 0 W/m -0,9 C 1,0 C 0,0 km/h (0 Bft)
14.04.2021 04:17 1,0 C 1,1 C 0,6 C 5,0 C 7,8 C 7,8 C 87 % 77 % 7 cb 5 cb 5 cb 1028,0 hPa 0,0 l/m 4,8 km/h (1 Bft) W-SW 247 0,000 mm 0,0 UV-I 0 W/m -0,9 C 1,0 C 6,4 km/h (2 Bft)
14.04.2021 04:16 1,0 C 1,1 C 0,6 C 5,0 C 7,8 C 7,8 C 87 % 77 % 7 cb 5 cb 5 cb 1028,0 hPa 0,0 l/m 4,8 km/h (1 Bft) W-SW 247 0,000 mm 0,0 UV-I 0 W/m -0,9 C 1,0 C 6,4 km/h (2 Bft)
14.04.2021 04:15 1,0 C 1,1 C 0,6 C 5,0 C 7,8 C 7,8 C 87 % 77 % 7 cb 5 cb 5 cb 1028,0 hPa 0,0 l/m 4,8 km/h (1 Bft) W-SW 247 0,000 mm 0,0 UV-I 0 W/m -0,9 C 1,0 C 8,0 km/h (2 Bft)
14.04.2021 04:14 1,0 C 1,1 C 0,6 C 5,0 C 7,8 C 7,8 C 87 % 77 % 7 cb 5 cb 5 cb 1028,1 hPa 0,0 l/m 6,4 km/h (2 Bft) W-SW 247 0,000 mm 0,0 UV-I 0 W/m -0,9 C 1,0 C 8,0 km/h (2 Bft)
14.04.2021 04:13 1,0 C 1,1 C 0,6 C 5,0 C 7,8 C 7,8 C 87 % 77 % 7 cb 5 cb 5 cb 1028,0 hPa 0,0 l/m 4,8 km/h (1 Bft) W 270 0,000 mm 0,0 UV-I 0 W/m -0,9 C 1,0 C 6,4 km/h (2 Bft)
14.04.2021 04:12 1,1 C 1,1 C 0,6 C 5,0 C 7,8 C 7,8 C 87 % 77 % 7 cb 5 cb 5 cb 1028,1 hPa 0,0 l/m 4,8 km/h (1 Bft) SW 225 0,000 mm 0,0 UV-I 0 W/m -0,8 C 1,1 C 8,0 km/h (2 Bft)
14.04.2021 04:11 1,1 C 1,1 C 0,6 C 5,0 C 7,8 C 7,8 C 87 % 77 % 7 cb 5 cb 5 cb 1028,0 hPa 0,0 l/m 3,2 km/h (1 Bft) W-SW 247 0,000 mm 0,0 UV-I 0 W/m -0,8 C 1,1 C 4,8 km/h (1 Bft)
14.04.2021 04:10 1,1 C 1,1 C 0,6 C 5,0 C 7,8 C 7,8 C 87 % 77 % 7 cb 5 cb 5 cb 1028,0 hPa 0,0 l/m 3,2 km/h (1 Bft) W-SW 247 0,000 mm 0,0 UV-I 0 W/m -0,8 C 1,1 C 8,0 km/h (2 Bft)
14.04.2021 04:09 1,1 C 1,1 C 0,6 C 5,0 C 7,8 C 7,8 C 87 % 77 % 7 cb 5 cb 5 cb 1028,0 hPa 0,0 l/m 9,7 km/h (2 Bft) W-SW 247 0,000 mm 0,0 UV-I 0 W/m -0,8 C -2,0 C 11,3 km/h (2 Bft)
14.04.2021 04:08 1,1 C 1,1 C 0,6 C 5,0 C 7,8 C 7,8 C 87 % 77 % 7 cb 5 cb 5 cb 1028,0 hPa 0,0 l/m 8,0 km/h (2 Bft) W-SW 247 0,000 mm 0,0 UV-I 0 W/m -0,8 C -0,5 C 11,3 km/h (2 Bft)
14.04.2021 04:07 1,1 C 1,1 C 0,6 C 5,0 C 7,8 C 7,8 C 87 % 77 % 6 cb 5 cb 5 cb 1028,0 hPa 0,0 l/m 6,4 km/h (2 Bft) W-SW 247 0,000 mm 0,0 UV-I 0 W/m -0,8 C 1,1 C 8,0 km/h (2 Bft)
14.04.2021 04:06 1,1 C 1,1 C 0,6 C 5,0 C 7,8 C 7,8 C 87 % 77 % 7 cb 5 cb 5 cb 1028,0 hPa 0,0 l/m 6,4 km/h (2 Bft) W-SW 247 0,000 mm 0,0 UV-I 0 W/m -0,8 C 1,1 C 8,0 km/h (2 Bft)
14.04.2021 04:05 1,1 C 1,1 C 0,6 C 5,0 C 7,8 C 7,8 C 87 % 77 % 7 cb 5 cb 5 cb 1028,0 hPa 0,0 l/m 4,8 km/h (1 Bft) W 270 0,000 mm 0,0 UV-I 0 W/m -0,8 C 1,1 C 8,0 km/h (2 Bft)
14.04.2021 04:04 1,1 C 1,1 C 0,6 C 5,0 C 7,8 C 7,8 C 87 % 77 % 7 cb 5 cb 5 cb 1028,0 hPa 0,0 l/m 6,4 km/h (2 Bft) W-SW 247 0,000 mm 0,0 UV-I 0 W/m -0,8 C 1,1 C 9,7 km/h (2 Bft)
14.04.2021 04:03 1,1 C 1,1 C 0,6 C 5,0 C 7,8 C 7,8 C 87 % 77 % 7 cb 5 cb 5 cb 1028,0 hPa 0,0 l/m 6,4 km/h (2 Bft) W-SW 247 0,000 mm 0,0 UV-I 0 W/m -0,8 C 1,1 C 8,0 km/h (2 Bft)
14.04.2021 04:02 1,1 C 1,1 C 0,6 C 5,0 C 7,8 C 7,8 C 87 % 77 % 7 cb 5 cb 5 cb 1028,0 hPa 0,0 l/m 4,8 km/h (1 Bft) W-SW 247 0,000 mm 0,0 UV-I 0 W/m -0,8 C 1,1 C 8,0 km/h (2 Bft)
14.04.2021 04:01 1,2 C 1,1 C 0,6 C 5,0 C 7,8 C 7,8 C 87 % 77 % 7 cb 5 cb 5 cb 1028,0 hPa 0,0 l/m 6,4 km/h (2 Bft) W-SW 247 0,000 mm 0,0 UV-I 0 W/m -0,7 C 1,2 C 9,7 km/h (2 Bft)
14.04.2021 04:00 1,2 C 1,1 C 0,6 C 5,0 C 7,8 C 7,8 C 87 % 77 % 7 cb 5 cb 5 cb 1028,0 hPa 0,0 l/m 4,8 km/h (1 Bft) W-SW 247 0,000 mm 0,0 UV-I 0 W/m -0,7 C 1,2 C 6,4 km/h (2 Bft)
14.04.2021 03:59 1,2 C 1,1 C 0,6 C 5,0 C 7,8 C 7,8 C 87 % 77 % 7 cb 5 cb 5 cb 1028,0 hPa 0,0 l/m 4,8 km/h (1 Bft) W 270 0,000 mm 0,0 UV-I 0 W/m -0,7 C 1,2 C 8,0 km/h (2 Bft)
14.04.2021 03:58 1,2 C 1,1 C 0,6 C 5,0 C 7,8 C 7,8 C 87 % 77 % 7 cb 5 cb 5 cb 1028,0 hPa 0,0 l/m 6,4 km/h (2 Bft) W-SW 247 0,000 mm 0,0 UV-I 0 W/m -0,7 C 1,2 C 8,0 km/h (2 Bft)
14.04.2021 03:57 1,2 C 1,1 C 0,6 C 5,0 C 7,8 C 7,8 C 87 % 77 % 7 cb 5 cb 5 cb 1028,0 hPa 0,0 l/m 4,8 km/h (1 Bft) W-SW 247 0,000 mm 0,0 UV-I 0 W/m -0,7 C 1,2 C 6,4 km/h (2 Bft)
14.04.2021 03:56 1,2 C 1,1 C 0,6 C 5,0 C 7,8 C 7,8 C 87 % 77 % 7 cb 5 cb 5 cb 1028,0 hPa 0,0 l/m 6,4 km/h (2 Bft) W-SW 247 0,000 mm 0,0 UV-I 0 W/m -0,7 C 1,2 C 8,0 km/h (2 Bft)
14.04.2021 03:55 1,2 C 1,1 C 0,6 C 5,0 C 7,8 C 7,8 C 87 % 77 % 7 cb 5 cb 5 cb 1028,0 hPa 0,0 l/m 4,8 km/h (1 Bft) SW 225 0,000 mm 0,0 UV-I 0 W/m -0,7 C 1,2 C 6,4 km/h (2 Bft)
14.04.2021 03:54 1,2 C 1,1 C 0,6 C 5,0 C 7,8 C 7,8 C 87 % 77 % 7 cb 5 cb 5 cb 1028,0 hPa 0,0 l/m 6,4 km/h (2 Bft) SW 225 0,000 mm 0,0 UV-I 0 W/m -0,7 C 1,2 C 9,7 km/h (2 Bft)
14.04.2021 03:53 1,2 C 1,1 C 0,6 C 5,0 C 7,8 C 7,8 C 87 % 77 % 7 cb 5 cb 5 cb 1028,0 hPa 0,0 l/m 8,0 km/h (2 Bft) S-SW 202 0,000 mm 0,0 UV-I 0 W/m -0,7 C -0,4 C 11,3 km/h (2 Bft)
14.04.2021 03:52 1,2 C 1,1 C 0,6 C 5,0 C 7,8 C 7,8 C 87 % 78 % 7 cb 5 cb 5 cb 1028,0 hPa 0,0 l/m 4,8 km/h (1 Bft) W-SW 247 0,000 mm 0,0 UV-I 0 W/m -0,7 C 1,2 C 8,0 km/h (2 Bft)
14.04.2021 03:51 1,2 C 1,1 C 0,6 C 5,0 C 7,8 C 7,8 C 87 % 78 % 7 cb 5 cb 5 cb 1028,1 hPa 0,0 l/m 6,4 km/h (2 Bft) W-SW 247 0,000 mm 0,0 UV-I 0 W/m -0,7 C 1,2 C 9,7 km/h (2 Bft)
14.04.2021 03:50 1,2 C 1,1 C 0,6 C 5,0 C 7,8 C 7,8 C 87 % 78 % 7 cb 5 cb 5 cb 1028,0 hPa 0,0 l/m 8,0 km/h (2 Bft) W-SW 247 0,000 mm 0,0 UV-I 0 W/m -0,7 C -0,4 C 9,7 km/h (2 Bft)
14.04.2021 03:49 1,2 C 1,1 C 0,6 C 5,0 C 7,8 C 7,8 C 87 % 78 % 7 cb 5 cb 5 cb 1028,0 hPa 0,0 l/m 8,0 km/h (2 Bft) W-SW 247 0,000 mm 0,0 UV-I 0 W/m -0,7 C -0,4 C 11,3 km/h (2 Bft)
14.04.2021 03:48 1,2 C 1,1 C 0,6 C 5,0 C 7,8 C 7,8 C 87 % 78 % 7 cb 5 cb 5 cb 1028,0 hPa 0,0 l/m 6,4 km/h (2 Bft) W-SW 247 0,000 mm 0,0 UV-I 0 W/m -0,7 C 1,2 C 9,7 km/h (2 Bft)
14.04.2021 03:47 1,3 C 1,1 C 0,6 C 5,0 C 7,8 C 7,8 C 87 % 78 % 7 cb 5 cb 5 cb 1028,1 hPa 0,0 l/m 6,4 km/h (2 Bft) SW 225 0,000 mm 0,0 UV-I 0 W/m -0,6 C 1,3 C 8,0 km/h (2 Bft)
14.04.2021 03:46 1,3 C 1,1 C 0,6 C 5,0 C 7,8 C 7,8 C 87 % 78 % 7 cb 5 cb 5 cb 1028,1 hPa 0,0 l/m 6,4 km/h (2 Bft) W-SW 247 0,000 mm 0,0 UV-I 0 W/m -0,6 C 1,3 C 9,7 km/h (2 Bft)
14.04.2021 03:45 1,3 C 1,1 C 0,6 C 5,0 C 7,8 C 7,8 C 88 % 78 % 7 cb 5 cb 5 cb 1028,0 hPa 0,0 l/m 8,0 km/h (2 Bft) W-SW 247 0,000 mm 0,0 UV-I 0 W/m -0,5 C -0,3 C 9,7 km/h (2 Bft)
14.04.2021 03:44 1,3 C 1,1 C 0,6 C 5,0 C 7,8 C 7,8 C 88 % 78 % 7 cb 5 cb 5 cb 1028,0 hPa 0,0 l/m 4,8 km/h (1 Bft) SW 225 0,000 mm 0,0 UV-I 0 W/m -0,5 C 1,3 C 6,4 km/h (2 Bft)
14.04.2021 03:43 1,3 C 1,1 C 0,6 C 5,0 C 7,8 C 7,8 C 88 % 78 % 7 cb 5 cb 5 cb 1028,0 hPa 0,0 l/m 9,7 km/h (2 Bft) S-SW 202 0,000 mm 0,0 UV-I 0 W/m -0,5 C -1,8 C 11,3 km/h (2 Bft)
14.04.2021 03:42 1,3 C 1,1 C 0,6 C 5,0 C 7,8 C 7,8 C 88 % 78 % 7 cb 5 cb 5 cb 1028,0 hPa 0,0 l/m 6,4 km/h (2 Bft) SW 225 0,000 mm 0,0 UV-I 0 W/m -0,5 C 1,3 C 8,0 km/h (2 Bft)
14.04.2021 03:41 1,3 C 1,1 C 0,6 C 5,0 C 7,8 C 7,8 C 88 % 78 % 7 cb 5 cb 5 cb 1028,0 hPa 0,0 l/m 6,4 km/h (2 Bft) W-SW 247 0,000 mm 0,0 UV-I 0 W/m -0,5 C 1,3 C 9,7 km/h (2 Bft)
14.04.2021 03:40 1,3 C 1,1 C 0,6 C 5,0 C 7,8 C 7,8 C 88 % 78 % 7 cb 5 cb 5 cb 1028,1 hPa 0,0 l/m 8,0 km/h (2 Bft) W-SW 247 0,000 mm 0,0 UV-I 0 W/m -0,5 C -0,3 C 11,3 km/h (2 Bft)
14.04.2021 03:39 1,2 C 1,1 C 0,6 C 5,0 C 7,8 C 7,8 C 88 % 78 % 7 cb 5 cb 5 cb 1028,0 hPa 0,0 l/m 8,0 km/h (2 Bft) SW 225 0,000 mm 0,0 UV-I 0 W/m -0,6 C -0,4 C 9,7 km/h (2 Bft)
14.04.2021 03:38 1,2 C 1,1 C 0,6 C 5,0 C 7,8 C 7,8 C 88 % 78 % 7 cb 5 cb 5 cb 1028,1 hPa 0,0 l/m 9,7 km/h (2 Bft) SW 225 0,000 mm 0,0 UV-I 0 W/m -0,6 C -1,9 C 12,9 km/h (3 Bft)
14.04.2021 03:37 1,2 C 1,1 C 0,6 C 5,0 C 7,8 C 7,8 C 88 % 78 % 7 cb 5 cb 5 cb 1028,1 hPa 0,0 l/m 8,0 km/h (2 Bft) W-SW 247 0,000 mm 0,0 UV-I 0 W/m -0,6 C -0,4 C 11,3 km/h (2 Bft)
14.04.2021 03:36 1,2 C 1,1 C 0,6 C 5,0 C 7,8 C 7,8 C 88 % 78 % 7 cb 5 cb 5 cb 1028,1 hPa 0,0 l/m 6,4 km/h (2 Bft) SW 225 0,000 mm 0,0 UV-I 0 W/m -0,6 C 1,2 C 8,0 km/h (2 Bft)
14.04.2021 03:35 1,2 C 1,1 C 0,6 C 5,0 C 7,8 C 7,8 C 88 % 78 % 7 cb 5 cb 5 cb 1028,0 hPa 0,0 l/m 8,0 km/h (2 Bft) SW 225 0,000 mm 0,0 UV-I 0 W/m -0,6 C -0,4 C 12,9 km/h (3 Bft)
14.04.2021 03:34 1,2 C 1,1 C 0,6 C 5,0 C 7,8 C 7,8 C 88 % 78 % 7 cb 5 cb 5 cb 1028,0 hPa 0,0 l/m 9,7 km/h (2 Bft) SW 225 0,000 mm 0,0 UV-I 0 W/m -0,6 C -1,9 C 12,9 km/h (3 Bft)
14.04.2021 03:33 1,2 C 1,1 C 0,6 C 5,0 C 7,8 C 7,8 C 88 % 78 % 7 cb 5 cb 5 cb 1028,0 hPa 0,0 l/m 9,7 km/h (2 Bft) SW 225 0,000 mm 0,0 UV-I 0 W/m -0,6 C -1,9 C 12,9 km/h (3 Bft)
14.04.2021 03:32 1,2 C 1,1 C 0,6 C 5,0 C 7,8 C 7,8 C 88 % 78 % 7 cb 5 cb 5 cb 1028,1 hPa 0,0 l/m 9,7 km/h (2 Bft) SW 225 0,000 mm 0,0 UV-I 0 W/m -0,6 C -1,9 C 12,9 km/h (3 Bft)
14.04.2021 03:31 1,2 C 1,1 C 0,6 C 5,0 C 7,8 C 7,8 C 88 % 78 % 7 cb 5 cb 5 cb 1028,0 hPa 0,0 l/m 8,0 km/h (2 Bft) W-SW 247 0,000 mm 0,0 UV-I 0 W/m -0,6 C -0,4 C 12,9 km/h (3 Bft)
14.04.2021 03:30 1,2 C 1,1 C 0,6 C 5,0 C 7,8 C 7,8 C 88 % 78 % 7 cb 5 cb 5 cb 1028,0 hPa 0,0 l/m 12,9 km/h (3 Bft) W-SW 247 0,000 mm 0,0 UV-I 0 W/m -0,6 C -4,2 C 14,5 km/h (3 Bft)
14.04.2021 03:29 1,2 C 1,1 C 0,6 C 5,0 C 7,8 C 7,8 C 89 % 78 % 7 cb 5 cb 5 cb 1028,0 hPa 0,0 l/m 8,0 km/h (2 Bft) SW 225 0,000 mm 0,0 UV-I 0 W/m -0,4 C -0,4 C 12,9 km/h (3 Bft)
14.04.2021 03:28 1,2 C 1,1 C 0,6 C 5,0 C 7,8 C 7,8 C 89 % 78 % 7 cb 5 cb 5 cb 1028,0 hPa 0,0 l/m 9,7 km/h (2 Bft) SW 225 0,000 mm 0,0 UV-I 0 W/m -0,4 C -1,9 C 12,9 km/h (3 Bft)
14.04.2021 03:27 1,3 C 1,1 C 0,6 C 5,0 C 7,8 C 7,8 C 89 % 78 % 7 cb 5 cb 5 cb 1028,0 hPa 0,0 l/m 11,3 km/h (2 Bft) S-SW 202 0,000 mm 0,0 UV-I 0 W/m -0,3 C -3,0 C 14,5 km/h (3 Bft)
14.04.2021 03:26 1,3 C 1,1 C 0,6 C 5,0 C 7,8 C 7,8 C 89 % 78 % 7 cb 5 cb 5 cb 1028,0 hPa 0,0 l/m 8,0 km/h (2 Bft) S-SW 202 0,000 mm 0,0 UV-I 0 W/m -0,3 C -0,3 C 12,9 km/h (3 Bft)
14.04.2021 03:25 1,2 C 1,1 C 0,6 C 5,0 C 7,8 C 7,8 C 89 % 78 % 7 cb 5 cb 5 cb 1028,1 hPa 0,0 l/m 6,4 km/h (2 Bft) SW 225 0,000 mm 0,0 UV-I 0 W/m -0,4 C 1,2 C 8,0 km/h (2 Bft)
14.04.2021 03:24 1,2 C 1,1 C 0,6 C 5,0 C 7,8 C 7,8 C 89 % 78 % 7 cb 5 cb 5 cb 1028,1 hPa 0,0 l/m 6,4 km/h (2 Bft) SW 225 0,000 mm 0,0 UV-I 0 W/m -0,4 C 1,2 C 9,7 km/h (2 Bft)
14.04.2021 03:23 1,2 C 1,1 C 0,6 C 5,0 C 7,8 C 7,8 C 89 % 78 % 7 cb 5 cb 5 cb 1028,0 hPa 0,0 l/m 8,0 km/h (2 Bft) SW 225 0,000 mm 0,0 UV-I 0 W/m -0,4 C -0,4 C 9,7 km/h (2 Bft)
14.04.2021 03:22 1,2 C 1,1 C 0,6 C 5,0 C 7,8 C 7,8 C 89 % 78 % 7 cb 5 cb 5 cb 1028,1 hPa 0,0 l/m 8,0 km/h (2 Bft) S-SW 202 0,000 mm 0,0 UV-I 0 W/m -0,4 C -0,4 C 12,9 km/h (3 Bft)
14.04.2021 03:21 1,1 C 1,1 C 0,6 C 5,0 C 7,8 C 7,8 C 89 % 78 % 7 cb 5 cb 5 cb 1028,1 hPa 0,0 l/m 9,7 km/h (2 Bft) SW 225 0,000 mm 0,0 UV-I 0 W/m -0,5 C -2,0 C 14,5 km/h (3 Bft)
14.04.2021 03:20 1,1 C 1,1 C 0,6 C 5,0 C 7,8 C 7,8 C 89 % 78 % 7 cb 5 cb 5 cb 1028,1 hPa 0,0 l/m 8,0 km/h (2 Bft) SW 225 0,000 mm 0,0 UV-I 0 W/m -0,5 C -0,5 C 9,7 km/h (2 Bft)
14.04.2021 03:19 1,1 C 1,1 C 0,6 C 5,0 C 7,8 C 7,8 C 89 % 78 % 7 cb 5 cb 5 cb 1028,1 hPa 0,0 l/m 6,4 km/h (2 Bft) SW 225 0,000 mm 0,0 UV-I 0 W/m -0,5 C 1,1 C 9,7 km/h (2 Bft)
14.04.2021 03:18 1,1 C 1,1 C 0,6 C 5,0 C 7,8 C 7,8 C 89 % 78 % 7 cb 5 cb 5 cb 1028,1 hPa 0,0 l/m 9,7 km/h (2 Bft) W-SW 247 0,000 mm 0,0 UV-I 0 W/m -0,5 C -2,0 C 12,9 km/h (3 Bft)
14.04.2021 03:17 1,1 C 1,1 C 0,6 C 5,0 C 7,8 C 7,8 C 89 % 78 % 7 cb 5 cb 5 cb 1028,1 hPa 0,0 l/m 11,3 km/h (2 Bft) SW 225 0,000 mm 0,0 UV-I 0 W/m -0,5 C -3,2 C 14,5 km/h (3 Bft)
14.04.2021 03:16 1,1 C 1,1 C 0,6 C 5,0 C 7,8 C 7,8 C 89 % 78 % 7 cb 5 cb 5 cb 1028,1 hPa 0,0 l/m 6,4 km/h (2 Bft) SW 225 0,000 mm 0,0 UV-I 0 W/m -0,5 C 1,1 C 8,0 km/h (2 Bft)
14.04.2021 03:15 1,1 C 1,1 C 0,6 C 5,0 C 7,8 C 7,8 C 89 % 78 % 7 cb 5 cb 5 cb 1028,1 hPa 0,0 l/m 8,0 km/h (2 Bft) SW 225 0,000 mm 0,0 UV-I 0 W/m -0,5 C -0,5 C 9,7 km/h (2 Bft)
14.04.2021 03:14 1,1 C 1,1 C 0,6 C 5,0 C 7,8 C 7,8 C 89 % 78 % 7 cb 5 cb 5 cb 1028,1 hPa 0,0 l/m 8,0 km/h (2 Bft) W-SW 247 0,000 mm 0,0 UV-I 0 W/m -0,5 C -0,5 C 9,7 km/h (2 Bft)
14.04.2021 03:13 1,1 C 1,1 C 0,6 C 5,0 C 7,8 C 7,8 C 89 % 79 % 7 cb 5 cb 5 cb 1028,2 hPa 0,0 l/m 9,7 km/h (2 Bft) SW 225 0,000 mm 0,0 UV-I 0 W/m -0,5 C -2,0 C 12,9 km/h (3 Bft)
14.04.2021 03:12 1,1 C 1,1 C 0,6 C 5,0 C 7,8 C 7,8 C 89 % 79 % 7 cb 5 cb 5 cb 1028,2 hPa 0,0 l/m 8,0 km/h (2 Bft) SW 225 0,000 mm 0,0 UV-I 0 W/m -0,5 C -0,5 C 14,5 km/h (3 Bft)
14.04.2021 03:11 1,1 C 1,1 C 0,6 C 5,0 C 7,8 C 7,8 C 89 % 79 % 7 cb 5 cb 5 cb 1028,2 hPa 0,0 l/m 11,3 km/h (2 Bft) SW 225 0,000 mm 0,0 UV-I 0 W/m -0,5 C -3,2 C 14,5 km/h (3 Bft)
14.04.2021 03:10 1,1 C 1,1 C 0,6 C 5,0 C 7,8 C 7,8 C 89 % 79 % 7 cb 5 cb 5 cb 1028,2 hPa 0,0 l/m 12,9 km/h (3 Bft) SW 225 0,000 mm 0,0 UV-I 0 W/m -0,5 C -4,3 C 16,1 km/h (3 Bft)
14.04.2021 03:09 1,1 C 1,1 C 0,6 C 5,0 C 7,8 C 7,8 C 89 % 79 % 7 cb 5 cb 5 cb 1028,2 hPa 0,0 l/m 6,4 km/h (2 Bft) W 270 0,000 mm 0,0 UV-I 0 W/m -0,5 C 1,1 C 14,5 km/h (3 Bft)
14.04.2021 03:08 1,1 C 1,1 C 0,6 C 5,0 C 7,8 C 7,8 C 89 % 79 % 7 cb 5 cb 5 cb 1028,2 hPa 0,0 l/m 8,0 km/h (2 Bft) W-SW 247 0,000 mm 0,0 UV-I 0 W/m -0,5 C -0,5 C 9,7 km/h (2 Bft)
14.04.2021 03:07 1,2 C 1,1 C 0,6 C 5,0 C 7,8 C 7,8 C 89 % 79 % 7 cb 5 cb 5 cb 1028,2 hPa 0,0 l/m 6,4 km/h (2 Bft) W-SW 247 0,000 mm 0,0 UV-I 0 W/m -0,4 C 1,2 C 8,0 km/h (2 Bft)
14.04.2021 03:06 1,2 C 1,1 C 0,6 C 5,0 C 7,8 C 7,8 C 89 % 79 % 7 cb 5 cb 5 cb 1028,2 hPa 0,0 l/m 6,4 km/h (2 Bft) W-SW 247 0,000 mm 0,0 UV-I 0 W/m -0,4 C 1,2 C 9,7 km/h (2 Bft)
14.04.2021 03:05 1,2 C 1,1 C 0,6 C 5,0 C 7,8 C 7,8 C 89 % 79 % 7 cb 5 cb 5 cb 1028,2 hPa 0,0 l/m 9,7 km/h (2 Bft) S-SW 202 0,000 mm 0,0 UV-I 0 W/m -0,4 C -1,9 C 16,1 km/h (3 Bft)
14.04.2021 03:04 1,2 C 1,1 C 0,6 C 5,0 C 7,8 C 7,8 C 89 % 79 % 7 cb 5 cb 5 cb 1028,2 hPa 0,0 l/m 4,8 km/h (1 Bft) W-SW 247 0,000 mm 0,0 UV-I 0 W/m -0,4 C 1,2 C 11,3 km/h (2 Bft)
14.04.2021 03:03 1,2 C 1,1 C 0,6 C 5,0 C 7,8 C 7,8 C 89 % 79 % 7 cb 5 cb 5 cb 1028,2 hPa 0,0 l/m 9,7 km/h (2 Bft) W-SW 247 0,000 mm 0,0 UV-I 0 W/m -0,4 C -1,9 C 12,9 km/h (3 Bft)
14.04.2021 03:02 1,2 C 1,1 C 0,6 C 5,0 C 7,8 C 7,8 C 89 % 79 % 7 cb 5 cb 5 cb 1028,2 hPa 0,0 l/m 9,7 km/h (2 Bft) SW 225 0,000 mm 0,0 UV-I 0 W/m -0,4 C -1,9 C 11,3 km/h (2 Bft)
14.04.2021 03:01 1,2 C 1,1 C 0,6 C 5,0 C 7,8 C 7,8 C 89 % 79 % 7 cb 5 cb 5 cb 1028,2 hPa 0,0 l/m 8,0 km/h (2 Bft) SW 225 0,000 mm 0,0 UV-I 0 W/m -0,4 C -0,4 C 11,3 km/h (2 Bft)
14.04.2021 03:00 1,2 C 1,1 C 0,6 C 5,0 C 7,8 C 7,8 C 89 % 79 % 7 cb 5 cb 5 cb 1028,2 hPa 0,0 l/m 9,7 km/h (2 Bft) SW 225 0,000 mm 0,0 UV-I 0 W/m -0,4 C -1,9 C 12,9 km/h (3 Bft)
14.04.2021 02:59 1,2 C 1,1 C 0,6 C 5,0 C 7,8 C 7,8 C 89 % 79 % 7 cb 5 cb 5 cb 1028,2 hPa 0,0 l/m 6,4 km/h (2 Bft) SW 225 0,000 mm 0,0 UV-I 0 W/m -0,4 C 1,2 C 12,9 km/h (3 Bft)
14.04.2021 02:58 1,2 C 1,1 C 0,6 C 5,0 C 7,8 C 7,8 C 89 % 79 % 7 cb 5 cb 5 cb 1028,2 hPa 0,0 l/m 6,4 km/h (2 Bft) SW 225 0,000 mm 0,0 UV-I 0 W/m -0,4 C 1,2 C 9,7 km/h (2 Bft)
14.04.2021 02:57 1,2 C 1,1 C 0,6 C 5,0 C 7,8 C 7,8 C 89 % 79 % 7 cb 5 cb 5 cb 1028,2 hPa 0,0 l/m 9,7 km/h (2 Bft) SW 225 0,000 mm 0,0 UV-I 0 W/m -0,4 C -1,9 C 12,9 km/h (3 Bft)
14.04.2021 02:56 1,2 C 1,1 C 0,6 C 5,0 C 7,8 C 7,8 C 90 % 79 % 7 cb 5 cb 5 cb 1028,2 hPa 0,0 l/m 11,3 km/h (2 Bft) W-SW 247 0,000 mm 0,0 UV-I 0 W/m -0,3 C -3,1 C 12,9 km/h (3 Bft)
14.04.2021 02:55 1,2 C 1,1 C 0,6 C 5,0 C 7,8 C 7,8 C 90 % 79 % 7 cb 5 cb 5 cb 1028,2 hPa 0,0 l/m 8,0 km/h (2 Bft) W-SW 247 0,000 mm 0,0 UV-I 0 W/m -0,3 C -0,4 C 11,3 km/h (2 Bft)
14.04.2021 02:54 1,2 C 1,1 C 0,6 C 5,0 C 7,8 C 7,8 C 90 % 79 % 7 cb 5 cb 5 cb 1028,2 hPa 0,0 l/m 6,4 km/h (2 Bft) S-SW 202 0,000 mm 0,0 UV-I 0 W/m -0,3 C 1,2 C 11,3 km/h (2 Bft)
14.04.2021 02:53 1,2 C 1,1 C 0,6 C 5,0 C 7,8 C 7,8 C 90 % 79 % 7 cb 5 cb 5 cb 1028,2 hPa 0,0 l/m 8,0 km/h (2 Bft) W-SW 247 0,000 mm 0,0 UV-I 0 W/m -0,3 C -0,4 C 9,7 km/h (2 Bft)
14.04.2021 02:52 1,2 C 1,1 C 0,6 C 5,0 C 7,8 C 7,8 C 90 % 79 % 7 cb 5 cb 5 cb 1028,2 hPa 0,0 l/m 11,3 km/h (2 Bft) SW 225 0,000 mm 0,0 UV-I 0 W/m -0,3 C -3,1 C 12,9 km/h (3 Bft)
14.04.2021 02:51 1,1 C 1,1 C 0,6 C 5,0 C 7,8 C 7,8 C 90 % 79 % 7 cb 5 cb 5 cb 1028,3 hPa 0,0 l/m 9,7 km/h (2 Bft) SW 225 0,000 mm 0,0 UV-I 0 W/m -0,4 C -2,0 C 16,1 km/h (3 Bft)
14.04.2021 02:50 1,1 C 1,1 C 0,6 C 5,0 C 7,8 C 7,8 C 90 % 79 % 7 cb 5 cb 5 cb 1028,3 hPa 0,0 l/m 9,7 km/h (2 Bft) S-SW 202 0,000 mm 0,0 UV-I 0 W/m -0,4 C -2,0 C 14,5 km/h (3 Bft)
14.04.2021 02:49 1,1 C 1,1 C 0,6 C 5,0 C 7,8 C 7,8 C 90 % 79 % 7 cb 5 cb 5 cb 1028,3 hPa 0,0 l/m 9,7 km/h (2 Bft) S-SW 202 0,000 mm 0,0 UV-I 0 W/m -0,4 C -2,0 C 14,5 km/h (3 Bft)
14.04.2021 02:48 1,1 C 1,1 C 0,6 C 5,0 C 7,8 C 7,8 C 90 % 79 % 7 cb 5 cb 5 cb 1028,3 hPa 0,0 l/m 8,0 km/h (2 Bft) W-SW 247 0,000 mm 0,0 UV-I 0 W/m -0,4 C -0,5 C 14,5 km/h (3 Bft)
14.04.2021 02:47 1,1 C 1,1 C 0,6 C 5,0 C 7,8 C 7,8 C 90 % 79 % 7 cb 5 cb 5 cb 1028,3 hPa 0,0 l/m 11,3 km/h (2 Bft) W-SW 247 0,000 mm 0,0 UV-I 0 W/m -0,4 C -3,2 C 16,1 km/h (3 Bft)
14.04.2021 02:46 1,1 C 1,1 C 0,6 C 5,0 C 7,8 C 7,8 C 90 % 79 % 7 cb 5 cb 5 cb 1028,3 hPa 0,0 l/m 11,3 km/h (2 Bft) S-SW 202 0,000 mm 0,0 UV-I 0 W/m -0,4 C -3,2 C 14,5 km/h (3 Bft)
14.04.2021 02:45 1,1 C 1,1 C 0,6 C 5,0 C 7,8 C 7,8 C 90 % 79 % 7 cb 5 cb 5 cb 1028,3 hPa 0,0 l/m 9,7 km/h (2 Bft) S 180 0,000 mm 0,0 UV-I 0 W/m -0,4 C -2,0 C 16,1 km/h (3 Bft)
14.04.2021 02:44 1,1 C 1,1 C 0,6 C 5,0 C 7,8 C 7,8 C 90 % 79 % 7 cb 5 cb 5 cb 1028,3 hPa 0,0 l/m 3,2 km/h (1 Bft) W-SW 247 0,000 mm 0,0 UV-I 0 W/m -0,4 C 1,1 C 8,0 km/h (2 Bft)
14.04.2021 02:43 1,1 C 1,1 C 0,6 C 5,0 C 7,8 C 7,8 C 90 % 79 % 7 cb 5 cb 5 cb 1028,3 hPa 0,0 l/m 6,4 km/h (2 Bft) W-SW 247 0,000 mm 0,0 UV-I 0 W/m -0,4 C 1,1 C 9,7 km/h (2 Bft)
14.04.2021 02:42 1,1 C 1,1 C 0,6 C 5,0 C 7,8 C 7,8 C 90 % 80 % 7 cb 5 cb 5 cb 1028,3 hPa 0,0 l/m 11,3 km/h (2 Bft) W-SW 247 0,000 mm 0,0 UV-I 0 W/m -0,4 C -3,2 C 14,5 km/h (3 Bft)
14.04.2021 02:41 1,1 C 1,1 C 0,6 C 5,0 C 7,8 C 7,8 C 90 % 80 % 7 cb 5 cb 5 cb 1028,3 hPa 0,0 l/m 8,0 km/h (2 Bft) SW 225 0,000 mm 0,0 UV-I 0 W/m -0,4 C -0,5 C 12,9 km/h (3 Bft)
14.04.2021 02:40 1,1 C 1,1 C 0,6 C 5,0 C 7,8 C 7,8 C 90 % 80 % 7 cb 5 cb 5 cb 1028,2 hPa 0,0 l/m 6,4 km/h (2 Bft) SW 225 0,000 mm 0,0 UV-I 0 W/m -0,4 C 1,1 C 9,7 km/h (2 Bft)
14.04.2021 02:39 1,1 C 1,1 C 0,6 C 5,0 C 7,8 C 7,8 C 90 % 80 % 7 cb 5 cb 5 cb 1028,3 hPa 0,0 l/m 9,7 km/h (2 Bft) SW 225 0,000 mm 0,0 UV-I 0 W/m -0,4 C -2,0 C 11,3 km/h (2 Bft)
14.04.2021 02:38 1,1 C 1,1 C 0,6 C 5,0 C 7,8 C 7,8 C 91 % 80 % 7 cb 5 cb 5 cb 1028,2 hPa 0,0 l/m 8,0 km/h (2 Bft) SW 225 0,000 mm 0,0 UV-I 0 W/m -0,2 C -0,5 C 11,3 km/h (2 Bft)
14.04.2021 02:37 1,1 C 1,1 C 0,6 C 5,0 C 7,8 C 7,8 C 91 % 80 % 7 cb 5 cb 5 cb 1028,3 hPa 0,0 l/m 6,4 km/h (2 Bft) S-SW 202 0,000 mm 0,0 UV-I 0 W/m -0,2 C 1,1 C 9,7 km/h (2 Bft)
14.04.2021 02:36 1,1 C 0,6 C 0,6 C 5,0 C 7,8 C 7,8 C 91 % 80 % 7 cb 5 cb 5 cb 1028,3 hPa 0,0 l/m 9,7 km/h (2 Bft) SW 225 0,000 mm 0,0 UV-I 0 W/m -0,2 C -2,0 C 16,1 km/h (3 Bft)
14.04.2021 02:35 1,1 C 1,1 C 0,6 C 5,0 C 7,8 C 7,8 C 91 % 80 % 7 cb 5 cb 5 cb 1028,2 hPa 0,0 l/m 6,4 km/h (2 Bft) S-SW 202 0,000 mm 0,0 UV-I 0 W/m -0,2 C 1,1 C 9,7 km/h (2 Bft)
14.04.2021 02:34 1,1 C 1,1 C 0,6 C 5,0 C 7,8 C 7,8 C 90 % 80 % 7 cb 5 cb 5 cb 1028,2 hPa 0,0 l/m 8,0 km/h (2 Bft) SW 225 0,000 mm 0,0 UV-I 0 W/m -0,4 C -0,5 C 12,9 km/h (3 Bft)
14.04.2021 02:33 1,0 C 0,6 C 0,6 C 5,0 C 7,8 C 7,8 C 91 % 80 % 7 cb 5 cb 5 cb 1028,2 hPa 0,0 l/m 4,8 km/h (1 Bft) S-SW 202 0,000 mm 0,0 UV-I 0 W/m -0,3 C 1,0 C 9,7 km/h (2 Bft)
14.04.2021 02:32 1,0 C 0,6 C 0,6 C 5,0 C 7,8 C 7,8 C 91 % 80 % 7 cb 5 cb 5 cb 1028,2 hPa 0,0 l/m 6,4 km/h (2 Bft) W-SW 247 0,000 mm 0,0 UV-I 0 W/m -0,3 C 1,0 C 11,3 km/h (2 Bft)
14.04.2021 02:31 1,0 C 0,6 C 0,6 C 5,0 C 7,8 C 7,8 C 91 % 80 % 7 cb 5 cb 5 cb 1028,2 hPa 0,0 l/m 9,7 km/h (2 Bft) SW 225 0,000 mm 0,0 UV-I 0 W/m -0,3 C -2,1 C 16,1 km/h (3 Bft)
14.04.2021 02:30 1,0 C 1,1 C 0,6 C 5,0 C 7,8 C 7,8 C 91 % 80 % 7 cb 5 cb 5 cb 1028,2 hPa 0,0 l/m 9,7 km/h (2 Bft) SW 225 0,000 mm 0,0 UV-I 0 W/m -0,3 C -2,1 C 16,1 km/h (3 Bft)
14.04.2021 02:29 1,0 C 0,6 C 0,6 C 5,0 C 7,8 C 7,8 C 91 % 80 % 7 cb 5 cb 5 cb 1028,2 hPa 0,0 l/m 4,8 km/h (1 Bft) S-SW 202 0,000 mm 0,0 UV-I 0 W/m -0,3 C 1,0 C 8,0 km/h (2 Bft)
14.04.2021 02:28 1,0 C 0,6 C 0,6 C 5,0 C 7,8 C 7,8 C 91 % 80 % 7 cb 5 cb 5 cb 1028,3 hPa 0,0 l/m 6,4 km/h (2 Bft) S-SW 202 0,000 mm 0,0 UV-I 0 W/m -0,3 C 1,0 C 9,7 km/h (2 Bft)
14.04.2021 02:27 0,9 C 0,6 C 0,6 C 5,0 C 7,8 C 7,8 C 91 % 80 % 7 cb 5 cb 5 cb 1028,2 hPa 0,0 l/m 6,4 km/h (2 Bft) SW 225 0,000 mm 0,0 UV-I 0 W/m -0,4 C 0,9 C 8,0 km/h (2 Bft)
14.04.2021 02:26 0,9 C 0,6 C 0,6 C 5,6 C 7,8 C 7,8 C 91 % 80 % 7 cb 5 cb 5 cb 1028,3 hPa 0,0 l/m 8,0 km/h (2 Bft) S-SW 202 0,000 mm 0,0 UV-I 0 W/m -0,4 C -0,7 C 11,3 km/h (2 Bft)
14.04.2021 02:25 0,9 C 0,6 C 0,6 C 5,6 C 7,8 C 7,8 C 91 % 80 % 7 cb 5 cb 5 cb 1028,3 hPa 0,0 l/m 9,7 km/h (2 Bft) S-SW 202 0,000 mm 0,0 UV-I 0 W/m -0,4 C -2,2 C 11,3 km/h (2 Bft)
14.04.2021 02:24 0,9 C 0,6 C 0,6 C 5,6 C 7,8 C 7,8 C 91 % 80 % 7 cb 5 cb 5 cb 1028,3 hPa 0,0 l/m 8,0 km/h (2 Bft) SW 225 0,000 mm 0,0 UV-I 0 W/m -0,4 C -0,7 C 11,3 km/h (2 Bft)
14.04.2021 02:23 0,9 C 0,6 C 0,6 C 5,6 C 7,8 C 7,8 C 91 % 80 % 7 cb 5 cb 5 cb 1028,3 hPa 0,0 l/m 8,0 km/h (2 Bft) SW 225 0,000 mm 0,0 UV-I 0 W/m -0,4 C -0,7 C 11,3 km/h (2 Bft)
14.04.2021 02:22 0,9 C 0,6 C 0,6 C 5,6 C 7,8 C 7,8 C 91 % 80 % 7 cb 5 cb 5 cb 1028,3 hPa 0,0 l/m 4,8 km/h (1 Bft) SW 225 0,000 mm 0,0 UV-I 0 W/m -0,4 C 0,9 C 9,7 km/h (2 Bft)
14.04.2021 02:21 0,9 C 0,6 C 0,6 C 5,6 C 7,8 C 7,8 C 91 % 80 % 7 cb 5 cb 5 cb 1028,3 hPa 0,0 l/m 4,8 km/h (1 Bft) SW 225 0,000 mm 0,0 UV-I 0 W/m -0,4 C 0,9 C 8,0 km/h (2 Bft)
14.04.2021 02:20 0,9 C 0,6 C 0,6 C 5,6 C 7,8 C 7,8 C 91 % 80 % 7 cb 5 cb 5 cb 1028,3 hPa 0,0 l/m 4,8 km/h (1 Bft) SW 225 0,000 mm 0,0 UV-I 0 W/m -0,4 C 0,9 C 9,7 km/h (2 Bft)
14.04.2021 02:19 0,9 C 0,6 C 0,6 C 5,6 C 7,8 C 7,8 C 91 % 80 % 7 cb 5 cb 5 cb 1028,3 hPa 0,0 l/m 6,4 km/h (2 Bft) SW 225 0,000 mm 0,0 UV-I 0 W/m -0,4 C 0,9 C 8,0 km/h (2 Bft)
14.04.2021 02:18 0,9 C 0,6 C 0,6 C 5,6 C 7,8 C 7,8 C 91 % 80 % 7 cb 5 cb 5 cb 1028,3 hPa 0,0 l/m 4,8 km/h (1 Bft) SW 225 0,000 mm 0,0 UV-I 0 W/m -0,4 C 0,9 C 9,7 km/h (2 Bft)
14.04.2021 02:17 0,9 C 0,6 C 0,6 C 5,6 C 7,8 C 7,8 C 91 % 80 % 7 cb 5 cb 5 cb 1028,3 hPa 0,0 l/m 8,0 km/h (2 Bft) SW 225 0,000 mm 0,0 UV-I 0 W/m -0,4 C -0,7 C 9,7 km/h (2 Bft)
14.04.2021 02:16 0,9 C 0,6 C 0,6 C 5,6 C 7,8 C 7,8 C 91 % 80 % 7 cb 5 cb 5 cb 1028,3 hPa 0,0 l/m 8,0 km/h (2 Bft) SW 225 0,000 mm 0,0 UV-I 0 W/m -0,4 C -0,7 C 12,9 km/h (3 Bft)
14.04.2021 02:15 0,9 C 0,6 C 0,6 C 5,6 C 7,8 C 7,8 C 91 % 80 % 7 cb 5 cb 5 cb 1028,3 hPa 0,0 l/m 6,4 km/h (2 Bft) SW 225 0,000 mm 0,0 UV-I 0 W/m -0,4 C 0,9 C 9,7 km/h (2 Bft)
14.04.2021 02:14 0,9 C 0,6 C 0,6 C 5,6 C 7,8 C 7,8 C 91 % 80 % 7 cb 5 cb 5 cb 1028,3 hPa 0,0 l/m 3,2 km/h (1 Bft) S-SW 202 0,000 mm 0,0 UV-I 0 W/m -0,4 C 0,9 C 8,0 km/h (2 Bft)
14.04.2021 02:13 0,9 C 0,6 C 0,6 C 5,6 C 7,8 C 7,8 C 91 % 80 % 7 cb 5 cb 5 cb 1028,4 hPa 0,0 l/m 8,0 km/h (2 Bft) W-SW 247 0,000 mm 0,0 UV-I 0 W/m -0,4 C -0,7 C 9,7 km/h (2 Bft)
14.04.2021 02:12 0,9 C 0,6 C 0,6 C 5,6 C 7,8 C 7,8 C 91 % 80 % 7 cb 5 cb 5 cb 1028,4 hPa 0,0 l/m 8,0 km/h (2 Bft) W-SW 247 0,000 mm 0,0 UV-I 0 W/m -0,4 C -0,7 C 11,3 km/h (2 Bft)
14.04.2021 02:11 0,9 C 0,6 C 0,6 C 5,6 C 7,8 C 7,8 C 91 % 80 % 7 cb 5 cb 5 cb 1028,3 hPa 0,0 l/m 8,0 km/h (2 Bft) SW 225 0,000 mm 0,0 UV-I 0 W/m -0,4 C -0,7 C 11,3 km/h (2 Bft)
14.04.2021 02:10 0,9 C 0,6 C 0,6 C 5,6 C 7,8 C 7,8 C 91 % 80 % 7 cb 5 cb 5 cb 1028,3 hPa 0,0 l/m 6,4 km/h (2 Bft) W-SW 247 0,000 mm 0,0 UV-I 0 W/m -0,4 C 0,9 C 11,3 km/h (2 Bft)
14.04.2021 02:09 0,9 C 0,6 C 0,6 C 5,6 C 7,8 C 7,8 C 91 % 80 % 7 cb 5 cb 5 cb 1028,3 hPa 0,0 l/m 4,8 km/h (1 Bft) W-SW 247 0,000 mm 0,0 UV-I 0 W/m -0,4 C 0,9 C 6,4 km/h (2 Bft)
14.04.2021 02:08 0,9 C 0,6 C 0,6 C 5,6 C 7,8 C 7,8 C 91 % 80 % 7 cb 5 cb 5 cb 1028,3 hPa 0,0 l/m 4,8 km/h (1 Bft) SW 225 0,000 mm 0,0 UV-I 0 W/m -0,4 C 0,9 C 6,4 km/h (2 Bft)
14.04.2021 02:07 0,9 C 0,6 C 0,0 C 5,6 C 7,8 C 7,8 C 91 % 80 % 7 cb 5 cb 5 cb 1028,3 hPa 0,0 l/m 3,2 km/h (1 Bft) SW 225 0,000 mm 0,0 UV-I 0 W/m -0,4 C 0,9 C 6,4 km/h (2 Bft)
14.04.2021 02:06 0,9 C 0,6 C 0,0 C 5,6 C 7,8 C 7,8 C 91 % 80 % 7 cb 5 cb 5 cb 1028,3 hPa 0,0 l/m 0,0 km/h (0 Bft) N 0 0,000 mm 0,0 UV-I 0 W/m -0,4 C 0,9 C 0,0 km/h (0 Bft)
14.04.2021 02:05 0,9 C 0,6 C 0,0 C 5,6 C 7,8 C 7,8 C 91 % 80 % 7 cb 5 cb 5 cb 1028,3 hPa 0,0 l/m 0,0 km/h (0 Bft) S-SW 202 0,000 mm 0,0 UV-I 0 W/m -0,4 C 0,9 C 3,2 km/h (1 Bft)
14.04.2021 02:04 0,9 C 0,6 C 0,0 C 5,6 C 7,8 C 7,8 C 91 % 80 % 7 cb 5 cb 5 cb 1028,3 hPa 0,0 l/m 0,0 km/h (0 Bft) S-SW 202 0,000 mm 0,0 UV-I 0 W/m -0,4 C 0,9 C 4,8 km/h (1 Bft)
14.04.2021 02:03 0,8 C 0,6 C 0,0 C 5,6 C 7,8 C 7,8 C 91 % 80 % 7 cb 5 cb 5 cb 1028,3 hPa 0,0 l/m 3,2 km/h (1 Bft) SW 225 0,000 mm 0,0 UV-I 0 W/m -0,5 C 0,8 C 6,4 km/h (2 Bft)
14.04.2021 02:02 0,8 C 0,6 C 0,0 C 5,6 C 7,8 C 7,8 C 91 % 80 % 7 cb 5 cb 5 cb 1028,3 hPa 0,0 l/m 3,2 km/h (1 Bft) W-SW 247 0,000 mm 0,0 UV-I 0 W/m -0,5 C 0,8 C 4,8 km/h (1 Bft)
14.04.2021 02:01 0,8 C 0,6 C 0,0 C 5,6 C 7,8 C 7,8 C 92 % 80 % 7 cb 5 cb 5 cb 1028,4 hPa 0,0 l/m 4,8 km/h (1 Bft) W-SW 247 0,000 mm 0,0 UV-I 0 W/m -0,3 C 0,8 C 6,4 km/h (2 Bft)
14.04.2021 02:00 0,8 C 0,6 C 0,0 C 5,6 C 7,8 C 7,8 C 92 % 80 % 7 cb 5 cb 5 cb 1028,3 hPa 0,0 l/m 3,2 km/h (1 Bft) W-SW 247 0,000 mm 0,0 UV-I 0 W/m -0,3 C 0,8 C 6,4 km/h (2 Bft)
14.04.2021 01:59 0,8 C 0,6 C 0,0 C 5,6 C 7,8 C 7,8 C 91 % 80 % 7 cb 5 cb 5 cb 1028,4 hPa 0,0 l/m 3,2 km/h (1 Bft) W-SW 247 0,000 mm 0,0 UV-I 0 W/m -0,5 C 0,8 C 6,4 km/h (2 Bft)
14.04.2021 01:58 0,8 C 0,6 C 0,0 C 5,6 C 7,8 C 7,8 C 91 % 80 % 7 cb 5 cb 5 cb 1028,4 hPa 0,0 l/m 0,0 km/h (0 Bft) N 0 0,000 mm 0,0 UV-I 0 W/m -0,5 C 0,8 C 0,0 km/h (0 Bft)
14.04.2021 01:57 0,8 C 0,6 C 0,0 C 5,6 C 7,8 C 7,8 C 91 % 80 % 7 cb 5 cb 5 cb 1028,4 hPa 0,0 l/m 3,2 km/h (1 Bft) W-SW 247 0,000 mm 0,0 UV-I 0 W/m -0,5 C 0,8 C 4,8 km/h (1 Bft)
14.04.2021 01:56 0,8 C 0,6 C 0,0 C 5,6 C 7,8 C 7,8 C 91 % 80 % 7 cb 5 cb 5 cb 1028,4 hPa 0,0 l/m 6,4 km/h (2 Bft) W-SW 247 0,000 mm 0,0 UV-I 0 W/m -0,5 C 0,8 C 8,0 km/h (2 Bft)
14.04.2021 01:55 0,8 C 0,6 C 0,0 C 5,6 C 7,8 C 7,8 C 91 % 80 % 7 cb 5 cb 5 cb 1028,4 hPa 0,0 l/m 1,6 km/h (1 Bft) SW 225 0,000 mm 0,0 UV-I 0 W/m -0,5 C 0,8 C 6,4 km/h (2 Bft)
14.04.2021 01:54 0,8 C 0,6 C 0,0 C 5,6 C 7,8 C 7,8 C 91 % 80 % 7 cb 5 cb 5 cb 1028,4 hPa 0,0 l/m 1,6 km/h (1 Bft) SW 225 0,000 mm 0,0 UV-I 0 W/m -0,5 C 0,8 C 4,8 km/h (1 Bft)
14.04.2021 01:53 0,8 C 0,6 C 0,0 C 5,6 C 7,8 C 7,8 C 92 % 80 % 7 cb 5 cb 5 cb 1028,4 hPa 0,0 l/m 3,2 km/h (1 Bft) SW 225 0,000 mm 0,0 UV-I 0 W/m -0,3 C 0,8 C 8,0 km/h (2 Bft)
14.04.2021 01:52 0,8 C 0,6 C 0,0 C 5,6 C 7,8 C 7,8 C 92 % 80 % 7 cb 5 cb 5 cb 1028,4 hPa 0,0 l/m 6,4 km/h (2 Bft) W-SW 247 0,000 mm 0,0 UV-I 0 W/m -0,3 C 0,8 C 9,7 km/h (2 Bft)
14.04.2021 01:51 0,8 C 0,6 C 0,0 C 5,6 C 7,8 C 7,8 C 92 % 80 % 7 cb 5 cb 5 cb 1028,4 hPa 0,0 l/m 6,4 km/h (2 Bft) SW 225 0,000 mm 0,0 UV-I 0 W/m -0,3 C 0,8 C 11,3 km/h (2 Bft)
14.04.2021 01:50 0,8 C 0,6 C 0,0 C 5,6 C 7,8 C 7,8 C 92 % 80 % 7 cb 5 cb 5 cb 1028,5 hPa 0,0 l/m 6,4 km/h (2 Bft) SW 225 0,000 mm 0,0 UV-I 0 W/m -0,3 C 0,8 C 8,0 km/h (2 Bft)
14.04.2021 01:49 0,8 C 1,1 C 0,0 C 5,6 C 7,8 C 7,8 C 92 % 80 % 7 cb 5 cb 5 cb 1028,5 hPa 0,0 l/m 3,2 km/h (1 Bft) W-SW 247 0,000 mm 0,0 UV-I 0 W/m -0,3 C 0,8 C 6,4 km/h (2 Bft)
14.04.2021 01:48 0,8 C 0,6 C 0,0 C 5,6 C 7,8 C 7,8 C 92 % 80 % 7 cb 5 cb 5 cb 1028,5 hPa 0,0 l/m 1,6 km/h (1 Bft) W-SW 247 0,000 mm 0,0 UV-I 0 W/m -0,3 C 0,8 C 3,2 km/h (1 Bft)
14.04.2021 01:47 0,8 C 0,6 C 0,0 C 5,6 C 7,8 C 7,8 C 92 % 80 % 7 cb 5 cb 5 cb 1028,5 hPa 0,0 l/m 0,0 km/h (0 Bft) N 0 0,000 mm 0,0 UV-I 0 W/m -0,3 C 0,8 C 0,0 km/h (0 Bft)
14.04.2021 01:46 0,8 C 0,6 C 0,0 C 5,6 C 7,8 C 7,8 C 92 % 80 % 7 cb 5 cb 5 cb 1028,5 hPa 0,0 l/m 3,2 km/h (1 Bft) W-SW 247 0,000 mm 0,0 UV-I 0 W/m -0,3 C 0,8 C 6,4 km/h (2 Bft)
14.04.2021 01:45 0,8 C 0,6 C 0,0 C 5,6 C 7,8 C 7,8 C 92 % 80 % 7 cb 5 cb 5 cb 1028,5 hPa 0,0 l/m 8,0 km/h (2 Bft) W-SW 247 0,000 mm 0,0 UV-I 0 W/m -0,3 C -0,8 C 11,3 km/h (2 Bft)
14.04.2021 01:44 0,8 C 1,1 C 0,0 C 5,6 C 7,8 C 7,8 C 92 % 80 % 7 cb 5 cb 5 cb 1028,5 hPa 0,0 l/m 6,4 km/h (2 Bft) SW 225 0,000 mm 0,0 UV-I 0 W/m -0,3 C 0,8 C 9,7 km/h (2 Bft)
14.04.2021 01:43 0,8 C 0,6 C 0,0 C 5,6 C 7,8 C 7,8 C 92 % 80 % 7 cb 5 cb 5 cb 1028,5 hPa 0,0 l/m 6,4 km/h (2 Bft) SW 225 0,000 mm 0,0 UV-I 0 W/m -0,3 C 0,8 C 8,0 km/h (2 Bft)
14.04.2021 01:42 0,8 C 1,1 C 0,0 C 5,6 C 7,8 C 7,8 C 92 % 79 % 7 cb 5 cb 5 cb 1028,5 hPa 0,0 l/m 4,8 km/h (1 Bft) SW 225 0,000 mm 0,0 UV-I 0 W/m -0,3 C 0,8 C 9,7 km/h (2 Bft)
14.04.2021 01:41 0,8 C 1,1 C 0,0 C 5,6 C 7,8 C 7,8 C 92 % 79 % 7 cb 5 cb 5 cb 1028,5 hPa 0,0 l/m 3,2 km/h (1 Bft) SW 225 0,000 mm 0,0 UV-I 0 W/m -0,3 C 0,8 C 6,4 km/h (2 Bft)
14.04.2021 01:40 0,7 C 1,1 C 0,0 C 5,6 C 7,8 C 7,8 C 92 % 79 % 7 cb 5 cb 5 cb 1028,5 hPa 0,0 l/m 4,8 km/h (1 Bft) SW 225 0,000 mm 0,0 UV-I 0 W/m -0,4 C 0,7 C 8,0 km/h (2 Bft)
14.04.2021 01:39 0,7 C 1,1 C 0,0 C 5,6 C 7,8 C 7,8 C 92 % 79 % 7 cb 5 cb 5 cb 1028,5 hPa 0,0 l/m 9,7 km/h (2 Bft) SW 225 0,000 mm 0,0 UV-I 0 W/m -0,4 C -2,4 C 11,3 km/h (2 Bft)
14.04.2021 01:38 0,7 C 1,1 C 0,0 C 5,6 C 7,8 C 7,8 C 92 % 79 % 7 cb 5 cb 5 cb 1028,5 hPa 0,0 l/m 4,8 km/h (1 Bft) SW 225 0,000 mm 0,0 UV-I 0 W/m -0,4 C 0,7 C 11,3 km/h (2 Bft)
14.04.2021 01:37 0,7 C 1,1 C 0,0 C 5,6 C 7,8 C 7,8 C 92 % 79 % 7 cb 5 cb 5 cb 1028,5 hPa 0,0 l/m 4,8 km/h (1 Bft) SW 225 0,000 mm 0,0 UV-I 0 W/m -0,4 C 0,7 C 6,4 km/h (2 Bft)
14.04.2021 01:36 0,7 C 1,1 C 0,0 C 5,6 C 7,8 C 7,8 C 92 % 79 % 7 cb 5 cb 5 cb 1028,5 hPa 0,0 l/m 6,4 km/h (2 Bft) SW 225 0,000 mm 0,0 UV-I 0 W/m -0,4 C 0,7 C 9,7 km/h (2 Bft)
14.04.2021 01:35 0,7 C 1,1 C 0,0 C 5,6 C 7,8 C 7,8 C 92 % 79 % 7 cb 5 cb 5 cb 1028,6 hPa 0,0 l/m 6,4 km/h (2 Bft) W-SW 247 0,000 mm 0,0 UV-I 0 W/m -0,4 C 0,7 C 8,0 km/h (2 Bft)
14.04.2021 01:34 0,7 C 1,1 C 0,0 C 5,6 C 7,8 C 7,8 C 92 % 79 % 7 cb 5 cb 5 cb 1028,5 hPa 0,0 l/m 8,0 km/h (2 Bft) W-SW 247 0,000 mm 0,0 UV-I 0 W/m -0,4 C -0,9 C 9,7 km/h (2 Bft)
14.04.2021 01:33 0,7 C 1,1 C 0,0 C 5,6 C 7,8 C 7,8 C 92 % 79 % 7 cb 5 cb 5 cb 1028,5 hPa 0,0 l/m 1,6 km/h (1 Bft) W-SW 247 0,000 mm 0,0 UV-I 0 W/m -0,4 C 0,7 C 6,4 km/h (2 Bft)
14.04.2021 01:32 0,7 C 1,1 C 0,0 C 5,6 C 7,8 C 7,8 C 92 % 79 % 7 cb 5 cb 5 cb 1028,5 hPa 0,0 l/m 0,0 km/h (0 Bft) N 0 0,000 mm 0,0 UV-I 0 W/m -0,4 C 0,7 C 0,0 km/h (0 Bft)
14.04.2021 01:31 0,7 C 1,1 C 0,0 C 5,6 C 7,8 C 7,8 C 92 % 79 % 7 cb 5 cb 5 cb 1028,5 hPa 0,0 l/m 3,2 km/h (1 Bft) W-SW 247 0,000 mm 0,0 UV-I 0 W/m -0,4 C 0,7 C 6,4 km/h (2 Bft)
14.04.2021 01:30 0,7 C 1,1 C 0,0 C 5,6 C 7,8 C 7,8 C 92 % 79 % 7 cb 5 cb 5 cb 1028,6 hPa 0,0 l/m 6,4 km/h (2 Bft) SW 225 0,000 mm 0,0 UV-I 0 W/m -0,4 C 0,7 C 9,7 km/h (2 Bft)
14.04.2021 01:29 0,7 C 1,1 C 0,0 C 5,6 C 7,8 C 7,8 C 92 % 79 % 7 cb 5 cb 5 cb 1028,6 hPa 0,0 l/m 6,4 km/h (2 Bft) SW 225 0,000 mm 0,0 UV-I 0 W/m -0,4 C 0,7 C 8,0 km/h (2 Bft)
14.04.2021 01:28 0,7 C 1,1 C 0,0 C 5,6 C 7,8 C 7,8 C 92 % 79 % 7 cb 5 cb 5 cb 1028,5 hPa 0,0 l/m 6,4 km/h (2 Bft) SW 225 0,000 mm 0,0 UV-I 0 W/m -0,4 C 0,7 C 11,3 km/h (2 Bft)
14.04.2021 01:27 0,7 C 1,1 C 0,0 C 5,6 C 7,8 C 7,8 C 92 % 79 % 7 cb 5 cb 5 cb 1028,6 hPa 0,0 l/m 3,2 km/h (1 Bft) SW 225 0,000 mm 0,0 UV-I 0 W/m -0,4 C 0,7 C 8,0 km/h (2 Bft)
14.04.2021 01:26 0,8 C 1,1 C 0,0 C 5,6 C 7,8 C 7,8 C 92 % 79 % 7 cb 5 cb 5 cb 1028,6 hPa 0,0 l/m 1,6 km/h (1 Bft) SW 225 0,000 mm 0,0 UV-I 0 W/m -0,3 C 0,8 C 8,0 km/h (2 Bft)
14.04.2021 01:25 0,7 C 1,1 C 0,0 C 5,6 C 7,8 C 7,8 C 92 % 79 % 7 cb 5 cb 5 cb 1028,6 hPa 0,0 l/m 1,6 km/h (1 Bft) SW 225 0,000 mm 0,0 UV-I 0 W/m -0,4 C 0,7 C 4,8 km/h (1 Bft)
14.04.2021 01:24 0,7 C 1,1 C 0,0 C 5,6 C 7,8 C 7,8 C 92 % 79 % 7 cb 5 cb 5 cb 1028,6 hPa 0,0 l/m 4,8 km/h (1 Bft) S-SW 202 0,000 mm 0,0 UV-I 0 W/m -0,4 C 0,7 C 8,0 km/h (2 Bft)
14.04.2021 01:23 0,7 C 1,1 C 0,0 C 5,6 C 7,8 C 7,8 C 92 % 79 % 7 cb 5 cb 5 cb 1028,6 hPa 0,0 l/m 4,8 km/h (1 Bft) SW 225 0,000 mm 0,0 UV-I 0 W/m -0,4 C 0,7 C 6,4 km/h (2 Bft)
14.04.2021 01:22 0,7 C 1,1 C 0,0 C 5,6 C 7,8 C 7,8 C 92 % 79 % 7 cb 5 cb 5 cb 1028,6 hPa 0,0 l/m 4,8 km/h (1 Bft) SW 225 0,000 mm 0,0 UV-I 0 W/m -0,4 C 0,7 C 6,4 km/h (2 Bft)
14.04.2021 01:21 0,7 C 1,1 C 0,0 C 5,6 C 7,8 C 7,8 C 92 % 79 % 7 cb 5 cb 5 cb 1028,6 hPa 0,0 l/m 6,4 km/h (2 Bft) SW 225 0,000 mm 0,0 UV-I 0 W/m -0,4 C 0,7 C 14,5 km/h (3 Bft)
14.04.2021 01:20 0,7 C 1,1 C 0,0 C 5,6 C 7,8 C 7,8 C 92 % 79 % 7 cb 5 cb 5 cb 1028,6 hPa 0,0 l/m 9,7 km/h (2 Bft) SW 225 0,000 mm 0,0 UV-I 0 W/m -0,4 C -2,4 C 14,5 km/h (3 Bft)
14.04.2021 01:19 0,7 C 1,1 C 0,0 C 5,6 C 7,8 C 7,8 C 92 % 79 % 7 cb 5 cb 5 cb 1028,6 hPa 0,0 l/m 4,8 km/h (1 Bft) W 270 0,000 mm 0,0 UV-I 0 W/m -0,4 C 0,7 C 8,0 km/h (2 Bft)
14.04.2021 01:18 0,7 C 1,1 C 0,0 C 5,6 C 7,8 C 7,8 C 92 % 79 % 7 cb 5 cb 5 cb 1028,6 hPa 0,0 l/m 4,8 km/h (1 Bft) SW 225 0,000 mm 0,0 UV-I 0 W/m -0,4 C 0,7 C 6,4 km/h (2 Bft)
14.04.2021 01:17 0,7 C 1,1 C 0,0 C 5,6 C 7,8 C 7,8 C 92 % 79 % 7 cb 5 cb 5 cb 1028,6 hPa 0,0 l/m 6,4 km/h (2 Bft) SW 225 0,000 mm 0,0 UV-I 0 W/m -0,4 C 0,7 C 9,7 km/h (2 Bft)
14.04.2021 01:16 0,7 C 1,1 C -0,6 C 5,6 C 7,8 C 7,8 C 92 % 79 % 7 cb 5 cb 5 cb 1028,6 hPa 0,0 l/m 6,4 km/h (2 Bft) SW 225 0,000 mm 0,0 UV-I 0 W/m -0,4 C 0,7 C 8,0 km/h (2 Bft)
14.04.2021 01:15 0,7 C 1,1 C -0,6 C 5,6 C 7,8 C 7,8 C 92 % 79 % 7 cb 5 cb 5 cb 1028,6 hPa 0,0 l/m 8,0 km/h (2 Bft) SW 225 0,000 mm 0,0 UV-I 0 W/m -0,4 C -0,9 C 9,7 km/h (2 Bft)
14.04.2021 01:14 0,7 C 1,1 C -0,6 C 5,6 C 7,8 C 7,8 C 92 % 79 % 7 cb 5 cb 5 cb 1028,6 hPa 0,0 l/m 3,2 km/h (1 Bft) W 270 0,000 mm 0,0 UV-I 0 W/m -0,4 C 0,7 C 9,7 km/h (2 Bft)
14.04.2021 01:13 0,7 C 1,1 C -0,6 C 5,6 C 7,8 C 7,8 C 92 % 79 % 7 cb 5 cb 5 cb 1028,7 hPa 0,0 l/m 0,0 km/h (0 Bft) N 0 0,000 mm 0,0 UV-I 0 W/m -0,4 C 0,7 C 0,0 km/h (0 Bft)
14.04.2021 01:12 0,7 C 1,1 C 0,0 C 5,6 C 7,8 C 7,8 C 92 % 79 % 7 cb 5 cb 5 cb 1028,6 hPa 0,0 l/m 0,0 km/h (0 Bft) N 0 0,000 mm 0,0 UV-I 0 W/m -0,4 C 0,7 C 0,0 km/h (0 Bft)
14.04.2021 01:11 0,8 C 1,1 C 0,0 C 5,6 C 7,8 C 7,8 C 92 % 79 % 7 cb 5 cb 5 cb 1028,6 hPa 0,0 l/m 1,6 km/h (1 Bft) SW 225 0,000 mm 0,0 UV-I 0 W/m -0,3 C 0,8 C 4,8 km/h (1 Bft)
14.04.2021 01:10 0,8 C 1,1 C 0,0 C 5,6 C 7,8 C 7,8 C 92 % 79 % 7 cb 5 cb 5 cb 1028,6 hPa 0,0 l/m 3,2 km/h (1 Bft) SW 225 0,000 mm 0,0 UV-I 0 W/m -0,3 C 0,8 C 4,8 km/h (1 Bft)
14.04.2021 01:09 0,8 C 1,1 C 0,0 C 5,6 C 7,8 C 7,8 C 92 % 79 % 7 cb 5 cb 5 cb 1028,7 hPa 0,0 l/m 4,8 km/h (1 Bft) SW 225 0,000 mm 0,0 UV-I 0 W/m -0,3 C 0,8 C 6,4 km/h (2 Bft)
14.04.2021 01:08 0,8 C 1,1 C 0,0 C 5,6 C 7,8 C 7,8 C 92 % 79 % 7 cb 5 cb 5 cb 1028,6 hPa 0,0 l/m 4,8 km/h (1 Bft) W-SW 247 0,000 mm 0,0 UV-I 0 W/m -0,3 C 0,8 C 6,4 km/h (2 Bft)
14.04.2021 01:07 0,8 C 1,1 C 0,0 C 5,6 C 7,8 C 7,8 C 92 % 79 % 7 cb 5 cb 5 cb 1028,7 hPa 0,0 l/m 4,8 km/h (1 Bft) W-SW 247 0,000 mm 0,0 UV-I 0 W/m -0,3 C 0,8 C 6,4 km/h (2 Bft)
14.04.2021 01:06 0,8 C 1,1 C 0,0 C 5,6 C 7,8 C 7,8 C 92 % 79 % 7 cb 5 cb 5 cb 1028,7 hPa 0,0 l/m 6,4 km/h (2 Bft) W-SW 247 0,000 mm 0,0 UV-I 0 W/m -0,3 C 0,8 C 8,0 km/h (2 Bft)
14.04.2021 01:05 0,8 C 1,1 C 0,0 C 5,6 C 7,8 C 7,8 C 92 % 79 % 7 cb 5 cb 5 cb 1028,7 hPa 0,0 l/m 8,0 km/h (2 Bft) W-SW 247 0,000 mm 0,0 UV-I 0 W/m -0,3 C -0,8 C 11,3 km/h (2 Bft)
14.04.2021 01:04 0,8 C 1,1 C 0,0 C 5,6 C 7,8 C 7,8 C 92 % 79 % 7 cb 5 cb 5 cb 1028,7 hPa 0,0 l/m 4,8 km/h (1 Bft) SW 225 0,000 mm 0,0 UV-I 0 W/m -0,3 C 0,8 C 9,7 km/h (2 Bft)
14.04.2021 01:03 0,8 C 1,1 C 0,0 C 5,6 C 7,8 C 7,8 C 92 % 79 % 7 cb 5 cb 5 cb 1028,7 hPa 0,0 l/m 3,2 km/h (1 Bft) SW 225 0,000 mm 0,0 UV-I 0 W/m -0,3 C 0,8 C 6,4 km/h (2 Bft)
14.04.2021 01:02 0,9 C 1,1 C 0,0 C 5,6 C 7,8 C 7,8 C 92 % 79 % 7 cb 5 cb 5 cb 1028,8 hPa 0,0 l/m 4,8 km/h (1 Bft) W-SW 247 0,000 mm 0,0 UV-I 0 W/m -0,2 C 0,9 C 8,0 km/h (2 Bft)
14.04.2021 01:01 0,9 C 1,1 C 0,0 C 5,6 C 7,8 C 7,8 C 92 % 80 % 7 cb 5 cb 5 cb 1028,8 hPa 0,0 l/m 0,0 km/h (0 Bft) N 0 0,000 mm 0,0 UV-I 0 W/m -0,2 C 0,9 C 0,0 km/h (0 Bft)
14.04.2021 01:00 0,9 C 1,1 C 0,0 C 5,6 C 7,8 C 7,8 C 92 % 79 % 7 cb 5 cb 5 cb 1028,7 hPa 0,0 l/m 3,2 km/h (1 Bft) W-SW 247 0,000 mm 0,0 UV-I 0 W/m -0,2 C 0,9 C 6,4 km/h (2 Bft)
14.04.2021 00:59 0,9 C 1,1 C 0,0 C 5,6 C 7,8 C 7,8 C 92 % 80 % 7 cb 5 cb 5 cb 1028,7 hPa 0,0 l/m 6,4 km/h (2 Bft) SW 225 0,000 mm 0,0 UV-I 0 W/m -0,2 C 0,9 C 9,7 km/h (2 Bft)
14.04.2021 00:58 0,9 C 1,1 C 0,0 C 5,6 C 7,8 C 7,8 C 92 % 80 % 7 cb 5 cb 5 cb 1028,8 hPa 0,0 l/m 8,0 km/h (2 Bft) W-SW 247 0,000 mm 0,0 UV-I 0 W/m -0,2 C -0,7 C 11,3 km/h (2 Bft)
14.04.2021 00:57 0,9 C 1,1 C 0,0 C 5,6 C 7,8 C 7,8 C 92 % 80 % 6 cb 5 cb 5 cb 1028,8 hPa 0,0 l/m 8,0 km/h (2 Bft) W-SW 247 0,000 mm 0,0 UV-I 0 W/m -0,2 C -0,7 C 11,3 km/h (2 Bft)
14.04.2021 00:56 0,9 C 1,1 C 0,0 C 5,6 C 7,8 C 7,8 C 92 % 80 % 6 cb 5 cb 5 cb 1028,8 hPa 0,0 l/m 9,7 km/h (2 Bft) W-SW 247 0,000 mm 0,0 UV-I 0 W/m -0,2 C -2,2 C 12,9 km/h (3 Bft)
14.04.2021 00:55 0,9 C 1,1 C 0,0 C 5,6 C 7,8 C 7,8 C 92 % 80 % 6 cb 5 cb 5 cb 1028,7 hPa 0,0 l/m 9,7 km/h (2 Bft) W-SW 247 0,000 mm 0,0 UV-I 0 W/m -0,2 C -2,2 C 12,9 km/h (3 Bft)
14.04.2021 00:54 0,9 C 1,1 C 0,0 C 5,6 C 7,8 C 7,8 C 92 % 80 % 6 cb 5 cb 5 cb 1028,8 hPa 0,0 l/m 4,8 km/h (1 Bft) SW 225 0,000 mm 0,0 UV-I 0 W/m -0,2 C 0,9 C 11,3 km/h (2 Bft)
14.04.2021 00:53 0,9 C 1,1 C 0,0 C 5,6 C 7,8 C 7,8 C 92 % 80 % 6 cb 5 cb 5 cb 1028,7 hPa 0,0 l/m 4,8 km/h (1 Bft) SW 225 0,000 mm 0,0 UV-I 0 W/m -0,2 C 0,9 C 9,7 km/h (2 Bft)
14.04.2021 00:52 0,9 C 1,1 C 0,0 C 5,6 C 7,8 C 7,8 C 92 % 80 % 6 cb 5 cb 5 cb 1028,8 hPa 0,0 l/m 4,8 km/h (1 Bft) SW 225 0,000 mm 0,0 UV-I 0 W/m -0,2 C 0,9 C 9,7 km/h (2 Bft)
14.04.2021 00:51 0,9 C 1,1 C 0,0 C 5,6 C 7,8 C 7,8 C 92 % 80 % 6 cb 5 cb 5 cb 1028,8 hPa 0,0 l/m 4,8 km/h (1 Bft) W-SW 247 0,000 mm 0,0 UV-I 0 W/m -0,2 C 0,9 C 8,0 km/h (2 Bft)
14.04.2021 00:50 0,9 C 1,1 C 0,0 C 5,6 C 7,8 C 7,8 C 92 % 80 % 6 cb 5 cb 5 cb 1028,8 hPa 0,0 l/m 6,4 km/h (2 Bft) S-SW 202 0,000 mm 0,0 UV-I 0 W/m -0,2 C 0,9 C 8,0 km/h (2 Bft)
14.04.2021 00:49 0,9 C 1,1 C 0,0 C 5,6 C 7,8 C 7,8 C 92 % 80 % 6 cb 5 cb 5 cb 1028,8 hPa 0,0 l/m 6,4 km/h (2 Bft) SW 225 0,000 mm 0,0 UV-I 0 W/m -0,2 C 0,9 C 8,0 km/h (2 Bft)
14.04.2021 00:48 0,9 C 1,1 C 0,6 C 5,6 C 7,8 C 7,8 C 92 % 80 % 6 cb 5 cb 5 cb 1028,8 hPa 0,0 l/m 3,2 km/h (1 Bft) W-SW 247 0,000 mm 0,0 UV-I 0 W/m -0,2 C 0,9 C 8,0 km/h (2 Bft)
14.04.2021 00:47 0,9 C 1,1 C 0,6 C 5,6 C 7,8 C 7,8 C 92 % 80 % 6 cb 5 cb 5 cb 1028,8 hPa 0,0 l/m 4,8 km/h (1 Bft) W-SW 247 0,000 mm 0,0 UV-I 0 W/m -0,2 C 0,9 C 8,0 km/h (2 Bft)
14.04.2021 00:46 0,9 C 1,1 C 0,6 C 5,6 C 7,8 C 7,8 C 92 % 80 % 6 cb 5 cb 5 cb 1028,9 hPa 0,0 l/m 1,6 km/h (1 Bft) SW 225 0,000 mm 0,0 UV-I 0 W/m -0,2 C 0,9 C 4,8 km/h (1 Bft)
14.04.2021 00:45 0,9 C 1,1 C 0,6 C 5,6 C 7,8 C 7,8 C 92 % 80 % 6 cb 5 cb 5 cb 1028,8 hPa 0,0 l/m 4,8 km/h (1 Bft) SW 225 0,000 mm 0,0 UV-I 0 W/m -0,2 C 0,9 C 6,4 km/h (2 Bft)
14.04.2021 00:44 0,9 C 1,1 C 0,6 C 5,6 C 7,8 C 7,8 C 92 % 80 % 6 cb 5 cb 5 cb 1028,9 hPa 0,0 l/m 4,8 km/h (1 Bft) W-SW 247 0,000 mm 0,0 UV-I 0 W/m -0,2 C 0,9 C 8,0 km/h (2 Bft)
14.04.2021 00:43 0,9 C 1,1 C 0,6 C 5,6 C 7,8 C 7,8 C 92 % 80 % 6 cb 5 cb 5 cb 1028,9 hPa 0,0 l/m 6,4 km/h (2 Bft) W-SW 247 0,000 mm 0,0 UV-I 0 W/m -0,2 C 0,9 C 9,7 km/h (2 Bft)
14.04.2021 00:42 0,9 C 1,1 C 0,6 C 5,6 C 7,8 C 7,8 C 92 % 80 % 6 cb 5 cb 5 cb 1028,8 hPa 0,0 l/m 6,4 km/h (2 Bft) W 270 0,000 mm 0,0 UV-I 0 W/m -0,2 C 0,9 C 8,0 km/h (2 Bft)
14.04.2021 00:41 0,9 C 1,1 C 0,6 C 5,6 C 7,8 C 7,8 C 92 % 80 % 6 cb 5 cb 5 cb 1028,8 hPa 0,0 l/m 1,6 km/h (1 Bft) SW 225 0,000 mm 0,0 UV-I 0 W/m -0,2 C 0,9 C 6,4 km/h (2 Bft)
14.04.2021 00:40 1,0 C 1,1 C 0,6 C 5,6 C 7,8 C 7,8 C 92 % 80 % 6 cb 5 cb 5 cb 1028,8 hPa 0,0 l/m 3,2 km/h (1 Bft) SW 225 0,000 mm 0,0 UV-I 0 W/m -0,2 C 1,0 C 8,0 km/h (2 Bft)
14.04.2021 00:39 0,9 C 1,1 C 0,6 C 5,6 C 7,8 C 7,8 C 92 % 80 % 6 cb 5 cb 5 cb 1028,9 hPa 0,0 l/m 0,0 km/h (0 Bft) N 0 0,000 mm 0,0 UV-I 0 W/m -0,2 C 0,9 C 0,0 km/h (0 Bft)
14.04.2021 00:38 0,9 C 1,1 C 0,6 C 5,6 C 7,8 C 7,8 C 92 % 80 % 6 cb 5 cb 5 cb 1028,9 hPa 0,0 l/m 0,0 km/h (0 Bft) N 0 0,000 mm 0,0 UV-I 0 W/m -0,2 C 0,9 C 0,0 km/h (0 Bft)
14.04.2021 00:37 0,9 C 1,1 C 0,6 C 5,6 C 7,8 C 7,8 C 92 % 80 % 6 cb 5 cb 5 cb 1028,9 hPa 0,0 l/m 1,6 km/h (1 Bft) SW 225 0,000 mm 0,0 UV-I 0 W/m -0,2 C 0,9 C 8,0 km/h (2 Bft)
14.04.2021 00:36 0,9 C 1,1 C 0,6 C 5,6 C 7,8 C 7,8 C 92 % 80 % 6 cb 5 cb 5 cb 1028,9 hPa 0,0 l/m 8,0 km/h (2 Bft) SW 225 0,000 mm 0,0 UV-I 0 W/m -0,2 C -0,7 C 9,7 km/h (2 Bft)
14.04.2021 00:35 0,9 C 1,1 C 0,6 C 5,6 C 7,8 C 7,8 C 92 % 80 % 6 cb 5 cb 5 cb 1028,8 hPa 0,0 l/m 4,8 km/h (1 Bft) SW 225 0,000 mm 0,0 UV-I 0 W/m -0,2 C 0,9 C 8,0 km/h (2 Bft)
14.04.2021 00:34 0,9 C 1,1 C 0,6 C 5,6 C 7,8 C 7,8 C 92 % 80 % 6 cb 5 cb 5 cb 1028,8 hPa 0,0 l/m 4,8 km/h (1 Bft) SW 225 0,000 mm 0,0 UV-I 0 W/m -0,2 C 0,9 C 6,4 km/h (2 Bft)
14.04.2021 00:33 1,0 C 1,1 C 0,6 C 5,6 C 7,8 C 7,8 C 92 % 80 % 6 cb 5 cb 5 cb 1028,8 hPa 0,0 l/m 6,4 km/h (2 Bft) SW 225 0,000 mm 0,0 UV-I 0 W/m -0,2 C 1,0 C 6,4 km/h (2 Bft)
14.04.2021 00:32 0,9 C 1,1 C 0,6 C 5,6 C 7,8 C 7,8 C 92 % 80 % 6 cb 5 cb 5 cb 1028,9 hPa 0,0 l/m 4,8 km/h (1 Bft) SW 225 0,000 mm 0,0 UV-I 0 W/m -0,2 C 0,9 C 8,0 km/h (2 Bft)
14.04.2021 00:31 0,9 C 1,1 C 0,6 C 5,6 C 7,8 C 7,8 C 92 % 80 % 6 cb 5 cb 5 cb 1028,9 hPa 0,0 l/m 6,4 km/h (2 Bft) SW 225 0,000 mm 0,0 UV-I 0 W/m -0,2 C 0,9 C 9,7 km/h (2 Bft)
14.04.2021 00:30 0,9 C 1,1 C 0,6 C 5,6 C 7,8 C 7,8 C 92 % 80 % 6 cb 5 cb 5 cb 1028,9 hPa 0,0 l/m 6,4 km/h (2 Bft) SW 225 0,000 mm 0,0 UV-I 0 W/m -0,2 C 0,9 C 11,3 km/h (2 Bft)
14.04.2021 00:29 0,9 C 1,1 C 0,6 C 5,6 C 7,8 C 7,8 C 91 % 79 % 6 cb 5 cb 5 cb 1029,0 hPa 0,0 l/m 8,0 km/h (2 Bft) SW 225 0,000 mm 0,0 UV-I 0 W/m -0,4 C -0,7 C 11,3 km/h (2 Bft)
14.04.2021 00:28 1,0 C 1,1 C 0,6 C 5,6 C 7,8 C 7,8 C 91 % 80 % 6 cb 5 cb 5 cb 1028,9 hPa 0,0 l/m 4,8 km/h (1 Bft) W-SW 247 0,000 mm 0,0 UV-I 0 W/m -0,3 C 1,0 C 8,0 km/h (2 Bft)
14.04.2021 00:27 1,0 C 1,1 C 0,6 C 5,6 C 7,8 C 7,8 C 91 % 79 % 6 cb 5 cb 5 cb 1028,9 hPa 0,0 l/m 6,4 km/h (2 Bft) W-SW 247 0,000 mm 0,0 UV-I 0 W/m -0,3 C 1,0 C 8,0 km/h (2 Bft)
14.04.2021 00:26 1,0 C 1,1 C 0,6 C 5,6 C 7,8 C 7,8 C 91 % 79 % 6 cb 5 cb 5 cb 1028,9 hPa 0,0 l/m 8,0 km/h (2 Bft) W-SW 247 0,000 mm 0,0 UV-I 0 W/m -0,3 C -0,6 C 11,3 km/h (2 Bft)
14.04.2021 00:25 1,0 C 1,1 C 0,6 C 5,6 C 7,8 C 7,8 C 91 % 79 % 6 cb 5 cb 5 cb 1028,9 hPa 0,0 l/m 3,2 km/h (1 Bft) SW 225 0,000 mm 0,0 UV-I 0 W/m -0,3 C 1,0 C 8,0 km/h (2 Bft)
14.04.2021 00:24 1,0 C 1,1 C 0,6 C 5,6 C 7,8 C 7,8 C 91 % 79 % 6 cb 5 cb 5 cb 1029,0 hPa 0,0 l/m 6,4 km/h (2 Bft) SW 225 0,000 mm 0,0 UV-I 0 W/m -0,3 C 1,0 C 11,3 km/h (2 Bft)
14.04.2021 00:23 1,1 C 1,1 C 0,6 C 5,6 C 7,8 C 7,8 C 91 % 79 % 6 cb 5 cb 5 cb 1029,0 hPa 0,0 l/m 8,0 km/h (2 Bft) SW 225 0,000 mm 0,0 UV-I 0 W/m -0,2 C -0,5 C 11,3 km/h (2 Bft)
14.04.2021 00:22 1,1 C 1,1 C 0,6 C 5,6 C 7,8 C 7,8 C 91 % 79 % 6 cb 5 cb 5 cb 1029,0 hPa 0,0 l/m 6,4 km/h (2 Bft) SW 225 0,000 mm 0,0 UV-I 0 W/m -0,2 C 1,1 C 9,7 km/h (2 Bft)
14.04.2021 00:21 1,1 C 1,1 C 0,6 C 5,6 C 7,8 C 7,8 C 91 % 79 % 6 cb 5 cb 5 cb 1029,0 hPa 0,0 l/m 3,2 km/h (1 Bft) W-SW 247 0,000 mm 0,0 UV-I 0 W/m -0,2 C 1,1 C 8,0 km/h (2 Bft)
14.04.2021 00:20 1,1 C 1,1 C 0,6 C 5,6 C 7,8 C 7,8 C 91 % 79 % 6 cb 5 cb 5 cb 1029,0 hPa 0,0 l/m 4,8 km/h (1 Bft) W-SW 247 0,000 mm 0,0 UV-I 0 W/m -0,2 C 1,1 C 8,0 km/h (2 Bft)
14.04.2021 00:19 1,2 C 1,1 C 0,6 C 5,6 C 7,8 C 7,8 C 91 % 79 % 6 cb 5 cb 5 cb 1029,0 hPa 0,0 l/m 4,8 km/h (1 Bft) W-SW 247 0,000 mm 0,0 UV-I 0 W/m -0,1 C 1,2 C 9,7 km/h (2 Bft)
14.04.2021 00:18 1,2 C 1,1 C 0,6 C 5,6 C 7,8 C 7,8 C 91 % 79 % 6 cb 5 cb 5 cb 1029,0 hPa 0,0 l/m 6,4 km/h (2 Bft) W-SW 247 0,000 mm 0,0 UV-I 0 W/m -0,1 C 1,2 C 9,7 km/h (2 Bft)
14.04.2021 00:17 1,2 C 1,1 C 0,6 C 5,6 C 7,8 C 7,8 C 91 % 79 % 6 cb 5 cb 5 cb 1029,0 hPa 0,0 l/m 4,8 km/h (1 Bft) W-SW 247 0,000 mm 0,0 UV-I 0 W/m -0,1 C 1,2 C 8,0 km/h (2 Bft)
14.04.2021 00:16 1,2 C 1,1 C 1,1 C 5,6 C 7,8 C 7,8 C 91 % 79 % 6 cb 5 cb 5 cb 1028,9 hPa 0,0 l/m 4,8 km/h (1 Bft) W-SW 247 0,000 mm 0,0 UV-I 0 W/m -0,1 C 1,2 C 9,7 km/h (2 Bft)
14.04.2021 00:15 1,2 C 1,7 C 1,1 C 5,6 C 7,8 C 7,8 C 91 % 79 % 6 cb 5 cb 5 cb 1029,0 hPa 0,0 l/m 0,0 km/h (0 Bft) W 270 0,000 mm 0,0 UV-I 0 W/m -0,1 C 1,2 C 4,8 km/h (1 Bft)
14.04.2021 00:14 1,2 C 1,1 C 1,1 C 5,6 C 7,8 C 7,8 C 91 % 79 % 6 cb 5 cb 5 cb 1028,9 hPa 0,0 l/m 6,4 km/h (2 Bft) W-SW 247 0,000 mm 0,0 UV-I 0 W/m -0,1 C 1,2 C 8,0 km/h (2 Bft)
14.04.2021 00:13 1,2 C 1,1 C 1,1 C 5,6 C 7,8 C 7,8 C 91 % 79 % 6 cb 5 cb 5 cb 1029,0 hPa 0,0 l/m 4,8 km/h (1 Bft) W-SW 247 0,000 mm 0,0 UV-I 0 W/m -0,1 C 1,2 C 8,0 km/h (2 Bft)
14.04.2021 00:12 1,2 C 1,1 C 1,1 C 5,6 C 7,8 C 7,8 C 91 % 79 % 6 cb 5 cb 5 cb 1028,9 hPa 0,0 l/m 8,0 km/h (2 Bft) W 270 0,000 mm 0,0 UV-I 0 W/m -0,1 C -0,4 C 9,7 km/h (2 Bft)
14.04.2021 00:11 1,2 C 1,1 C 1,1 C 5,6 C 7,8 C 7,8 C 90 % 79 % 6 cb 5 cb 5 cb 1028,9 hPa 0,0 l/m 4,8 km/h (1 Bft) W-SW 247 0,000 mm 0,0 UV-I 0 W/m -0,3 C 1,2 C 8,0 km/h (2 Bft)
14.04.2021 00:10 1,2 C 1,1 C 1,1 C 5,6 C 7,8 C 7,8 C 90 % 79 % 6 cb 5 cb 5 cb 1028,9 hPa 0,0 l/m 4,8 km/h (1 Bft) W 270 0,000 mm 0,0 UV-I 0 W/m -0,3 C 1,2 C 6,4 km/h (2 Bft)
14.04.2021 00:09 1,2 C 1,1 C 1,1 C 5,6 C 7,8 C 7,8 C 90 % 79 % 6 cb 5 cb 5 cb 1028,9 hPa 0,0 l/m 6,4 km/h (2 Bft) W-SW 247 0,000 mm 0,0 UV-I 0 W/m -0,3 C 1,2 C 8,0 km/h (2 Bft)
14.04.2021 00:08 1,3 C 1,1 C 1,1 C 5,6 C 7,8 C 7,8 C 90 % 79 % 6 cb 5 cb 5 cb 1028,9 hPa 0,0 l/m 6,4 km/h (2 Bft) W 270 0,000 mm 0,0 UV-I 0 W/m -0,2 C 1,3 C 9,7 km/h (2 Bft)
14.04.2021 00:07 1,3 C 1,1 C 1,1 C 5,6 C 7,8 C 7,8 C 90 % 79 % 6 cb 5 cb 5 cb 1029,0 hPa 0,0 l/m 6,4 km/h (2 Bft) W-SW 247 0,000 mm 0,0 UV-I 0 W/m -0,2 C 1,3 C 8,0 km/h (2 Bft)
14.04.2021 00:06 1,3 C 1,1 C 1,1 C 5,6 C 7,8 C 7,8 C 90 % 79 % 6 cb 5 cb 5 cb 1028,9 hPa 0,0 l/m 4,8 km/h (1 Bft) W-SW 247 0,000 mm 0,0 UV-I 0 W/m -0,2 C 1,3 C 8,0 km/h (2 Bft)
14.04.2021 00:05 1,3 C 1,1 C 1,1 C 5,6 C 7,8 C 7,8 C 90 % 79 % 6 cb 5 cb 5 cb 1028,9 hPa 0,0 l/m 1,6 km/h (1 Bft) W-SW 247 0,000 mm 0,0 UV-I 0 W/m -0,2 C 1,3 C 6,4 km/h (2 Bft)
14.04.2021 00:04 1,3 C 1,1 C 1,1 C 5,6 C 7,8 C 7,8 C 90 % 79 % 6 cb 5 cb 5 cb 1028,9 hPa 0,0 l/m 0,0 km/h (0 Bft) N 0 0,000 mm 0,0 UV-I 0 W/m -0,2 C 1,3 C 0,0 km/h (0 Bft)
14.04.2021 00:03 1,3 C 1,1 C 1,1 C 5,6 C 7,8 C 7,8 C 90 % 79 % 6 cb 5 cb 5 cb 1028,9 hPa 0,0 l/m 0,0 km/h (0 Bft) N 0 0,000 mm 0,0 UV-I 0 W/m -0,2 C 1,3 C 0,0 km/h (0 Bft)
14.04.2021 00:02 1,3 C 1,1 C 1,1 C 5,6 C 7,8 C 7,8 C 90 % 79 % 6 cb 5 cb 5 cb 1028,9 hPa 0,0 l/m 0,0 km/h (0 Bft) N 0 0,000 mm 0,0 UV-I 0 W/m -0,2 C 1,3 C 0,0 km/h (0 Bft)
14.04.2021 00:01 1,3 C 1,1 C 1,1 C 5,6 C 7,8 C 7,8 C 90 % 79 % 6 cb 5 cb 5 cb 1029,0 hPa 0,0 l/m 6,4 km/h (2 Bft) W-SW 247 0,000 mm 0,0 UV-I 0 W/m -0,2 C 1,3 C 9,7 km/h (2 Bft)
14.04.2021 00:00 1,3 C 1,1 C 1,1 C 5,6 C 7,8 C 7,8 C 90 % 79 % 6 cb 5 cb 5 cb 1029,0 hPa 0,0 l/m 8,0 km/h (2 Bft) W-SW 247 0,000 mm 0,0 UV-I 0 W/m -0,2 C -0,3 C 9,7 km/h (2 Bft)
_ Min-Zeit 01:12 01:43 01:13 02:27 00:00 00:00 14:37 14:46 13:27 00:00 00:00 14:31 - 00:02 - - - - - 07:29 03:10 00:02
Minimum _ 0,7 C 0,6 C -0,6 C 5,0 C 7,8 C 7,8 C 73 % 63 % 5 cb 5 cb 5 cb 1026,1 hPa - 0,0 km/h (0 Bft) - - - - - -1,6 C -4,3 C 0,0 km/h (0 Bft)
_ Max-Zeit 14:36 14:32 13:42 14:23 00:00 00:00 00:30 00:28 00:58 00:00 00:00 00:00 15:04 13:18 - - 14:00 13:45 13:47 14:36 14:40 14:02
Maximum _ 4,7 C 5,0 C 16,7 C 7,2 C 7,8 C 7,8 C 92 % 80 % 7 cb 5 cb 5 cb 1029,0 hPa 0,2 l/m 16,1 km/h
S-SW (3 Bft)
- - 0,229 mm 3,2 UV-I 1085 W/m 0,8 C 4,1 C 27,4 km/h
W-SW (4 Bft)
Durchschnitt _ 1,6 C 1,9 C 2,8 C 5,4 C 7,8 C 7,8 C 85 % 75 % 6 cb 5 cb 5 cb 1027,8 hPa #1,2 l/m 6,6 km/h (2 Bft) SW - #0,889 mm 1,4 UV-I 257 W/m -0,7 C 0,5 C 9,6 km/h (2 Bft)